[[{"header":{"parameterUnit":"m.s-1","parameterCategory":1,"la1":30.6,"la2":29.2853,"lo1":-89.7004,"lo2":-87.6739,"dy":0.0162,"dx":0.0183,"nx":112,"ny":82,"refTime":"2023-07-13T06:00:00:Z","depth":0,"parameterNumber":2,"parameterNumberName":"U-component_of_WINDS"},"data":[0.0,0.0,0.0,0.0,0.0,0.0,0.0,0.0,0.0,0.0,0.0,0.0,0.0,0.0,0.0,0.0,0.0,0.0,0.0,0.0,0.0,0.0,0.0,0.0,0.0,0.0,0.0,0.0,0.0,0.0,0.0,0.0,0.0,0.0,0.0,0.0,0.0,0.0,0.0,0.0,0.0,0.0,0.0,0.0,0.0,0.0,0.0,0.0,0.0,0.0,0.0,0.0,0.0,0.0,0.0,0.0,0.0,0.0,0.0,0.0,0.0,0.0,0.0,0.0,0.0,0.0,0.0,0.0,0.0,0.0,0.0,0.0,0.0,0.0,0.0,0.0,0.0,0.0,0.0,0.0,0.0,0.0,0.0,0.0,0.0,0.0,0.0,0.0,0.0,0.0,-0.9947,-1.1957,-1.3329,-1.4088,-1.4088,-1.4088,-1.3646,-1.2674,0.0,0.0,0.0,0.0,0.0,0.0,0.0,0.0,0.0,0.0,0.0,0.0,0.0,0.0,0.0,0.0,0.0,0.0,0.0,0.0,0.0,0.0,0.0,0.0,0.0,0.0,0.0,0.0,0.0,0.0,0.0,0.0,0.0,0.0,0.0,0.0,0.0,0.0,0.0,0.0,0.0,0.0,0.0,0.0,0.0,0.0,0.0,0.0,0.0,0.0,0.0,0.0,0.0,0.0,0.0,0.0,0.0,0.0,0.0,0.0,0.0,0.0,0.0,0.0,0.0,0.0,0.0,0.0,0.0,0.0,0.0,0.0,0.0,0.0,0.0,0.0,0.0,0.0,0.0,0.0,0.0,0.0,0.0,0.0,0.0,0.0,0.0,0.0,0.0,0.0,0.0,0.0,0.0,0.0,0.0,0.0,0.0,0.0,0.0,0.0,0.0,0.0,0.0,0.0,-1.0854,-1.2105,-1.336,-1.4088,-1.4088,-1.4088,-1.3997,-1.3822,0.0,0.0,0.0,0.0,0.0,0.0,0.0,0.0,0.0,0.0,0.0,0.0,0.0,0.0,0.0,0.0,0.0,0.0,0.0,0.0,0.0,0.0,0.0,0.0,0.0,0.0,0.0,0.0,0.0,0.0,0.0,0.0,0.0,0.0,0.0,0.0,0.0,0.0,0.0,0.0,0.0,0.0,0.0,0.0,0.0,0.0,0.0,0.0,0.0,0.0,0.0,0.0,0.0,0.0,0.0,0.0,0.0,0.0,0.0,0.0,0.0,0.0,0.0,0.0,0.0,0.0,0.0,0.0,0.0,0.0,0.0,0.0,0.0,0.0,0.0,0.0,0.0,0.0,0.0,0.0,0.0,0.0,0.0,0.0,0.0,0.0,0.0,0.0,0.0,0.0,0.0,0.0,0.0,0.0,0.0,0.0,0.0,0.0,0.0,0.0,0.0,0.0,0.0,-1.2234,-1.3581,-1.4099,-1.5199,-1.5794,-1.5794,-1.5304,-1.4977,-1.4977,-1.388,0.0,0.0,0.0,0.0,0.0,0.0,0.0,0.0,0.0,0.0,0.0,0.0,0.0,0.0,0.0,0.0,0.0,0.0,0.0,0.0,0.0,0.0,0.0,0.0,0.0,0.0,0.0,0.0,0.0,0.0,0.0,0.0,0.0,0.0,0.0,0.0,0.0,0.0,0.0,0.0,0.0,0.0,0.0,0.0,0.0,0.0,0.0,0.0,0.0,0.0,0.0,0.0,0.0,0.0,0.0,0.0,0.0,0.0,0.0,0.0,0.0,0.0,0.0,0.0,0.0,0.0,0.0,0.0,0.0,0.0,0.0,0.0,0.0,0.0,0.0,0.0,0.0,0.0,0.0,0.0,0.0,0.0,0.0,0.0,0.0,0.0,0.0,0.0,0.0,0.0,0.0,0.0,0.0,0.0,0.0,0.0,0.0,0.0,0.0,0.0,0.0,0.0,-1.428,-1.5462,-1.5696,-1.6437,-1.7009,-1.7261,-1.6355,-1.5696,-1.5696,-1.465,0.0,0.0,0.0,0.0,0.0,0.0,0.0,0.0,0.0,0.0,0.0,0.0,0.0,0.0,0.0,0.0,0.0,0.0,0.0,0.0,0.0,0.0,0.0,0.0,0.0,0.0,0.0,0.0,0.0,0.0,0.0,0.0,0.0,0.0,0.0,0.0,0.0,0.0,0.0,0.0,0.0,0.0,0.0,0.0,0.0,0.0,0.0,0.0,0.0,0.0,0.0,0.0,0.0,0.0,0.0,0.0,0.0,0.0,0.0,0.0,0.0,0.0,0.0,0.0,0.0,0.0,0.0,0.0,0.0,0.0,0.0,0.0,0.0,0.0,0.0,0.0,0.0,0.0,0.0,0.0,0.0,0.0,0.0,0.0,0.0,0.0,0.0,0.0,0.0,0.0,0.0,0.0,0.0,0.0,0.0,0.0,0.0,0.0,0.0,0.0,0.0,0.0,-1.4082,-1.4573,-1.5621,-1.5779,-1.6191,-1.7261,-1.6355,-1.5696,-1.5696,-1.465,0.0,0.0,0.0,0.0,0.0,0.0,0.0,0.0,0.0,0.0,0.0,0.0,0.0,0.0,0.0,0.0,0.0,0.0,0.0,0.0,0.0,0.0,0.0,0.0,0.0,0.0,0.0,0.0,0.0,0.0,0.0,0.0,0.0,0.0,0.0,0.0,0.0,0.0,0.0,0.0,0.0,0.0,0.0,0.0,0.0,0.0,0.0,0.0,0.0,0.0,0.0,0.0,0.0,0.0,0.0,0.0,0.0,0.0,0.0,0.0,0.0,0.0,0.0,0.0,0.0,0.0,0.0,0.0,0.0,0.0,0.0,0.0,0.0,0.0,0.0,0.0,0.0,0.0,0.0,0.0,0.0,0.0,0.0,0.0,0.0,0.0,0.0,0.0,0.0,0.0,0.0,0.0,0.0,0.0,0.0,0.0,0.0,0.0,0.0,0.0,0.0,0.0,-1.6281,-1.7334,-1.7738,-1.8381,-1.8939,-1.9353,-1.7738,-1.6683,-1.6683,0.0,0.0,0.0,0.0,0.0,0.0,0.0,0.0,0.0,0.0,0.0,0.0,0.0,0.0,0.0,0.0,0.0,0.0,0.0,0.0,0.0,0.0,0.0,0.0,0.0,0.0,0.0,0.0,0.0,0.0,0.0,0.0,0.0,0.0,0.0,0.0,0.0,0.0,0.0,0.0,0.0,0.0,0.0,0.0,0.0,0.0,0.0,0.0,0.0,0.0,0.0,0.0,0.0,0.0,0.0,0.0,0.0,0.0,0.0,0.0,0.0,0.0,0.0,0.0,0.0,0.0,0.0,0.0,0.0,0.0,0.0,0.0,0.0,0.0,0.0,0.0,0.0,0.0,0.0,0.0,0.0,0.0,0.0,0.0,0.0,0.0,0.0,0.0,0.0,0.0,0.0,0.0,0.0,0.0,0.0,0.0,0.0,0.0,0.0,0.0,0.0,0.0,-1.5613,-1.7334,-1.8638,-1.8957,-1.9678,-2.0245,-2.0566,-1.8868,-1.7827,-1.7827,0.0,0.0,0.0,0.0,0.0,0.0,0.0,0.0,0.0,0.0,0.0,0.0,0.0,0.0,0.0,0.0,0.0,0.0,0.0,0.0,0.0,0.0,0.0,0.0,0.0,0.0,0.0,0.0,0.0,0.0,0.0,0.0,0.0,0.0,0.0,0.0,0.0,0.0,0.0,0.0,0.0,0.0,0.0,0.0,0.0,0.0,0.0,0.0,0.0,0.0,0.0,0.0,0.0,0.0,0.0,0.0,0.0,0.0,0.0,0.0,0.0,0.0,0.0,0.0,0.0,0.0,0.0,0.0,0.0,0.0,0.0,0.0,0.0,0.0,0.0,0.0,0.0,0.0,0.0,0.0,0.0,0.0,0.0,0.0,0.0,0.0,0.0,0.0,0.0,0.0,0.0,0.0,0.0,0.0,0.0,0.0,0.0,0.0,0.0,0.0,0.0,0.0,-1.5779,-1.6683,-1.7747,-1.8877,-1.9036,-1.9441,-2.0489,-1.9599,-1.9036,0.0,0.0,0.0,0.0,0.0,0.0,0.0,0.0,0.0,0.0,0.0,0.0,0.0,0.0,0.0,0.0,0.0,0.0,0.0,0.0,0.0,0.0,0.0,0.0,0.0,0.0,0.0,0.0,0.0,0.0,0.0,0.0,0.0,0.0,0.0,0.0,0.0,0.0,0.0,0.0,0.0,0.0,0.0,0.0,0.0,0.0,0.0,0.0,0.0,0.0,0.0,0.0,0.0,0.0,0.0,0.0,0.0,0.0,0.0,0.0,0.0,0.0,0.0,0.0,0.0,0.0,0.0,0.0,0.0,0.0,0.0,0.0,0.0,0.0,0.0,0.0,0.0,0.0,0.0,0.0,0.0,0.0,0.0,0.0,0.0,0.0,0.0,0.0,0.0,0.0,0.0,0.0,0.0,0.0,0.0,0.0,0.0,0.0,0.0,0.0,0.0,0.0,0.0,-1.79,-1.8948,-1.9756,-2.0079,-2.0167,-2.0245,-2.0566,-1.9599,-1.9036,-1.9036,0.0,0.0,0.0,0.0,0.0,0.0,0.0,0.0,0.0,0.0,0.0,0.0,0.0,0.0,0.0,0.0,0.0,0.0,0.0,0.0,0.0,0.0,0.0,0.0,0.0,0.0,0.0,0.0,0.0,0.0,0.0,0.0,0.0,0.0,0.0,0.0,0.0,0.0,0.0,0.0,0.0,0.0,0.0,0.0,0.0,0.0,0.0,0.0,0.0,0.0,0.0,0.0,0.0,0.0,0.0,0.0,0.0,0.0,0.0,0.0,0.0,0.0,0.0,0.0,0.0,0.0,0.0,0.0,0.0,0.0,0.0,0.0,0.0,0.0,0.0,0.0,0.0,0.0,0.0,0.0,0.0,0.0,0.0,0.0,0.0,0.0,0.0,0.0,0.0,0.0,0.0,0.0,0.0,0.0,0.0,0.0,0.0,0.0,0.0,0.0,0.0,0.0,-1.8877,-1.9923,-2.0566,-2.0566,-2.0566,-2.0566,-2.0566,-2.0001,-1.9441,-1.9045,0.0,0.0,0.0,0.0,0.0,0.0,0.0,0.0,0.0,0.0,0.0,0.0,0.0,0.0,0.0,0.0,0.0,0.0,0.0,0.0,0.0,0.0,0.0,0.0,0.0,0.0,0.0,0.0,0.0,0.0,0.0,0.0,0.0,0.0,0.0,0.0,0.0,0.0,0.0,0.0,0.0,0.0,0.0,0.0,0.0,0.0,0.0,0.0,0.0,0.0,0.0,0.0,0.0,0.0,0.0,0.0,0.0,0.0,0.0,0.0,0.0,0.0,0.0,0.0,0.0,0.0,0.0,0.0,0.0,0.0,0.0,0.0,0.0,0.0,0.0,0.0,0.0,0.0,0.0,0.0,0.0,0.0,0.0,0.0,0.0,0.0,0.0,0.0,0.0,0.0,0.0,0.0,0.0,0.0,0.0,0.0,0.0,0.0,0.0,0.0,0.0,0.0,-1.9116,-2.0001,-2.0566,-2.0566,-2.0566,-2.0566,-2.0566,-2.0566,-2.0167,-1.9204,0.0,0.0,0.0,0.0,0.0,0.0,0.0,0.0,0.0,0.0,0.0,0.0,0.0,0.0,0.0,0.0,0.0,0.0,0.0,0.0,0.0,0.0,0.0,0.0,0.0,0.0,0.0,0.0,0.0,0.0,0.0,0.0,0.0,0.0,0.0,0.0,0.0,0.0,0.0,0.0,0.0,0.0,0.0,0.0,0.0,0.0,0.0,0.0,0.0,0.0,0.0,0.0,0.0,0.0,0.0,0.0,0.0,0.0,0.0,0.0,-1.5761,-1.581,0.0,0.0,0.0,0.0,0.0,0.0,0.0,0.0,0.0,0.0,0.0,0.0,0.0,0.0,0.0,0.0,0.0,0.0,0.0,0.0,0.0,0.0,0.0,0.0,0.0,0.0,0.0,0.0,0.0,0.0,0.0,0.0,0.0,0.0,0.0,0.0,0.0,0.0,0.0,0.0,-2.0157,-2.0479,-2.0566,-2.0566,-2.0566,-2.0566,-2.0566,-2.0566,-2.0489,-2.0245,-1.9441,0.0,0.0,0.0,0.0,0.0,0.0,0.0,0.0,0.0,0.0,0.0,0.0,0.0,0.0,0.0,0.0,0.0,0.0,0.0,0.0,0.0,0.0,0.0,0.0,0.0,0.0,0.0,0.0,0.0,0.0,0.0,0.0,0.0,0.0,0.0,0.0,0.0,0.0,0.0,0.0,0.0,0.0,0.0,0.0,0.0,0.0,0.0,0.0,0.0,0.0,0.0,0.0,0.0,0.0,0.0,0.0,0.0,0.0,0.0,-1.5757,-1.5832,0.0,0.0,0.0,0.0,0.0,0.0,0.0,0.0,0.0,0.0,0.0,0.0,0.0,0.0,0.0,0.0,0.0,0.0,0.0,0.0,0.0,0.0,0.0,0.0,0.0,0.0,0.0,0.0,0.0,0.0,0.0,0.0,0.0,0.0,0.0,0.0,0.0,0.0,0.0,0.0,-2.0566,-2.0566,-2.0566,-2.0566,-2.0566,-2.0566,-2.0566,-2.0566,-2.0401,-1.9844,-1.9283,0.0,0.0,0.0,0.0,0.0,0.0,0.0,0.0,0.0,0.0,0.0,0.0,0.0,0.0,0.0,0.0,0.0,0.0,0.0,0.0,0.0,0.0,0.0,0.0,0.0,0.0,0.0,0.0,0.0,0.0,0.0,0.0,0.0,0.0,0.0,0.0,0.0,0.0,0.0,0.0,0.0,0.0,0.0,0.0,0.0,0.0,0.0,0.0,0.0,0.0,0.0,0.0,0.0,-1.5832,-1.5832,-1.5832,-1.5832,-1.5832,-1.5832,-1.5832,-1.5832,-1.5832,-1.5832,0.0,0.0,0.0,0.0,0.0,0.0,0.0,0.0,0.0,0.0,0.0,0.0,0.0,0.0,0.0,0.0,0.0,0.0,0.0,0.0,0.0,0.0,-1.4643,-1.4302,-1.5057,-1.5624,-1.4484,0.0,0.0,0.0,0.0,0.0,0.0,0.0,0.0,0.0,0.0,0.0,-2.0566,-2.0566,-2.0566,-2.0566,-2.0566,-2.0566,-2.0566,-2.0566,-2.0245,-1.9353,-1.9283,-1.8381,0.0,0.0,0.0,0.0,0.0,0.0,0.0,0.0,0.0,0.0,0.0,0.0,0.0,0.0,0.0,0.0,0.0,0.0,0.0,0.0,0.0,0.0,0.0,0.0,0.0,0.0,0.0,0.0,0.0,0.0,0.0,0.0,-0.2011,-0.7375,0.0,0.0,0.0,0.0,0.0,0.0,0.0,0.0,0.0,0.0,0.0,0.0,0.0,-1.5757,-1.5757,-1.5838,-1.5832,-1.5832,-1.5832,-1.5832,-1.5832,-1.5832,-1.5832,-1.5832,-1.5832,0.0,-1.5832,-1.5832,0.0,0.0,0.0,0.0,0.0,0.0,0.0,0.0,0.0,0.0,0.0,0.0,0.0,0.0,0.0,0.0,0.0,0.0,0.0,0.0,0.0,0.0,-1.4993,-1.4856,-1.5789,-1.6294,-1.5103,-1.519,-1.5786,-1.6846,-1.709,-1.7738,0.0,0.0,0.0,0.0,0.0,0.0,-2.0566,-2.0566,-2.0566,-2.0566,-2.0566,-2.0566,-2.0566,-2.0566,-2.0566,-2.0401,-2.0401,-1.9835,-1.863,-1.7577,0.0,0.0,0.0,0.0,0.0,0.0,0.0,0.0,0.0,0.0,0.0,0.0,0.0,0.0,0.0,0.0,0.0,0.0,0.0,0.0,0.0,0.0,0.0,0.0,0.0,0.0,0.0,0.0,0.0,-0.0,-0.2005,-0.7366,-0.7965,-0.8048,0.0,0.0,0.0,0.0,0.0,0.0,0.0,0.0,0.0,-1.5803,-1.5757,-1.5832,-1.5832,-1.5832,-1.5832,-1.5832,-1.5832,-1.5832,-1.5832,-1.5832,-1.5832,-1.5832,-1.5832,-1.5832,-1.5832,-1.5832,-1.5832,-1.5832,0.0,0.0,0.0,0.0,-1.5832,-1.5832,-1.5832,-1.5832,-1.5832,-1.5832,0.0,0.0,0.0,0.0,0.0,0.0,0.0,-1.5411,-1.5251,-1.5204,-1.5339,-1.5864,-1.6858,-1.7549,-1.7121,-1.7648,-1.8121,-1.7681,-1.8133,-1.9048,-2.0362,-2.0566,0.0,0.0,0.0,-2.0566,-2.0566,-2.0566,-2.0566,-2.0566,-2.0566,-2.0566,-2.0566,-2.0566,-2.0566,-2.0566,-1.9432,-1.8541,-1.8069,-1.6445,-1.5311,0.0,0.0,0.0,0.0,0.0,0.0,0.0,0.0,0.0,0.0,0.0,0.0,0.0,0.0,0.0,0.0,0.0,0.0,0.0,0.0,0.0,0.0,0.0,0.0,0.0,0.0,0.0,0.0,-0.2002,-0.3506,-0.7559,-0.7959,-0.8045,0.0,0.0,0.0,0.0,0.0,0.0,-1.3272,-1.4586,-1.5439,-1.5825,-1.5832,-1.5832,-1.5832,-1.5832,-1.5832,-1.5832,-1.5832,-1.5832,-1.5832,-1.5832,-1.5832,-1.5832,-1.5832,-1.5832,-1.5832,-1.5832,-1.5832,-1.5832,-1.5832,-1.5832,-1.5832,-1.5832,-1.5832,-1.5832,-1.5832,-1.5832,-1.5832,-1.5832,-1.5832,-1.5832,-1.5832,0.0,0.0,0.0,0.0,-1.5778,-1.5565,-1.5504,-1.5722,-1.6817,-1.7897,-1.8688,-1.8775,-1.9903,-2.0452,-1.8776,-1.9108,-2.0007,-2.0789,-2.0898,0.0,-2.0752,-2.0732,-2.0693,-2.0576,-2.0566,-2.0566,-2.0566,-2.0566,-2.0566,-2.0566,-2.0323,-2.0157,-2.0157,-1.8381,-1.7172,-1.6927,-1.5387,-1.4412,-1.4088,0.0,0.0,0.0,0.0,0.0,0.0,0.0,0.0,0.0,0.0,0.0,0.0,0.0,0.0,0.0,0.0,0.0,0.0,0.0,0.0,0.0,0.0,0.0,0.0,0.0,0.0,0.0,0.0,0.0,-0.7975,-0.7972,0.0,0.0,0.0,0.0,-0.7963,-0.9379,-1.1161,-1.3058,-1.3669,-1.4561,-1.573,-1.5832,-1.5832,-1.5832,-1.5832,-1.5832,-1.5832,-1.5832,-1.5832,-1.5832,-1.5832,-1.5832,-1.5832,-1.5832,-1.5832,-1.5832,-1.5832,-1.5832,-1.5832,-1.5832,-1.5832,-1.5832,-1.5832,-1.5832,-1.5832,-1.5832,-1.5832,-1.5832,-1.5832,-1.5832,-1.5832,-1.5832,-1.5832,0.0,0.0,-1.5832,-1.5825,-1.5812,-1.5805,-1.6082,-1.736,-1.854,-1.9439,-1.9439,-2.1257,-2.2371,-2.0416,-2.0093,-2.0513,-2.1642,0.0,-2.168,-2.1269,-2.1201,-2.1045,-2.0625,-2.0566,-2.0566,-2.0566,-2.0566,-2.0566,-2.0566,-1.9687,-1.9116,-1.9116,-1.7989,-1.6846,-1.5779,-1.5696,-1.5137,-1.4088,-1.4088,0.0,0.0,0.0,0.0,0.0,0.0,0.0,0.0,0.0,0.0,0.0,0.0,0.0,0.0,0.0,0.0,0.0,0.0,0.0,0.0,0.0,0.0,0.0,0.0,0.0,0.0,0.0,0.0,-0.7952,-0.7952,0.0,-0.8038,-0.8038,-0.8031,-0.8011,-0.9201,-1.0676,-1.2313,-1.3386,-1.4459,-1.573,-1.5832,-1.5832,-1.5832,-1.5832,-1.5832,-1.5832,-1.5832,-1.5832,-1.5832,-1.5832,-1.5832,-1.5832,-1.5832,-1.5832,-1.5832,-1.5832,-1.5832,-1.5832,-1.5832,-1.5832,-1.5832,-1.5832,-1.5832,-1.5832,-1.5832,-1.5832,-1.5832,-1.5832,-1.5832,-1.5832,-1.5832,-1.5832,-1.5832,-1.5832,-1.5832,-1.5832,-1.5832,-1.5832,-1.6103,-1.7412,-1.8056,-1.8588,-1.9314,-2.0764,-2.1762,-2.102,-2.1302,-2.1748,-2.1841,-2.1885,-2.1836,-2.168,-2.165,-2.1494,-2.1055,-2.0996,-2.0889,-2.0596,-2.0566,-2.0323,-1.9599,-1.9204,-1.8718,-1.798,-1.6846,-1.6108,-1.5696,-1.5054,-1.4489,-1.4088,-1.4088,-1.4088,0.0,0.0,0.0,0.0,0.0,0.0,0.0,0.0,0.0,0.0,0.0,0.0,0.0,0.0,0.0,0.0,0.0,0.0,0.0,0.0,0.0,0.0,0.0,0.0,0.0,-0.7952,-0.8048,-0.8041,-0.8038,-0.8038,-0.8038,-0.8038,-0.8038,-0.8038,-0.9217,-1.0583,-1.1848,-1.3199,-1.4459,-1.573,-1.5832,-1.5832,-1.5832,-1.5832,-1.5832,-1.5832,-1.5832,-1.5832,-1.5832,-1.5832,-1.5832,-1.5832,-1.5832,-1.5832,-1.5832,-1.5832,-1.5832,-1.5832,-1.5832,-1.5832,-1.5832,-1.5832,-1.5832,-1.5832,-1.5832,-1.5832,-1.5832,-1.5832,-1.5832,-1.5832,-1.5832,-1.5832,-1.5832,-1.5832,-1.5832,-1.5832,-1.5832,-1.5832,-1.6103,-1.7412,-1.7692,-1.8048,-1.9222,-2.0124,-2.0657,-2.0657,-2.1817,-2.2637,-2.2353,-2.2305,-2.2266,-2.2119,-2.1745,-2.1322,-2.0822,-2.0389,-1.9959,-1.9672,-1.9515,-1.9195,-1.847,-1.806,-1.7577,-1.6846,-1.5786,-1.5137,-1.5137,-1.4489,-1.4088,-1.4088,-1.4182,-1.4229,-1.4235,0.0,0.0,0.0,0.0,0.0,0.0,0.0,0.0,0.0,0.0,0.0,0.0,0.0,0.0,0.0,0.0,0.0,0.0,0.0,0.0,0.0,0.0,0.0,-0.7563,-0.7972,-0.7965,-0.8041,-0.8038,-0.8038,-0.8038,-0.8038,-0.8041,-0.8038,-0.9312,-1.0583,-1.1848,-1.3199,-1.4459,-1.573,-1.5832,-1.5832,-1.5832,-1.5832,-1.5832,-1.5832,-1.5832,-1.5832,-1.5832,-1.5832,-1.5832,-1.5832,-1.5832,-1.5832,-1.5832,-1.5832,-1.5832,-1.5832,-1.5832,-1.5832,-1.5832,-1.5832,-1.5832,-1.5832,-1.5832,-1.5832,-1.5832,-1.5832,-1.5832,-1.5832,-1.5832,-1.5832,-1.5832,-1.5832,-1.5832,-1.5832,-1.5832,-1.5832,-1.6109,-1.7318,-1.7591,-1.7956,-1.9131,-1.9405,-1.9405,-1.9405,-2.14,-2.296,-2.296,-2.296,-2.2824,-2.2502,-2.1453,0.0,-2.0014,-1.8718,-1.7828,-1.7811,-1.7483,-1.7269,-1.7253,-1.6273,-1.5703,-1.5613,-1.465,-1.4088,-1.4088,-1.4095,-1.4108,-1.4115,-1.4389,-1.4536,-1.4442,0.0,0.0,0.0,0.0,0.0,0.0,0.0,0.0,0.0,0.0,0.0,0.0,0.0,0.0,0.0,0.0,0.0,0.0,0.0,0.0,0.0,-0.6545,-0.6751,-0.6234,-0.7241,-0.8045,-0.8038,-0.8038,-0.8038,-0.8038,-0.8038,-0.8432,-0.9414,-0.9801,-1.097,-1.3199,-1.368,-1.4459,-1.573,-1.5832,-1.5832,-1.5832,-1.5832,-1.5832,-1.5832,-1.5832,-1.5832,-1.5832,-1.5832,-1.5832,-1.5832,-1.5832,-1.5832,-1.5832,-1.5832,-1.5832,-1.5832,-1.5832,-1.5832,-1.5832,-1.5832,-1.5832,-1.5832,-1.5832,-1.5832,-1.5832,-1.5832,-1.5832,-1.5832,-1.5832,-1.5832,-1.5832,-1.5832,-1.5832,-1.5832,-1.5832,-1.5832,-1.592,-1.6204,-1.6292,-1.6379,-1.6749,-1.7584,-1.8234,-1.8234,-1.9413,-2.0494,-2.0494,-2.0494,-2.0459,-2.0355,-2.0069,-1.9656,-1.9196,-1.88,-1.837,-1.7861,-1.7713,-1.721,-1.6214,-1.5861,-1.5379,-1.4573,-1.425,-1.4088,-1.4088,-1.4289,-1.4502,-1.4716,-1.4803,-1.4378,0.0,0.0,0.0,0.0,0.0,0.0,0.0,0.0,0.0,0.0,0.0,0.0,0.0,0.0,0.0,0.0,0.0,0.0,0.0,0.0,0.0,0.0,-0.7366,-0.7675,-0.6642,-0.7347,-0.8048,-0.8041,-0.8038,-0.8038,-0.8038,-0.8038,-0.8333,-0.9118,-1.0194,-1.1458,-1.3006,-1.4076,-1.5045,-1.5737,-1.5832,-1.5832,-1.5832,-1.5832,-1.5832,-1.5832,-1.5832,-1.5832,-1.5832,-1.5832,-1.5832,-1.5832,-1.5832,-1.5832,-1.5832,-1.5832,-1.5832,-1.5832,0.0,0.0,0.0,0.0,-1.5832,-1.5832,-1.5832,-1.5832,-1.5832,-1.5832,-1.5832,-1.5832,-1.5832,-1.5832,-1.5832,-1.5832,-1.5832,-1.5832,-1.5832,-1.5832,-1.5832,-1.5832,-1.5832,-1.5832,-1.5832,-1.6386,-1.6943,-1.6943,-1.749,0.0,-1.794,-1.8856,-1.9497,-1.9497,-1.9047,-1.8609,-1.8403,-1.7802,-1.7206,-1.6828,-1.6662,-1.6331,-1.5469,-1.5447,0.0,0.0,0.0,-1.4456,-1.4456,-1.4616,0.0,0.0,0.0,-1.3927,-1.3176,-1.2864,0.0,0.0,-1.4521,-1.4956,0.0,0.0,0.0,0.0,0.0,0.0,0.0,0.0,0.0,0.0,0.0,0.0,0.0,0.0,0.0,0.0,-0.7885,-0.7982,-0.7972,-0.7969,-0.7962,-0.8041,-0.8038,-0.8038,-0.8038,-0.8038,-0.8038,-0.8237,-1.0386,-1.1848,-1.2139,-1.437,0.0,0.0,0.0,-1.5832,-1.5832,-1.5832,-1.5832,-1.5832,-1.5832,-1.5832,-1.5832,-1.5832,-1.5832,-1.5832,-1.5832,-1.5832,-1.5832,-1.5832,-1.5832,-1.5832,-1.5832,-1.5832,-1.5832,-1.5832,-1.5832,-1.5832,-1.5832,0.0,0.0,-1.5832,-1.5832,-1.5832,-1.5832,-1.5832,-1.5832,-1.5832,-1.5832,-1.5832,-1.5832,-1.5832,-1.5832,-1.5832,-1.5832,-1.5832,-1.5832,-1.5832,-1.5832,-1.5832,-1.5832,-1.5832,-1.5832,-1.7662,-1.9031,-1.9031,-1.8133,-1.7505,-1.7505,-1.6244,-1.5431,-1.5398,-1.5164,0.0,-1.497,-1.4963,-1.4963,-1.4963,-1.4963,-1.4977,-1.501,-1.5017,-1.503,-1.5064,-1.3982,-1.3344,-1.3251,-1.2234,-1.1668,-1.179,-1.3238,-1.4043,0.0,0.0,0.0,0.0,0.0,0.0,0.0,0.0,0.0,0.0,0.0,0.0,0.0,0.0,0.0,-0.6134,-0.7054,-0.7969,-0.8048,-0.8045,-0.8045,-0.8038,-0.8038,-0.8038,-0.8038,-0.8038,-0.8432,-0.9509,-1.0096,-1.1258,-1.3392,-1.3974,-1.4752,-1.5737,-1.5832,-1.5832,-1.5832,-1.5832,-1.5832,-1.5832,-1.5832,0.0,-1.5832,-1.5832,-1.5832,-1.5832,-1.5832,-1.5832,-1.5832,-1.5832,-1.5832,-1.5832,-1.5832,-1.5832,-1.5832,-1.5832,-1.5832,-1.5832,-1.5832,-1.5832,-1.5832,-1.5832,-1.5832,-1.5832,-1.5832,-1.5832,0.0,-1.5832,-1.5832,-1.5832,-1.5832,-1.5832,-1.5832,-1.5832,-1.5832,-1.5832,-1.5832,-1.5832,-1.5832,-1.5832,-1.5832,-1.5832,-1.5832,-1.6197,-1.6567,-1.6567,-1.6292,-1.6204,-1.6204,-1.5873,-1.5658,-1.5424,-1.5344,-1.5217,-1.4983,-1.4963,-1.4963,-1.4963,-1.4963,-1.507,-1.5304,-1.5311,-1.5424,-1.5658,-1.4456,-1.3228,-1.2169,-1.0951,-1.047,-1.072,-1.3095,-1.4207,0.0,0.0,0.0,0.0,0.0,0.0,0.0,0.0,0.0,0.0,0.0,-0.4816,-0.7477,0.0,-0.7681,-0.6662,-0.7257,-0.7828,-0.7831,-0.7821,-0.7845,-0.7916,-0.7926,-0.7896,-0.7828,-0.7821,-0.8108,-0.8771,-0.9431,-1.0564,-1.246,-1.3216,-1.4161,-1.5398,-1.5398,-1.5398,-1.5398,-1.5538,-1.5611,-1.5611,-1.5758,-1.5832,-1.5832,-1.5832,-1.5832,-1.5832,-1.5832,-1.5832,-1.5832,-1.5832,-1.5832,-1.5832,-1.5832,-1.5832,-1.5832,-1.5832,-1.5832,-1.5832,-1.5832,-1.5832,-1.5832,-1.5832,-1.5832,-1.5832,-1.5832,-1.5832,-1.5832,-1.5832,-1.5832,-1.5832,-1.5832,-1.5832,-1.5832,-1.5832,-1.5832,-1.5832,-1.5832,-1.5832,-1.5832,-1.5832,-1.5832,-1.5832,-1.5832,-1.5832,-1.5832,-1.5832,-1.5832,-1.5832,-1.5832,-1.5832,-1.5772,-1.5625,-1.5611,-1.5558,-1.5411,-1.5398,-1.5398,-1.5398,-1.5398,-1.5464,-1.5605,-1.5611,-1.5389,-1.4848,-1.359,-1.2231,-1.0974,-0.9608,-0.9061,-0.9245,-1.2229,-1.4021,0.0,0.0,0.0,0.0,0.0,0.0,0.0,-0.0,-0.0,-0.0,-0.0,-0.1339,-0.5657,-0.6457,-0.6746,-0.744,-0.7617,-0.7654,-0.7617,-0.76,-0.7631,-0.7716,-0.775,-0.7726,-0.7611,-0.76,-0.76,-0.76,-0.8516,-0.9617,-1.091,-1.1919,-1.3121,-1.4591,-1.4687,-1.4777,-1.4963,-1.5197,-1.5311,-1.5311,-1.5545,-1.5691,-1.5745,-1.5745,-1.5772,-1.5832,-1.5832,-1.5832,-1.5832,-1.5832,-1.5832,-1.5832,-1.5832,-1.5832,-1.5832,-1.5832,-1.5832,-1.5832,-1.5832,-1.5832,-1.5832,-1.5832,-1.5832,-1.5832,-1.5832,-1.5832,-1.5832,-1.5832,-1.5832,-1.5832,-1.5832,-1.5832,-1.5832,-1.5832,-1.5832,-1.5832,-1.5832,-1.5832,-1.5832,-1.5832,-1.5832,-1.5832,-1.5832,-1.5832,-1.5832,-1.5832,-1.5832,-1.5832,-1.5832,-1.5832,-1.5832,-1.5832,-1.5832,-1.5832,-1.5832,-1.5832,-1.5832,-1.5832,-1.5832,-1.5832,-1.5832,-1.5534,-1.4949,-1.3872,-1.2328,-1.1072,-0.9998,-0.8627,-0.8151,-0.8482,-1.1203,-1.322,-0.0,-0.0,-0.0,-0.0,-0.0,-0.0,0.0,-0.0,-0.0,-0.0,-0.0,-0.0191,-0.0765,-0.0859,-0.2385,-0.6899,-0.7465,-0.7439,-0.7604,-0.76,-0.7556,-0.7434,-0.7539,-0.7617,-0.76,-0.76,-0.76,-0.76,-0.7691,-0.8333,-0.9612,-0.9798,-1.0997,-1.3308,-1.3399,-1.3948,-1.4963,-1.4997,-1.501,-1.5017,-1.505,-1.5197,-1.5444,-1.5444,-1.5585,-1.5832,-1.5832,-1.5832,-1.5832,-1.5832,-1.5832,-1.5832,-1.5832,-1.5832,-1.5832,-1.5832,-1.5832,-1.5832,-1.5832,-1.5832,-1.5832,-1.5832,-1.5832,-1.5832,-1.5832,-1.5832,-1.5832,-1.5832,-1.5832,-1.5832,-1.5832,-1.5832,-1.5832,-1.5832,-1.5832,-1.5832,-1.5832,-1.5832,-1.5832,-1.5832,-1.5832,-1.5832,-1.5832,-1.5832,-1.5832,-1.5832,-1.5832,-1.5832,-1.5832,-1.5832,-1.5832,-1.5832,-1.5832,-1.5832,-1.5832,-1.5832,-1.5832,-1.5832,-1.5832,-1.5832,-1.5832,-1.4752,-1.407,-1.3878,-1.1453,-1.0096,-0.9998,-0.8627,-0.87,-1.0146,-1.0651,-1.1686,0.2056,0.2057,0.179,0.0358,-0.0,-0.0,-0.0,-0.0,-0.0,-0.0,-0.0,-0.0,-0.0,-0.0,-0.0654,-0.2804,-0.5616,-0.7468,-0.7366,-0.7353,-0.7322,-0.7248,-0.7295,-0.7333,-0.7333,-0.7333,-0.7333,-0.7333,-0.7333,-0.7869,-0.9114,-0.9114,-1.0267,-1.2575,-1.2663,-1.3287,-1.4456,-1.4623,-1.4703,-1.471,-1.4883,-1.503,-1.5144,-1.5144,-1.5211,-1.5337,-1.5617,-1.5792,-1.5805,-1.5765,-1.5832,-1.5832,-1.5832,-1.5832,-1.5832,-1.5832,-1.5832,-1.5832,-1.5832,-1.5832,-1.5832,-1.5832,-1.5832,-1.5832,-1.5832,-1.5832,-1.5832,-1.5832,-1.5832,-1.5832,-1.5832,-1.5832,-1.5832,-1.5832,-1.5832,-1.5832,-1.5832,-1.5832,-1.5832,-1.5832,-1.5832,-1.5832,-1.5832,-1.5832,-1.5832,-1.5832,-1.5832,-1.5832,-1.5832,-1.5832,-1.5832,-1.5832,-1.5832,-1.5832,-1.5832,-1.5832,-1.5832,-1.5832,-1.5832,-1.5832,-1.5832,-1.4561,-1.3488,-1.2716,-1.097,-0.9608,-0.8825,-0.8233,-0.8368,-0.9029,-1.0203,-1.1057,0.4559,0.4559,0.4111,0.2413,0.1446,0.082,0.018,-0.0,-0.0,-0.0,-0.0,-0.0,-0.0,-0.0,-0.0,-0.0,-0.3111,-0.5655,-0.6103,-0.6719,-0.7078,-0.7064,-0.7143,-0.7139,-0.7139,-0.7139,-0.7139,-0.7139,-0.7139,-0.7492,-0.8364,-0.8364,-0.9314,-1.1295,-1.1381,-1.2077,-1.3555,-1.3761,-1.4037,-1.4402,-1.4623,-1.4763,-1.4843,-1.493,-1.4963,-1.4977,-1.5393,-1.5593,-1.5606,-1.5717,-1.5846,-1.5819,-1.5819,-1.5765,-1.5832,-1.5832,-1.5832,-1.5832,-1.5832,-1.5832,-1.5832,-1.5832,-1.5832,-1.5832,-1.5832,-1.5832,-1.5832,-1.5832,-1.5832,-1.5832,-1.5832,-1.5832,-1.5832,-1.5832,-1.5832,-1.5832,-1.5832,-1.5832,-1.5832,-1.5832,-1.5832,-1.5832,-1.5832,-1.5832,-1.5832,-1.5832,-1.5832,-1.5832,-1.5832,-1.5832,-1.5832,-1.5832,-1.5832,-1.5832,-1.5832,-1.5439,-1.5242,-1.5242,-1.4949,-1.4758,-1.4758,-1.3494,-1.2328,-1.1361,-1.0096,-0.892,-0.8038,-0.8038,-0.8038,-0.8045,-0.9457,-1.0132,0.7009,0.7009,0.7009,0.692,0.5193,0.2858,0.0536,-0.0,-0.0,-0.0,-0.0,-0.0,-0.0,-0.0,-0.0,-0.0,-0.009,-0.1073,-0.3392,-0.5636,-0.7084,-0.7084,-0.7064,-0.7139,-0.7139,-0.7139,-0.7139,-0.7139,-0.7139,-0.7139,-0.7139,-0.7139,-0.7753,-0.8978,-0.8978,-1.0096,-1.2328,-1.2334,-1.2954,-1.4102,-1.4108,-1.4262,-1.4543,-1.483,-1.4963,-1.4963,-1.4977,-1.508,-1.5273,-1.5597,-1.5777,-1.5828,-1.5828,-1.5792,-1.5832,-1.5832,-1.5832,-1.5832,-1.5832,-1.5832,-1.5832,-1.5832,-1.5832,-1.5832,-1.5832,-1.5832,-1.5832,-1.5832,-1.5832,-1.5832,-1.5832,-1.5832,-1.5832,-1.5832,-1.5832,-1.5832,-1.5832,-1.5832,-1.5832,-1.5832,-1.5832,-1.5832,-1.5832,-1.5832,-1.5832,-1.5832,-1.5832,-1.5832,-1.5832,-1.5832,-1.5832,-1.5832,-1.5832,-1.5832,-1.5832,-1.4657,-1.3968,-1.3968,-1.2721,-1.2047,-1.2047,-1.0779,-1.0096,-1.0096,-0.8726,-0.8038,-0.8038,-0.8038,-0.8038,-0.8045,-0.8343,-0.8584,0.8472,0.83,0.8128,0.7265,0.6542,0.5727,0.4924,0.3486,0.1965,0.0358,-0.0,-0.0,-0.0,-0.0,-0.0,-0.0,-0.0,-0.0269,-0.1072,-0.1876,-0.3575,-0.6732,-0.7084,-0.7074,-0.7074,-0.7061,-0.7139,-0.7139,-0.7139,-0.7139,-0.7139,-0.7139,-0.7665,-0.889,-0.889,-0.9666,-1.1128,-1.1895,-1.2498,-1.2942,-1.3737,-1.4135,-1.4235,-1.4335,-1.4382,-1.4396,-1.4583,-1.4669,-1.4784,-1.5089,-1.523,-1.5208,-1.4799,-1.5087,-1.5758,-1.5758,-1.5772,-1.5832,-1.5832,-1.5832,-1.5832,-1.5832,-1.5832,-1.5832,-1.5832,-1.5832,-1.5832,-1.5832,-1.5832,-1.5832,-1.5832,-1.5832,-1.5832,-1.5832,-1.5832,-1.5832,-1.5832,-1.5832,-1.5832,-1.5832,-1.5832,-1.5832,-1.5832,-1.5832,-1.5832,-1.5832,-1.5832,-1.5832,-1.5832,-1.5832,-1.5832,-1.5832,-1.5045,-1.4555,-1.4555,-1.3301,-1.2528,-1.2528,-1.2139,-1.1945,-1.1945,-1.0681,-0.9998,-0.9998,-0.8726,-0.8038,-0.8038,-0.8038,-0.8038,-0.8045,-0.8343,-0.8482,0.9662,0.9492,0.9323,0.8552,0.8036,0.7598,0.7156,0.5899,0.4378,0.2861,0.1163,-0.0,-0.0,-0.0,-0.0,-0.0,-0.0,-0.0,-0.0,-0.0,-0.1162,-0.4206,-0.528,-0.6177,-0.6996,-0.7071,-0.7061,-0.7139,-0.7139,-0.7139,-0.7139,-0.7139,-0.7489,-0.8189,-0.8277,-0.8798,-1.0009,-1.0697,-1.1295,-1.1724,-1.33,-1.3906,-1.347,-1.3906,-1.4088,-1.4095,-1.4282,-1.4362,-1.4382,-1.4569,-1.4703,-1.4606,-1.4205,-1.474,-1.5602,-1.5602,-1.5685,-1.5832,-1.5832,-1.5832,-1.5832,-1.5832,-1.5832,-1.5832,-1.5832,-1.5832,-1.5832,-1.5832,-1.5832,-1.5832,-1.5832,-1.5832,-1.5832,-1.5832,-1.5832,-1.5832,-1.5832,-1.5832,-1.5635,-1.5242,-1.5534,-1.5534,-1.4567,-1.437,-1.437,-1.437,-1.437,-1.4561,-1.5051,-1.5146,-1.4949,-1.4465,-1.3686,-1.3199,-1.3199,-1.194,-1.1268,-1.1268,-1.0779,-1.0485,-1.0485,-0.9702,-0.9316,-0.9316,-0.8432,-0.8038,-0.8038,-0.8038,-0.8038,-0.8045,-0.8343,-0.8482,1.0697,1.0697,1.0697,1.0611,0.9749,0.8707,0.7446,0.7221,0.7173,0.7098,0.3489,0.0268,0.0089,-0.0,-0.0,-0.0,-0.0,-0.0,-0.0,-0.0,-0.0,-0.0,-0.2142,-0.4556,-0.6903,-0.7088,-0.7078,-0.7143,-0.7139,-0.7139,-0.7139,-0.7139,-0.7139,-0.7139,-0.7139,-0.7665,-0.8803,-0.889,-0.9492,-1.0697,-1.2948,-1.347,-1.2413,-1.3561,-1.4088,-1.4088,-1.4088,-1.4088,-1.4088,-1.4088,-1.4064,-1.4109,-1.4109,-1.4556,-1.5167,-1.5167,-1.5458,-1.5832,-1.5832,-1.5832,-1.5832,-1.5832,-1.5832,-1.5832,-1.5832,-1.5832,-1.5832,-1.5832,-1.573,-1.573,-1.573,-1.5635,-1.5635,-1.5635,-1.5635,-1.5635,-1.5635,-1.5635,-1.5242,-1.407,-1.4752,-1.4854,-1.2334,-1.1945,-1.1945,-1.1945,-1.1945,-1.2334,-1.3584,-1.3776,-1.3295,-1.2042,-1.1853,-1.1755,-1.1755,-1.0583,-0.9903,-0.9903,-0.8726,-0.8038,-0.8038,-0.8038,-0.8038,-0.8038,-0.8038,-0.8038,-0.8038,-0.8038,-0.8041,-0.8058,-0.8347,-0.8486,1.2072,1.1901,1.1638,1.0783,1.0351,0.9831,0.8698,0.8452,0.8208,0.7262,0.6091,0.42,0.0626,-0.0,-0.0,-0.0,-0.0,-0.0,-0.0,-0.0,-0.0,-0.0,-0.2151,-0.4484,-0.685,-0.7101,-0.7084,-0.7078,-0.7061,-0.7139,-0.7139,-0.7139,-0.7139,-0.7139,-0.7139,-0.7228,-0.7577,-0.8452,-0.9923,-1.1901,-1.2504,-1.3033,-1.3646,-1.3997,-1.4088,-1.4088,-1.4088,-1.4088,-1.4088,-1.4088,-1.4128,-1.4103,-1.4103,-1.4556,-1.5174,-1.5077,-1.5391,-1.5832,-1.5832,-1.5832,-1.5832,-1.5832,-1.5832,-1.5832,-1.5832,-1.5832,-1.5832,-1.5832,-1.5146,-1.4364,-1.4364,-1.3686,-1.2915,-1.2915,-1.2915,-1.2915,-1.2915,-1.2915,-1.2818,-1.2431,-1.2624,-1.2721,-1.2042,-1.1945,-1.1945,-1.1945,-1.1945,-1.2042,-1.2334,-1.2431,-1.2237,-1.1945,-1.1068,-1.0485,-1.0485,-0.9312,-0.8528,-0.8528,-0.8237,-0.8038,-0.8038,-0.8038,-0.8038,-0.8038,-0.8038,-0.8038,-0.8038,-0.8038,-0.8099,-0.8214,-0.8397,-0.8543,1.3288,1.3112,1.2942,1.226,1.1735,1.1042,0.9923,0.9235,0.8544,0.733,0.7078,0.6269,0.3575,0.1429,-0.0,-0.0,-0.0,-0.0,-0.0,-0.0,-0.0,-0.0,-0.1167,-0.2511,-0.3859,-0.5841,-0.7104,-0.7094,-0.7068,-0.7139,-0.7139,-0.7139,-0.7139,-0.7139,-0.7139,-0.7139,-0.7139,-0.8277,-0.9318,-1.0082,-1.1552,-1.2163,-1.1832,-1.3392,-1.3822,-1.3379,-1.3906,-1.4088,-1.4088,-1.4088,-1.4088,-1.4088,-1.4088,-1.4462,-1.4885,-1.5006,-1.5251,-1.5658,-1.5785,-1.5832,-1.5832,-1.5832,-1.5832,-1.573,-1.514,-1.5343,-1.554,-1.437,-1.398,-1.3776,-1.3199,-1.2431,-1.1945,-1.1945,-1.1945,-1.1945,-1.1945,-1.1945,-1.1945,-1.1945,-1.0974,-1.0413,-1.1086,-1.0712,-1.0345,-1.0427,-1.044,-1.044,-1.044,-1.0789,-1.0877,-1.0288,-0.9509,-0.9118,-0.9118,-0.8432,-0.8038,-0.8038,-0.8038,-0.8038,-0.8038,-0.8038,-0.8038,-0.8038,-0.8038,-0.8038,-0.8038,-0.8106,-0.8184,-0.8275,-0.8486,-0.8628,1.4075,1.4088,1.4088,1.4088,1.3294,1.2157,1.0869,0.9836,0.8711,0.7404,0.7068,0.7081,0.7084,0.3753,0.0715,0.0089,-0.0,-0.0,-0.0,-0.0,-0.0,-0.0,-0.0,-0.0,-0.0,-0.3767,-0.6394,-0.7019,-0.6802,-0.6782,-0.7058,-0.7143,-0.7139,-0.7139,-0.7139,-0.7139,-0.7139,-0.8105,-0.8189,-0.7404,-1.0428,-1.095,-0.9492,-1.2516,-1.3379,-1.2589,-1.3646,-1.4088,-1.4088,-1.4088,-1.4088,-1.4088,-1.4088,-1.4262,-1.4556,-1.4856,-1.515,-1.5438,-1.5732,-1.573,-1.554,-1.554,-1.554,-1.5337,-1.3974,-1.437,-1.4854,-1.2528,-1.2619,-1.3102,-1.1945,-1.1556,-1.1361,-1.1361,-1.1361,-1.1361,-1.1361,-1.1385,-1.1409,-1.1409,-0.9561,-0.8435,-0.977,-0.9101,-0.834,-0.8462,-0.8482,-0.8482,-0.8482,-0.9244,-0.9351,-0.8168,-0.8052,-0.8038,-0.8038,-0.8038,-0.8038,-0.8038,-0.8038,-0.8038,-0.8038,-0.8038,-0.8038,-0.8038,-0.8058,-0.8069,-0.8069,-0.8225,-0.8309,-0.8336,-0.8591,-0.872,1.4021,1.4088,1.4088,1.4088,1.3913,1.3215,1.1128,1.0438,0.9657,0.7577,0.7143,0.7064,0.7081,0.645,0.4561,0.0626,-0.0,-0.0,-0.0,-0.0,-0.0,-0.0,-0.0,-0.0,-0.0,-0.0717,-0.2867,-0.6764,-0.5285,-0.509,-0.6989,-0.7061,-0.7139,-0.7139,-0.7139,-0.7139,-0.7139,-0.7316,-0.7841,-0.8627,-0.9231,-1.0269,-1.1724,-1.2328,-1.3033,-1.3822,-1.3997,-1.4088,-1.4088,-1.4088,-1.4088,-1.4088,-1.4088,-1.4262,-1.4556,-1.4856,-1.515,-1.5438,-1.5732,-1.514,-1.4262,-1.4262,-1.4262,-1.3974,-1.2624,-1.2431,-1.2431,-1.2042,-1.1263,-1.0583,-1.0391,-0.9509,-0.8627,-0.8627,-0.8627,-0.8627,-0.8627,-0.8833,-0.8932,-0.8932,-0.8628,-0.8515,-0.8748,-0.865,-0.8455,-0.8479,-0.8482,-0.8482,-0.8482,-0.8539,-0.8533,-0.8231,-0.8116,-0.8038,-0.8038,-0.8038,-0.8038,-0.8038,-0.8038,-0.8038,-0.8038,-0.8038,-0.8038,-0.8038,-0.8167,-0.8231,-0.8231,-0.8374,-0.8509,-0.8635,-0.8686,-0.8777,1.3774,1.3854,1.3895,1.4048,1.4088,1.3476,1.1128,1.0611,0.9918,0.7577,0.7139,0.7143,0.7064,0.7081,0.6367,0.4026,0.1611,-0.0,-0.0,-0.0,-0.0,-0.0,-0.0,-0.0,-0.0,-0.0,-0.1436,-0.5046,-0.5394,-0.5922,-0.6996,-0.7064,-0.7139,-0.7139,-0.7139,-0.7139,-0.7139,-0.7139,-0.7404,-0.7929,-0.8627,-0.9144,-0.9648,-1.1461,-1.1992,-1.1483,-1.2687,-1.3118,-1.3118,-1.3118,-1.3555,-1.3997,-1.3379,-1.3284,-1.3454,-1.3887,-1.4126,-1.4393,-1.5483,-1.4949,-1.3776,-1.3102,-1.2813,-1.2619,-1.1263,-1.1365,-1.1653,-1.0288,-0.9899,-0.9801,-0.9118,-0.8531,-0.8038,-0.8038,-0.8038,-0.8062,-0.8143,-0.8218,-0.8292,-0.8367,-0.8435,-0.8506,-0.8587,-0.8601,-0.8628,-0.8706,-0.872,-0.872,-0.872,-0.8591,-0.8469,-0.8387,-0.8313,-0.8269,-0.8269,-0.8269,-0.8238,-0.8163,-0.8228,-0.8235,-0.8163,-0.8231,-0.8269,-0.8269,-0.8343,-0.8381,-0.8381,-0.853,-0.8638,-0.8713,-0.8794,-0.8869,1.3467,1.3594,1.3701,1.3935,1.3866,1.3209,1.1042,1.0438,0.9662,0.7577,0.7139,0.7139,0.7139,0.7078,0.6917,0.6462,0.3676,0.1168,0.018,-0.0,-0.0,-0.0,-0.0,-0.0,-0.0,-0.0,-0.0802,-0.2665,-0.4528,-0.6054,-0.7081,-0.7068,-0.7058,-0.7139,-0.7139,-0.7139,-0.7139,-0.7139,-0.7139,-0.7139,-0.8105,-0.8193,-0.7577,-1.0346,-1.0697,-0.9405,-1.1128,-1.1901,-1.1901,-1.1901,-1.251,-1.33,-1.2334,-1.1901,-1.2043,-1.2563,-1.2757,-1.3008,-1.4471,-1.4172,-1.2909,-1.1848,-1.1463,-1.1263,-0.9998,-1.0288,-1.0681,-0.8627,-0.8726,-0.9316,-0.8233,-0.8038,-0.8038,-0.8038,-0.8065,-0.8123,-0.8245,-0.8319,-0.8397,-0.8509,-0.8557,-0.8618,-0.8737,-0.876,-0.8801,-0.892,-0.894,-0.894,-0.894,-0.8832,-0.8713,-0.8594,-0.852,-0.8482,-0.8482,-0.8482,-0.8435,-0.8323,-0.8421,-0.8431,-0.8319,-0.8421,-0.8482,-0.8482,-0.8513,-0.853,-0.853,-0.8682,-0.876,-0.8764,-0.8882,-0.894,1.3166,1.344,1.3654,1.3674,1.3021,1.2157,1.0869,0.984,0.8715,0.7404,0.7139,0.7139,0.7139,0.7071,0.6361,0.4287,0.5387,0.4949,0.0629,-0.0,-0.0,-0.0,-0.0,-0.0,-0.0,-0.0,-0.0087,-0.034,-0.0507,-0.2571,-0.689,-0.7084,-0.7074,-0.7139,-0.7139,-0.7139,-0.7139,-0.7139,-0.7139,-0.7139,-0.7228,-0.7753,-0.8715,-0.9061,-0.9666,-1.0438,-1.0697,-1.0783,-1.0783,-1.0783,-1.0783,-1.0869,-1.0783,-1.0783,-1.084,-1.1297,-1.1466,-1.1533,-1.2081,-1.1458,-1.0386,-1.0194,-1.0194,-0.9899,-0.8627,-0.8233,-0.8333,-0.8038,-0.8137,-0.8137,-0.8038,-0.8038,-0.8038,-0.8038,-0.8147,-0.8252,-0.8269,-0.8482,-0.8672,-0.8686,-0.8801,-0.8903,-0.8916,-0.8916,-0.8923,-0.8937,-0.894,-0.894,-0.894,-0.8927,-0.8913,-0.8899,-0.8648,-0.8482,-0.8482,-0.8482,-0.8476,-0.8462,-0.8476,-0.8476,-0.8462,-0.8476,-0.8482,-0.8482,-0.8618,-0.8689,-0.8689,-0.8845,-0.8916,-0.8916,-0.893,-0.894,1.2846,1.3013,1.3146,1.334,1.2638,1.1623,1.0455,0.9475,0.8467,0.727,0.7004,0.7071,0.7071,0.7094,0.6815,0.5832,0.4053,0.2203,0.0264,-0.0,-0.0,-0.0,-0.0,-0.0,-0.0,-0.0,-0.0,-0.0,-0.0,-0.0845,-0.2747,-0.5578,-0.7078,-0.7071,-0.7058,-0.7139,-0.7139,-0.7139,-0.7139,-0.7139,-0.7139,-0.7312,-0.7841,-0.854,-0.8711,-0.8532,-0.9231,-0.9579,-0.9579,-0.9579,-1.0009,-1.0524,-0.9836,-0.9579,-0.9611,-0.9984,-1.0159,-1.0394,-1.1442,-1.0964,-0.9998,-0.9998,-0.941,-0.8726,-0.8137,-0.8038,-0.8038,-0.8038,-0.8038,-0.8038,-0.8038,-0.8038,-0.8038,-0.8038,-0.816,-0.8292,-0.8381,-0.8564,-0.8737,-0.8828,-0.8896,-0.894,-0.894,-0.894,-0.894,-0.894,-0.894,-0.894,-0.894,-0.894,-0.894,-0.894,-0.8828,-0.8757,-0.8757,-0.8757,-0.8716,-0.8625,-0.8706,-0.8716,-0.8621,-0.871,-0.8757,-0.8757,-0.8818,-0.8849,-0.8849,-0.891,-0.894,-0.894,-0.894,-0.8947,1.1714,1.1821,1.1933,1.2139,1.1438,1.0519,0.9619,0.8756,0.7858,0.7027,0.6956,0.7041,0.7041,0.7071,0.7061,0.0,0.3103,-0.0,-0.0,-0.0,-0.0,-0.0,-0.0,-0.0,-0.0,-0.0,-0.0,-0.0,-0.1155,-0.1901,-0.1827,-0.506,-0.6994,-0.7102,-0.7092,-0.7102,-0.7139,-0.7139,-0.7139,-0.7139,-0.7139,-0.7139,-0.7139,-0.8013,-0.7929,-0.7139,-0.8017,-0.8364,-0.8364,-0.8364,-0.8882,-0.9483,-0.8711,-0.8364,-0.8388,-0.8649,-0.8826,-0.9092,-1.0211,-1.0031,-0.941,-0.941,-0.8726,-0.8038,-0.8038,-0.8038,-0.8038,-0.8038,-0.8038,-0.8038,-0.8038,-0.8038,-0.8038,-0.8038,-0.8191,-0.836,-0.8462,-0.8638,-0.8811,-0.8916,-0.894,-0.894,-0.894,-0.894,-0.894,-0.894,-0.894,-0.894,-0.894,-0.894,-0.894,-0.894,-0.894,-0.894,-0.894,-0.894,-0.8893,-0.8784,-0.8879,-0.8889,-0.8781,-0.8879,-0.894,-0.894,-0.894,-0.894,-0.894,-0.8947,-0.895,-0.895,-0.8846,-0.8399,0.9301,0.9535,0.9703,0.9703,0.9068,0.8397,0.8401,0.751,0.6702,0.6702,0.6798,0.6809,0.6809,0.6927,0.7119,0.7119,0.3117,-0.0,-0.0,-0.0,-0.0,-0.0,-0.0,-0.0,-0.0,-0.0,-0.0,-0.0,-0.3859,-0.6238,-0.6222,-0.6448,-0.673,-0.7118,-0.7125,-0.7101,-0.7139,-0.7139,-0.7139,-0.7139,-0.7139,-0.7139,-0.7139,-0.7139,-0.7139,-0.7139,-0.7139,-0.7139,-0.7139,-0.7139,-0.7139,-0.7139,-0.7139,-0.7139,-0.716,-0.7312,-0.7468,-0.7621,-0.776,-0.7909,-0.8038,-0.8038,-0.8038,-0.8038,-0.8038,-0.8038,-0.8038,-0.8038,-0.8038,-0.8038,-0.8038,-0.8038,-0.8038,-0.8038,-0.8265,-0.8479,-0.8482,-0.872,-0.8937,-0.894,-0.894,-0.894,-0.894,-0.894,-0.894,-0.894,-0.894,-0.894,-0.894,-0.894,-0.894,-0.894,-0.894,-0.894,-0.894,-0.894,-0.894,-0.8937,-0.8937,-0.894,-0.8937,-0.894,-0.894,-0.894,-0.894,-0.894,-0.894,-0.885,-0.8863,-0.8863,-0.8883,-0.7296,0.9296,0.9352,0.9402,0.9402,0.8681,0.7952,0.7952,0.7278,0.6651,0.6651,0.6836,0.7014,0.7014,0.4378,0.2261,0.2226,0.0987,-0.0,-0.0,-0.0,-0.0,-0.0,-0.0,-0.0,-0.0,-0.0,-0.1178,-0.4095,-0.5526,-0.6264,-0.6294,-0.6366,-0.6498,-0.6793,-0.6787,-0.6848,-0.6993,-0.6997,-0.7044,-0.7139,-0.7139,-0.7139,-0.7139,-0.7139,-0.7139,-0.7139,-0.7139,-0.7139,-0.7139,-0.7139,-0.7139,-0.7139,-0.7139,-0.7139,-0.7146,-0.7193,-0.7309,-0.7465,-0.7614,-0.776,-0.7899,-0.8007,-0.8038,-0.8038,-0.8038,-0.8038,-0.8038,-0.8038,-0.8038,-0.8038,-0.8038,-0.8038,-0.8038,-0.8038,-0.8265,-0.8482,-0.8482,-0.8723,-0.894,-0.894,-0.894,-0.894,-0.894,-0.894,-0.894,-0.894,-0.894,-0.894,-0.894,-0.894,-0.894,-0.894,-0.894,-0.894,-0.894,-0.894,-0.894,-0.894,-0.894,-0.894,-0.894,-0.8954,-0.8853,-0.8853,-0.8866,-0.8873,-0.8873,-0.8883,-0.7856,-0.5929,-0.7982,-0.8447,0.794,0.8178,0.8178,0.8178,0.7723,0.7265,0.7265,0.682,0.6265,0.5448,0.6105,0.6774,0.6774,0.3038,-0.0,-0.0,-0.0,-0.0,-0.0,-0.0,-0.0,-0.0,-0.0,-0.0642,-0.2249,-0.2379,-0.3142,-0.4956,-0.583,-0.6305,-0.6291,-0.6285,-0.6366,-0.6468,-0.66,-0.6698,-0.6841,-0.6844,-0.6915,-0.7061,-0.7061,-0.7088,-0.7139,-0.7139,-0.7139,-0.7139,-0.7139,-0.7139,0.0,-0.7139,-0.7139,-0.7139,-0.7139,-0.7139,-0.7139,-0.7139,-0.7238,-0.7394,-0.7546,-0.7692,-0.7834,-0.7991,-0.8045,-0.7952,-0.7959,-0.8048,-0.8038,-0.8038,-0.8038,-0.8038,-0.8038,-0.8038,-0.8055,-0.8113,-0.8309,-0.8499,-0.8557,-0.8764,-0.894,-0.894,-0.894,-0.894,-0.894,-0.894,-0.8944,-0.895,-0.8954,-0.8954,-0.8853,-0.8853,-0.8853,-0.8853,-0.8853,-0.8853,-0.8853,-0.8846,-0.8846,-0.8853,-0.8853,-0.8853,-0.8853,-0.8866,-0.8415,-0.7279,-0.7287,-0.7293,-0.7293,-0.8329,-0.6847,-0.2796,-0.4709,-0.5504,0.0,0.6058,0.6054,0.6054,0.6054,0.6054,0.6054,0.6217,0.0,0.3752,0.4638,0.5849,0.5849,0.2435,-0.0471,-0.0471,-0.0157,-0.0,-0.0,-0.0,-0.0,-0.0,-0.0236,-0.1963,-0.5927,-0.6329,-0.5436,-0.3515,-0.5168,-0.6278,-0.6278,-0.6268,-0.6338,-0.6338,-0.6489,-0.6634,-0.6681,-0.6685,-0.6763,-0.6912,-0.6922,-0.6997,-0.7126,-0.7136,-0.7139,-0.7139,-0.7139,-0.7139,-0.7139,-0.7139,-0.7139,-0.7139,-0.7139,-0.7139,-0.7139,-0.7139,-0.7231,-0.7377,-0.7533,-0.7678,-0.7824,-0.7991,-0.7856,-0.7669,-0.7679,-0.7865,-0.8041,-0.8041,-0.8041,-0.8041,-0.8041,-0.8041,-0.8082,-0.8235,-0.8384,-0.853,-0.8682,-0.8835,-0.8944,-0.8944,-0.8944,-0.8944,-0.8944,-0.8944,-0.895,-0.8863,-0.8749,-0.8641,-0.8549,-0.8552,-0.8552,-0.8552,-0.8552,-0.8667,-0.8897,-0.8759,-0.8641,-0.8549,-0.8552,-0.8552,-0.8552,-0.8782,-0.7639,-0.4921,-0.436,-0.4136,-0.4136,-0.6964,-0.539,-0.0,-0.0,-0.0,0.3696,0.0,0.383,0.383,0.383,0.383,0.0,0.0,0.0,0.0,0.3379,0.1492,0.1492,-0.1964,-0.4818,-0.481,-0.2121,-0.0,-0.0,-0.0,-0.0,-0.0,-0.2829,-0.5207,-0.6169,-0.6315,-0.6058,-0.5565,-0.6038,-0.6274,-0.6268,-0.6264,-0.6338,-0.6338,-0.6376,-0.6465,-0.6525,-0.6525,-0.6603,-0.6756,-0.6871,-0.6946,-0.6983,-0.7092,-0.7139,-0.7139,-0.7139,-0.7139,-0.7139,-0.7139,-0.7139,-0.7139,-0.7139,-0.7139,-0.7139,-0.7139,-0.7163,-0.7217,-0.739,-0.7449,-0.7515,-0.7888,-0.6648,-0.4924,-0.4926,-0.6345,-0.7979,-0.7979,-0.7979,-0.7979,-0.7979,-0.7979,-0.8016,-0.8061,-0.8317,-0.8468,-0.851,-0.8769,-0.888,-0.888,-0.888,-0.888,-0.888,-0.888,-0.8883,-0.8886,-0.6948,-0.5481,-0.5485,-0.5485,-0.5485,-0.5485,-0.5485,-0.6502,-0.868,-0.6842,-0.5481,-0.5485,-0.5485,-0.5485,-0.5485,-0.7644,-0.8565,-0.7877,-0.3361,-0.1008,-0.1008,-0.1793,-0.1345,-0.0,-0.0,-0.0,0.0235,0.0939,0.1643,0.1643,0.1643,0.1643,0.1643,0.0,0.0,0.0,-0.1333,-0.2277,-0.0392,-0.3461,-0.6335,-0.6332,-0.4415,-0.291,-0.2906,-0.2907,-0.2512,-0.1566,-0.345,-0.519,-0.6227,-0.6295,-0.6285,-0.6271,-0.6271,-0.6268,-0.6338,-0.6338,-0.6338,-0.6338,-0.6338,-0.6298,-0.6376,-0.6376,-0.6451,-0.6597,-0.6678,-0.6793,-0.6929,-0.7007,-0.7078,-0.7139,-0.7139,-0.7139,-0.7139,-0.7139,-0.7139,-0.7139,-0.7139,-0.7139,-0.7139,-0.7139,-0.7139,-0.7166,-0.7343,-0.6689,-0.6101,-0.7518,-0.6977,-0.5648,-0.4334,-0.5046,-0.6165,-0.615,-0.6145,-0.6145,-0.6145,-0.6145,-0.6186,-0.6147,-0.634,-0.6432,-0.66,-0.6795,-0.6842,-0.6842,-0.6842,-0.6842,-0.6842,-0.6842,-0.7299,-0.8673,-0.753,-0.5491,-0.2797,-0.2461,-0.2461,-0.2461,-0.3695,-0.5725,-0.8696,-0.7432,-0.5386,-0.2573,-0.2461,-0.2461,-0.2461,-0.3923,-0.4826,-0.4826,-0.1681,-0.0,-0.0,-0.0,-0.0,-0.0,-0.0,-0.0,-0.3595,-0.227,-0.0863,-0.0549,-0.0235,-0.0078,-0.0392,0.0,0.0,0.0,-0.6084,-0.5202,-0.1646,-0.3612,-0.5839,-0.5839,-0.5849,-0.5934,-0.625,-0.6329,-0.5599,-0.3832,-0.3595,-0.43,-0.6119,-0.6278,-0.6271,-0.6338,-0.6338,-0.6338,-0.6338,-0.6338,-0.6338,-0.6338,-0.6338,-0.6338,-0.6338,-0.6338,-0.6322,-0.6441,-0.6461,-0.6607,-0.6861,-0.6909,-0.6993,-0.7109,-0.7132,-0.7139,-0.7139,-0.7139,-0.7139,-0.7139,-0.7139,-0.7139,-0.7139,-0.7143,-0.7058,-0.7084,-0.7259,-0.5583,-0.3813,-0.6009,-0.6776,-0.6382,-0.4048,-0.334,-0.3436,-0.342,-0.3416,-0.3416,-0.3416,-0.3416,-0.3347,-0.3367,-0.3395,-0.3429,-0.3773,-0.3801,-0.3801,-0.3801,-0.3801,-0.3801,-0.3801,-0.3801,-0.4702,-0.7198,-0.7541,-0.5727,-0.0673,-0.0,-0.0,-0.0,-0.2244,-0.4836,-0.7337,-0.7567,-0.5402,-0.0336,-0.0,-0.0,-0.0,-0.0,-0.0,-0.0,-0.0,-0.0,-0.0,-0.0,-0.0,-0.0,-0.0,-0.0,-0.5811,-0.5578,-0.4865,-0.3049,-0.133,-0.047,-0.2188,-0.4003,-0.4964,0.0,-0.5021,-0.6067,-0.5442,-0.4396,-0.3599,-0.3599,-0.3599,-0.4235,-0.6006,-0.6329,-0.6162,-0.5817,-0.5805,-0.5957,-0.6278,-0.6271,-0.6264,-0.6338,-0.6338,-0.6338,-0.6338,-0.6338,-0.6338,-0.6338,-0.6338,-0.6338,-0.6338,-0.6338,-0.6271,-0.6295,-0.6413,-0.6498,-0.6552,-0.681,-0.6943,-0.6966,-0.7088,-0.7139,-0.7139,-0.7139,-0.7139,-0.7139,-0.7139,-0.7139,-0.7143,-0.7074,-0.7081,-0.7104,-0.7106,-0.4325,-0.0672,-0.1077,-0.1196,-0.1111,-0.0707,-0.0606,-0.0606,-0.0605,-0.0605,-0.0605,-0.0605,-0.0605,-0.0611,-0.0634,-0.0639,-0.0645,-0.0668,-0.0672,-0.0672,-0.0672,-0.0672,-0.0672,-0.0672,-0.0672,-0.0896,-0.1345,-0.1345,-0.1009,-0.0112,-0.0,-0.0,-0.0,-0.0449,-0.0897,-0.1346,-0.1346,-0.1009,-0.0112,-0.0,-0.0,-0.0,-0.0,-0.0,-0.0,-0.0,-0.0,-0.0,-0.0,-0.0,-0.0,-0.0,-0.0,-0.6274,-0.6278,-0.6035,-0.5082,-0.4144,-0.3366,-0.3124,-0.4792,-0.5999,-0.5015,-0.5649,-0.6298,-0.6302,-0.4857,-0.3906,-0.4698,-0.4222,-0.4302,-0.6058,-0.6302,-0.6295,-0.6278,-0.6271,-0.6271,-0.6271,-0.6264,-0.6338,-0.6338,-0.6338,-0.6338,-0.6338,-0.6338,-0.6338,-0.6338,-0.6338,-0.6338,-0.6338,-0.6338,-0.6338,-0.6338,-0.6325,-0.6396,-0.6478,-0.6617,-0.6776,-0.6853,-0.692,-0.6997,-0.7078,-0.7078,-0.7078,-0.7078,-0.7078,-0.7078,-0.6986,-0.5636,-0.6008,-0.7135,-0.7116,-0.3942,-0.0,-0.0,-0.0,-0.0,-0.0,-0.0,-0.0,-0.0,-0.0,-0.0,-0.0,-0.0,-0.0,-0.0,-0.0,-0.0,-0.0,-0.0,-0.0,-0.0,-0.0,-0.0,-0.0,-0.0,-0.0,-0.0,-0.0,-0.0,-0.0,-0.0,-0.0,-0.0,-0.0,-0.0,-0.0,-0.0,-0.0,-0.0,-0.0,-0.0,-0.0,-0.0,-0.0,-0.0,-0.0,-0.0,-0.0,-0.0,-0.0,-0.0,-0.0,-0.0,-0.6644,-0.649,-0.6338,-0.6338,-0.6278,-0.5889,-0.4222,-0.5104,-0.6308,-0.6281,-0.6281,-0.6285,-0.6281,-0.5401,-0.5007,-0.6129,-0.5404,-0.5082,-0.6119,-0.6278,-0.6274,-0.6264,-0.6338,-0.6338,-0.6338,-0.6338,-0.6338,-0.6338,-0.6338,-0.6338,-0.6338,-0.6338,-0.6338,-0.6338,-0.6338,-0.6338,-0.6338,-0.6338,-0.6338,-0.6338,-0.6338,-0.6318,-0.6424,-0.6464,-0.6614,-0.6759,-0.6218,-0.6132,-0.6239,-0.6269,-0.6281,-0.6281,-0.6281,-0.6646,-0.6926,-0.5107,-0.4844,-0.5417,-0.5413,-0.3084,-0.0,-0.0,-0.0,-0.0,-0.0,-0.0,-0.0,-0.0,-0.0,-0.0,-0.0,-0.0,-0.0,-0.0,-0.0,-0.0,-0.0,-0.0,-0.0,-0.0,-0.0,-0.0,-0.0,-0.0,-0.0,-0.0,-0.0,-0.0,-0.0,-0.0,-0.0,-0.0,-0.0,-0.0,-0.0,-0.0,-0.0,-0.0,-0.0,-0.0,-0.0,-0.0,-0.0,-0.0,-0.0,-0.0,-0.0,-0.0,-0.0,-0.0,-0.0,-0.0,-0.7706,-0.7022,-0.6338,-0.6338,-0.6271,-0.6274,-0.6106,-0.6193,-0.6278,-0.6264,-0.6264,-0.6268,-0.6278,-0.6197,-0.6197,-0.6278,-0.6197,-0.6197,-0.6278,-0.6278,-0.6274,-0.6264,-0.6338,-0.6338,-0.6338,-0.6338,-0.6338,-0.6338,-0.6338,-0.6338,-0.6338,-0.6338,-0.6338,-0.6338,-0.6338,-0.6338,-0.6338,-0.6338,-0.6338,-0.6338,-0.6338,-0.6345,-0.6359,-0.6517,-0.6599,-0.6471,-0.46,-0.3815,-0.3826,-0.3809,-0.3838,-0.3838,-0.3838,-0.5201,-0.7045,-0.6949,-0.4137,-0.0539,-0.054,-0.0277,-0.0,-0.0,-0.0,-0.0,-0.0,-0.0,-0.0,-0.0,-0.0,-0.0,-0.0,-0.0,-0.0,-0.0,-0.0,-0.0,-0.0,-0.0,-0.0,-0.0,-0.0,-0.0,-0.0,-0.0,-0.0,-0.0,-0.0,-0.0,-0.0,-0.0,-0.0,-0.0,-0.0,-0.0,-0.0,-0.0,-0.0,-0.0,-0.0,-0.0,-0.0,-0.0,-0.0,-0.0,-0.0,-0.0,-0.0,-0.0,-0.0,-0.0,-0.0,-0.0,-0.7931,-0.7553,-0.7099,-0.649,-0.6264,-0.6268,-0.6264,-0.6271,-0.6274,-0.6264,-0.6268,-0.6271,-0.6268,-0.6268,-0.6268,-0.6268,-0.6268,-0.6268,-0.6268,-0.6268,-0.6268,-0.6338,-0.6338,-0.6338,-0.6338,-0.6338,-0.6338,-0.6338,-0.6338,-0.6338,-0.6338,-0.6338,-0.6338,-0.6338,-0.6338,-0.6264,-0.6271,-0.6264,-0.6268,-0.6281,-0.6268,-0.6264,-0.6274,-0.6414,-0.6427,-0.6377,-0.565,-0.3815,-0.139,-0.1401,-0.1328,-0.1344,-0.1344,-0.1884,-0.2695,-0.2695,-0.1527,-0.0,-0.0,-0.0,-0.0,-0.0,-0.0,-0.0,-0.0,-0.0,-0.0,-0.0,-0.0,-0.0,-0.0,-0.0,-0.0,-0.0,-0.0,-0.0,-0.0,-0.0,-0.0,-0.0,-0.0,-0.0,-0.0,-0.0,-0.0,-0.0,-0.0,-0.0,-0.0,-0.0,-0.0,-0.0,-0.0,-0.0,-0.0,-0.0,-0.0,-0.0,-0.0,-0.0,-0.0,-0.0,-0.0,-0.0,-0.0,-0.0,-0.0,-0.0,-0.0,-0.0,-0.0,-0.0,-0.8089,-0.7553,-0.7176,-0.649,0.0,-0.6338,-0.6338,-0.6268,-0.6271,-0.6264,-0.6268,-0.6271,-0.6264,-0.6338,-0.6338,-0.6338,-0.6338,-0.6338,-0.6338,-0.6338,-0.6338,-0.6338,-0.6338,-0.6338,-0.6338,-0.6338,-0.6338,-0.6338,-0.6338,-0.6338,-0.6338,-0.6338,-0.6264,-0.6268,-0.6268,-0.6271,-0.6285,-0.5637,-0.564,-0.6295,-0.564,-0.5637,-0.6285,-0.6291,-0.6284,-0.6241,-0.4885,-0.2653,-0.0,-0.0,-0.0,-0.0,-0.0,-0.0,-0.0,-0.0,-0.0,-0.0,-0.0,-0.0,-0.0,-0.0,-0.0,-0.0,-0.0,-0.0,-0.0,-0.0,-0.0,-0.0,-0.0,-0.0,-0.0,-0.0,-0.0,-0.0,-0.0,-0.0,-0.0,-0.0,-0.0,-0.0,-0.0,-0.0,-0.0,-0.0,-0.0,-0.0,-0.0,-0.0,-0.0,-0.0,-0.0,-0.0,-0.0,-0.0,-0.0,-0.0,-0.0,-0.0,-0.0,-0.0,-0.0,-0.0,-0.0,-0.0,-0.0,-0.0,-0.0,-0.0,-0.0,-0.0,-0.8084,-0.7099,-0.6338,-0.6338,-0.6338,-0.6338,-0.6338,-0.6338,-0.6338,-0.6338,-0.6338,-0.6338,-0.6338,-0.6338,-0.6338,-0.6338,-0.6338,-0.6338,-0.6338,-0.6338,-0.6338,-0.6338,-0.6338,-0.6338,-0.6338,-0.6338,-0.6338,-0.6338,-0.6338,-0.6338,-0.6338,-0.6338,-0.6268,-0.6278,-0.6278,-0.6281,-0.6295,-0.4146,-0.4146,-0.6295,-0.4146,-0.4226,-0.6298,-0.6318,-0.625,-0.6015,-0.1852,-0.0,-0.0,-0.0,-0.0,-0.0,-0.0,-0.0,-0.0,-0.0,-0.0,-0.0,-0.0,-0.0,0.0093,-0.0,-0.0,-0.0,-0.0,-0.0,-0.0,-0.0,-0.0,-0.0,0.0101,0.0101,0.0101,-0.0,-0.0,-0.0,-0.0,-0.0,-0.0,-0.0,-0.0,-0.0,-0.0,-0.0,-0.0,-0.0,-0.0,-0.0,-0.0,-0.0,-0.0,-0.0,-0.0,-0.0,-0.0,-0.0,-0.0,0.0112,0.0112,0.0112,-0.0,-0.0,-0.0,-0.0,-0.0,-0.0,-0.0,-0.0,-0.0,-0.0,0.0112,0.0112,-0.9145,-0.8084,-0.7173,-0.649,-0.6338,-0.6338,-0.6338,-0.6338,-0.6338,-0.6338,-0.6338,-0.6338,-0.6338,-0.6338,-0.6338,-0.6338,-0.6268,-0.6271,-0.6264,-0.6268,-0.6271,-0.6264,-0.6268,-0.6274,-0.6274,-0.6281,-0.6285,-0.6285,-0.6285,-0.6285,-0.6285,-0.6285,-0.6288,-0.6291,-0.4854,-0.4784,-0.6318,-0.4153,-0.4155,-0.6332,-0.568,-0.5677,-0.6318,-0.6325,-0.4651,-0.1807,-0.0554,-0.0,-0.0,-0.0,-0.0,-0.0,-0.0,-0.0,-0.0,-0.0,-0.0,-0.0,-0.0,0.2164,0.4462,0.1113,-0.0,-0.0,-0.0,-0.0,-0.0,-0.0,-0.0,0.0909,0.4649,0.5667,0.4651,0.0909,-0.0,-0.0,-0.0,-0.0,-0.0,-0.0,-0.0,-0.0,-0.0,-0.0,-0.0,-0.0,-0.0,-0.0,-0.0,-0.0,-0.0,-0.0,-0.0,-0.0,-0.0,-0.0,0.1773,0.5951,0.6293,0.4375,0.0224,-0.0,-0.0,-0.0,-0.0,-0.0,-0.0,-0.0,-0.0,0.0112,0.4263,0.6293,-0.8461,-0.7629,-0.7022,-0.6412,-0.6338,-0.6338,-0.6338,-0.6338,-0.6338,-0.6338,-0.6338,-0.6338,-0.6338,-0.6338,-0.6264,-0.6268,-0.6274,-0.6035,-0.516,-0.5799,-0.6281,-0.6274,-0.6281,-0.5964,-0.5087,-0.5015,-0.5018,-0.5018,-0.5018,-0.5018,-0.5018,-0.5018,-0.5419,-0.6308,-0.5029,-0.4162,-0.3777,-0.2508,-0.251,-0.3785,-0.5535,-0.5451,-0.3777,-0.3777,-0.2435,-0.0,-0.0,-0.0,-0.0,-0.0,-0.0,-0.0,-0.0,-0.0,-0.0,-0.0,0.1168,0.2785,0.2785,0.4131,0.5407,0.3489,0.2233,0.1415,0.1554,0.158,0.1597,0.1608,0.1611,0.2316,0.555,0.7187,0.6882,0.2619,0.1611,0.1611,0.1611,0.1611,0.1611,0.1611,0.1611,0.1611,0.1611,0.1611,0.1612,0.1613,0.2523,0.2837,0.1739,0.1546,0.156,0.1577,0.1589,0.1603,0.162,0.1621,0.3149,0.6707,0.8053,0.716,0.3514,0.2334,0.1791,0.1791,0.1791,0.1791,0.1791,0.1791,0.1791,0.1903,0.5493,0.7762,-0.7099,-0.6412,-0.6338,-0.6338,-0.6338,-0.6338,-0.6338,-0.6338,-0.6338,-0.6338,-0.6338,-0.6338,-0.6264,-0.6264,-0.6268,-0.6278,-0.6281,-0.5565,-0.3437,-0.4623,-0.5814,-0.5973,-0.6217,-0.55,-0.3597,-0.3046,-0.2812,-0.2812,-0.2812,-0.2812,-0.2812,-0.2812,-0.3682,-0.5686,-0.5689,-0.3857,-0.0,-0.0,-0.0,-0.0079,-0.3864,-0.3704,-0.0,-0.0,-0.0,-0.0,-0.0,-0.0,-0.0,-0.0,-0.0,-0.0,-0.0,-0.0,0.009,0.0448,0.3409,0.7135,0.7135,0.5746,0.43,0.6421,0.5626,0.3988,0.4244,0.4298,0.4321,0.4397,0.432,0.432,0.4318,0.6145,0.7372,0.4924,0.4318,0.432,0.432,0.432,0.432,0.432,0.432,0.432,0.432,0.432,0.4321,0.4029,0.6271,0.7086,0.4724,0.4384,0.4327,0.4327,0.4391,0.4332,0.4339,0.4339,0.4343,0.4348,0.6923,0.8441,0.8543,0.6141,0.4897,0.4897,0.4905,0.4908,0.4908,0.4916,0.492,0.492,0.492,0.6383,-0.8765,-0.748,-0.6338,-0.6338,-0.6338,-0.6338,-0.6338,-0.6338,-0.6338,-0.6338,-0.6338,-0.6264,-0.6274,-0.6274,-0.6278,-0.6291,-0.6308,-0.559,-0.3439,-0.2111,-0.1956,-0.3597,-0.5268,-0.6084,-0.568,-0.2589,-0.0706,-0.0706,-0.0706,-0.0706,-0.0706,-0.0706,-0.0863,-0.1335,-0.1335,-0.0942,-0.0,-0.0,-0.0,-0.0,-0.0943,-0.0864,-0.0,-0.0,-0.0,-0.0,-0.0,-0.0,-0.0,-0.0,-0.0,-0.0,-0.0,-0.0,0.0438,0.421,0.6225,0.7131,0.7115,0.6735,0.6456,0.6952,0.6759,0.6406,0.6768,0.6994,0.7107,0.7132,0.7166,0.7166,0.7156,0.7566,0.7869,0.7238,0.715,0.7166,0.7166,0.7166,0.7166,0.7166,0.7166,0.7166,0.7166,0.7166,0.645,0.4321,0.6253,0.7788,0.7169,0.7089,0.711,0.711,0.7134,0.7091,0.7191,0.7096,0.7238,0.7328,0.7982,0.8407,0.8496,0.794,0.766,0.766,0.7877,0.7932,0.7932,0.7928,0.7979,0.7979,0.7961,0.8295,-0.8694,-0.748,-0.6338,-0.6338,-0.6338,-0.6338,-0.6338,-0.6338,-0.6264,-0.6268,-0.6271,-0.6271,-0.6278,-0.5485,-0.5093,-0.6149,-0.6322,-0.5204,-0.2036,-0.0705,-0.0392,-0.1487,-0.2589,-0.3303,-0.3303,-0.1256,-0.0,-0.0,-0.0,-0.0,-0.0,-0.0,-0.0,-0.0,-0.0,-0.0,-0.0,-0.0,0.1021,0.2992,0.2989,0.2511,0.1488,0.0471,-0.0,-0.0,-0.0,-0.0,-0.0,-0.0,-0.0,-0.0,-0.0,0.126,0.3341,0.5843,0.68,0.6913,0.6987,0.7021,0.7071,0.7078,0.7125,0.7125,0.7468,0.7624,0.7777,0.7919,0.7908,0.7965,0.7959,0.7955,0.7955,0.8041,0.7952,0.7965,0.7965,0.7965,0.7965,0.7965,0.7965,0.7965,0.7965,0.7975,0.7566,0.6126,0.7153,0.7979,0.7965,0.7965,0.7965,0.7965,0.7965,0.7999,0.7975,0.7978,0.8008,0.8176,0.8183,0.818,0.8272,0.8292,0.8374,0.8513,0.8598,0.8783,0.8858,0.8825,0.8793,0.8863,0.8853,0.8846,-0.8313,-0.7176,-0.6338,-0.6338,-0.6338,-0.6338,-0.6338,-0.6338,-0.6264,-0.6278,-0.6278,-0.6281,-0.6288,-0.4859,-0.3997,-0.5045,-0.5207,-0.4014,-0.0471,-0.0,-0.0,-0.0,0.0628,0.0785,0.0079,0.0314,0.0706,0.1099,0.0706,0.0549,0.0549,0.0549,0.0549,0.0549,0.0549,0.0549,0.0549,0.0549,0.2277,0.5774,0.6087,0.5352,0.3597,0.188,0.0706,-0.0,-0.0,-0.0,-0.0,-0.0,0.0397,0.1051,0.1051,0.3035,0.5788,0.6213,0.6544,0.6738,0.6847,0.6924,0.7109,0.7132,0.7139,0.717,0.7326,0.7478,0.7631,0.777,0.7923,0.8038,0.8038,0.8038,0.8038,0.8038,0.8038,0.8038,0.8038,0.8038,0.8038,0.8038,0.8038,0.8038,0.8038,0.7955,0.7962,0.8041,0.7955,0.7962,0.8041,0.8038,0.8038,0.8038,0.8038,0.8038,0.8038,0.8038,0.8038,0.8038,0.8038,0.8038,0.8038,0.8038,0.8153,0.8401,0.8431,0.8509,0.8635,0.8686,0.8774,0.8899,0.8927,0.8923,-0.9367,-0.7706,-0.6338,-0.6338,-0.6338,-0.6338,-0.6338,-0.6338,-0.6264,-0.6278,-0.6278,-0.6288,-0.6318,-0.6084,-0.4805,-0.1413,-0.0864,-0.0628,-0.0079,-0.0,-0.0,-0.0,0.3224,0.4016,0.0393,0.1643,0.3446,0.5286,0.3763,0.2656,0.2656,0.2656,0.2656,0.2656,0.2656,0.2656,0.2656,0.2656,0.2969,0.3521,0.5419,0.6139,0.5892,0.5581,0.3448,-0.0,-0.0,-0.0,-0.0,-0.0,0.2125,0.5474,0.5474,0.4649,0.3743,0.5798,0.6552,0.6692,0.6806,0.6943,0.6976,0.7099,0.7139,0.717,0.7326,0.7478,0.7631,0.777,0.7923,0.8038,0.8038,0.8038,0.8038,0.8038,0.8038,0.8038,0.8038,0.8038,0.8038,0.8038,0.8038,0.8038,0.8038,0.8041,0.8041,0.8038,0.8041,0.8041,0.8038,0.8038,0.8038,0.8038,0.8038,0.8038,0.8038,0.8038,0.8038,0.8038,0.8038,0.8038,0.8038,0.8038,0.8058,0.8099,0.8231,0.8309,0.833,0.8584,0.872,0.8743,0.8876,0.8869,-0.8912,-0.7783,-0.7022,-0.6412,-0.6338,-0.6338,-0.6338,-0.6338,-0.6268,-0.6285,-0.5329,-0.4859,-0.6084,-0.4332,-0.22,-0.0314,-0.0,0.0864,0.3224,0.354,0.3064,0.1879,0.337,0.4238,0.3608,0.3285,0.399,0.6149,0.5419,0.4859,0.4859,0.4859,0.4859,0.4859,0.4859,0.4859,0.4859,0.4859,0.4857,0.4929,0.5883,0.6281,0.6278,0.6278,0.5257,0.3458,0.227,0.2429,0.3461,0.2272,0.2818,0.4633,0.583,0.5695,0.501,0.6054,0.6468,0.6607,0.6753,0.6858,0.6953,0.7095,0.7139,0.7153,0.7221,0.7411,0.7611,0.7675,0.7862,0.8038,0.8038,0.8038,0.8038,0.8038,0.8038,0.8038,0.8038,0.8038,0.8038,0.8038,0.8038,0.8038,0.8038,0.8038,0.8038,0.8038,0.8038,0.8038,0.8038,0.8038,0.8038,0.8038,0.8038,0.8038,0.8038,0.8038,0.8038,0.8038,0.8038,0.8038,0.8038,0.8038,0.8038,0.8038,0.8106,0.8184,0.8272,0.8401,0.8506,0.8584,0.8652,0.8648,-0.8613,-0.7783,-0.7249,-0.649,-0.6338,-0.6338,-0.6264,-0.6268,-0.6274,-0.6298,-0.5023,-0.4077,-0.4567,-0.2121,0.0314,0.1414,0.157,0.2514,0.5121,0.5921,0.5674,0.4068,0.3908,0.454,0.6136,0.4854,0.4616,0.621,0.6288,0.6288,0.6288,0.6288,0.6288,0.6288,0.6288,0.6288,0.6288,0.6288,0.6281,0.6274,0.6274,0.6271,0.6338,0.6338,0.6281,0.6155,0.4229,0.4467,0.6159,0.4548,0.3908,0.4064,0.5649,0.6285,0.6274,0.6274,0.6335,0.6444,0.6634,0.6776,0.6902,0.7082,0.7139,0.7139,0.7139,0.7329,0.755,0.759,0.7784,0.7991,0.8028,0.8038,0.8038,0.8038,0.8038,0.8038,0.8038,0.8038,0.8038,0.8038,0.8038,0.8038,0.8038,0.8038,0.8038,0.8038,0.8038,0.8038,0.8038,0.8038,0.8038,0.8038,0.8038,0.8038,0.8038,0.8038,0.8038,0.8038,0.8038,0.8038,0.8038,0.8038,0.8038,0.8038,0.8038,0.8096,0.8211,0.8252,0.8326,0.8428,0.8465,0.8462,-0.9221,-0.7859,-0.6338,-0.6338,-0.6338,-0.6264,-0.6274,-0.6278,-0.6288,-0.6322,-0.6247,-0.4967,-0.1021,-0.0157,0.1335,0.5288,0.6009,0.5358,0.3519,0.5018,0.6295,0.6136,0.6126,0.62,0.6291,0.6197,0.6187,0.6278,0.6271,0.6264,0.6264,0.6264,0.6264,0.6264,0.6264,0.6264,0.6264,0.6264,0.6264,0.6264,0.6264,0.6338,0.6338,0.6338,0.6268,0.62,0.4768,0.4932,0.6298,0.6213,0.6129,0.6119,0.6278,0.6271,0.6264,0.6264,0.6268,0.6315,0.66,0.6705,0.6759,0.7048,0.7139,0.7139,0.7139,0.7255,0.7414,0.756,0.7706,0.7858,0.8001,0.8038,0.8038,0.8038,0.8038,0.8038,0.8038,0.8038,0.8038,0.8038,0.8038,0.8038,0.8038,0.8038,0.8038,0.8038,0.8038,0.8038,0.8038,0.8038,0.8038,0.8038,0.8038,0.8038,0.8038,0.8038,0.8038,0.8038,0.8038,0.8038,0.8038,0.8038,0.8038,0.8038,0.8038,0.8041,0.8052,0.8201,0.8275,0.8286,0.8418,0.8411,-0.9674,-0.877,-0.7936,-0.6641,-0.6338,-0.6264,-0.6274,-0.6278,-0.6288,-0.6322,-0.6329,-0.4171,0.2749,0.4016,0.457,0.6087,0.6318,0.6061,0.5249,0.5805,0.6281,0.6274,0.6271,0.6271,0.6274,0.6268,0.6567,0.718,0.7253,0.7249,0.7249,0.7249,0.6945,0.6338,0.6338,0.6338,0.6338,0.6338,0.6338,0.6338,0.6338,0.6338,0.6338,0.6338,0.6264,0.6268,0.5786,0.5873,0.6285,0.6278,0.6271,0.6268,0.6268,0.6264,0.6338,0.6338,0.6338,0.6302,0.66,0.6702,0.6749,0.7044,0.7139,0.7139,0.7139,0.7248,0.7383,0.7438,0.7628,0.7824,0.7879,0.7967,0.8038,0.8038,0.8038,0.8038,0.8038,0.8038,0.8038,0.8038,0.8038,0.8038,0.8038,0.8038,0.8038,0.8038,0.8038,0.8038,0.8038,0.8038,0.8038,0.8038,0.8038,0.8038,0.8038,0.8038,0.8038,0.8038,0.8038,0.8038,0.8038,0.8038,0.8038,0.8038,0.8038,0.8038,0.8038,0.8096,0.8123,0.8123,0.8174,0.817,-1.0196,-0.9291,-0.8466,-0.7099,-0.6567,-0.6264,-0.6274,-0.5721,-0.5015,-0.4323,-0.5288,-0.3696,0.4732,0.6325,0.6318,0.6312,0.6298,0.6285,0.6274,0.6274,0.6271,0.6264,0.6338,0.6338,0.6338,0.6338,0.6718,0.7706,0.7783,0.7936,0.8313,0.8313,0.7859,0.6872,0.649,0.6338,0.6338,0.6338,0.6338,0.6338,0.6338,0.6338,0.6338,0.6338,0.6338,0.6338,0.6338,0.6268,0.6271,0.6264,0.6338,0.6338,0.6338,0.6338,0.6338,0.6338,0.6338,0.6295,0.6539,0.6658,0.6742,0.699,0.7102,0.7139,0.7139,0.721,0.7305,0.7356,0.7512,0.7685,0.7784,0.7926,0.8038,0.8038,0.8038,0.8038,0.8038,0.8038,0.8038,0.8038,0.8038,0.8038,0.8038,0.8038,0.8038,0.8038,0.8038,0.8038,0.8038,0.8038,0.8038,0.8038,0.8038,0.8038,0.8038,0.8038,0.8038,0.8038,0.8038,0.8038,0.8038,0.8038,0.8038,0.8038,0.8038,0.8038,0.8038,0.8038,0.8038,0.8038,0.8038,0.8038,0.0,0.0,0.0,-0.7783,-0.7099,-0.6342,-0.6274,-0.4693,-0.2578,-0.047,-0.3224,-0.3624,0.458,0.6237,0.6291,0.6281,0.6278,0.6274,0.6264,0.6338,0.6338,0.6338,0.6338,0.6338,0.6338,0.6338,0.6795,0.7783,0.7859,0.8313,0.9296,0.9296,0.8841,0.7859,0.6868,0.6338,0.6338,0.6338,0.6338,0.6338,0.6338,0.6338,0.6338,0.6338,0.6338,0.6338,0.6338,0.6338,0.6338,0.6338,0.6338,0.6338,0.6338,0.6338,0.6338,0.6338,0.6338,0.6281,0.6424,0.6573,0.6725,0.6878,0.7024,0.7139,0.7139,0.7139,0.7173,0.7322,0.7366,0.7441,0.7733,0.7926,0.8038,0.8038,0.8038,0.8038,0.8038,0.8038,0.8038,0.8038,0.8038,0.8038,0.8038,0.8038,0.8038,0.8038,0.8038,0.8038,0.8038,0.8038,0.8038,0.8038,0.8038,0.8038,0.8038,0.8038,0.8038,0.8038,0.8038,0.8038,0.8038,0.8038,0.8038,0.8038,0.8038,0.8038,0.8038,0.8038,0.8038,0.8038,0.8038,0.8038,-1.1013,0.0,0.0,0.0,0.0,0.0,-0.643,-0.5879,-0.4382,-0.0782,-0.094,-0.1019,0.1333,0.4247,0.6312,0.6285,0.6271,0.6264,0.6338,0.6338,0.6338,0.6338,0.6338,0.6338,0.6338,0.6945,0.7783,0.8841,0.9588,1.011,1.034,0.9669,0.8841,0.7859,0.8237,0.7783,0.6338,0.7022,0.7022,0.6338,0.6338,0.6338,0.6338,0.6338,0.6338,0.6338,0.6338,0.6338,0.6338,0.6338,0.6338,0.6338,0.6338,0.6338,0.6338,0.6338,0.6338,0.6281,0.6424,0.6573,0.6725,0.6878,0.7024,0.7139,0.7139,0.7139,0.7149,0.719,0.7285,0.7441,0.7733,0.7926,0.8038,0.8038,0.8038,0.8038,0.8038,0.8038,0.8038,0.8038,0.8038,0.8038,0.8038,0.8038,0.8038,0.8038,0.8038,0.8038,0.8038,0.8038,0.8038,0.8038,0.8038,0.8038,0.8038,0.8038,0.8038,0.8038,0.8038,0.8038,0.8038,0.8038,0.8038,0.8038,0.8038,0.8038,0.8038,0.8038,0.8038,0.8038,0.8038,0.8038,-1.162,-1.1087,-1.0484,-0.9362,0.0,0.0,-0.7034,-0.6581,-0.5565,-0.3127,-0.1251,-0.0,-0.0,0.2038,0.4245,0.5983,0.6281,0.6268,0.6338,0.6338,0.6338,0.6338,0.6338,0.6338,0.6338,0.6795,0.7783,0.9221,0.982,1.0565,1.1391,1.049,0.9664,0.9059,0.9221,0.8542,0.6945,0.748,0.7326,0.6338,0.6338,0.6338,0.6338,0.6338,0.6338,0.6338,0.6338,0.6338,0.6338,0.6338,0.6338,0.6338,0.6338,0.6338,0.6338,0.6338,0.6338,0.6274,0.6356,0.6522,0.6715,0.6803,0.6973,0.7139,0.7139,0.7139,0.7139,0.7139,0.7251,0.7428,0.7662,0.7834,0.796,0.8024,0.8038,0.8038,0.8038,0.8038,0.8038,0.8038,0.8038,0.8038,0.8038,0.8038,0.8038,0.8038,0.8038,0.8038,0.8038,0.8038,0.8038,0.8038,0.8038,0.8038,0.8038,0.8038,0.8038,0.8038,0.8038,0.8038,0.8038,0.8038,0.8038,0.8038,0.8038,0.8038,0.8038,0.8038,0.8038,0.8038,0.8038,0.8038,-1.2305,-1.162,-1.0932,-1.0858,-0.9362,0.0,-0.7859,-0.703,-0.6278,-0.6278,-0.3285,-0.0626,-0.0391,-0.0157,0.1254,0.4964,0.598,0.6278,0.6264,0.6338,0.6338,0.6338,0.6338,0.6338,0.6338,0.6412,0.7253,0.9145,0.9523,1.0426,1.2224,1.1465,1.0938,1.0783,1.0045,0.9069,0.8008,0.7936,0.7557,0.6644,0.649,0.649,0.649,0.649,0.6412,0.6338,0.6338,0.6338,0.6338,0.6338,0.6338,0.6338,0.6338,0.6338,0.6338,0.6338,0.6338,0.6338,0.6338,0.6454,0.6702,0.6702,0.6898,0.7139,0.7139,0.7139,0.7139,0.7139,0.7251,0.7404,0.7539,0.7692,0.7845,0.798,0.8028,0.8038,0.8038,0.8038,0.8038,0.8038,0.8038,0.8038,0.8038,0.8038,0.8038,0.8038,0.8038,0.8038,0.8038,0.8038,0.8038,0.8038,0.8038,0.8038,0.8038,0.8038,0.8038,0.8038,0.8038,0.8038,0.8038,0.8038,0.8038,0.8038,0.8038,0.8038,0.8038,0.8038,0.8038,0.8038,0.8038,0.8038,-1.2305,-1.215,-1.1842,-1.1013,-0.989,0.0,-0.8012,-0.7026,-0.6268,-0.6278,-0.5643,-0.454,-0.2812,-0.1094,0.0235,0.1093,0.4079,0.6308,0.6281,0.6268,0.6338,0.6338,0.6338,0.6338,0.6338,0.7022,0.8012,0.9221,1.0801,1.1922,1.2305,1.2077,1.162,1.0858,1.1391,1.087,0.8993,0.8993,0.8917,0.8694,0.7859,0.748,0.748,0.748,0.7099,0.6338,0.6338,0.6338,0.6338,0.6338,0.6338,0.6338,0.6338,0.6338,0.6338,0.6338,0.6338,0.6338,0.6338,0.6454,0.6702,0.6702,0.6898,0.7139,0.7139,0.7139,0.7139,0.7139,0.7251,0.738,0.7407,0.7611,0.7818,0.7848,0.795,0.8038,0.8038,0.8038,0.8038,0.8038,0.8038,0.8038,0.8038,0.8038,0.8038,0.8038,0.8038,0.8038,0.8038,0.8038,0.8038,0.8038,0.8038,0.8038,0.8038,0.8038,0.8038,0.8038,0.8038,0.8038,0.8038,0.8038,0.8038,0.8038,0.8038,0.8038,0.8038,0.8038,0.8038,0.8038,0.8038,0.8038,-1.2305,-1.2305,-1.215,-1.1694,-1.0795,0.0,0.0,-0.7783,-0.6872,-0.6423,-0.6274,-0.596,-0.4929,-0.3834,-0.2425,-0.0312,0.1798,0.3919,0.5983,0.6285,0.6271,0.6271,0.6264,0.6338,0.6338,0.6718,0.7706,0.9221,1.072,1.1768,1.2305,1.2305,1.207,1.1545,1.207,1.1545,1.0045,1.004,0.982,0.9296,0.877,0.8313,0.7783,0.7783,0.7253,0.6338,0.6338,0.6338,0.6338,0.6338,0.6338,0.6338,0.6338,0.6338,0.6338,0.6338,0.6338,0.6338,0.6338,0.6403,0.66,0.6675,0.6851,0.7048,0.7119,0.7139,0.7139,0.7139,0.7197,0.7275,0.7353,0.7539,0.7723,0.7794,0.7929,0.8038,0.8038,0.8038,0.8038,0.8038,0.8038,0.8038,0.8038,0.8038,0.8038,0.8038,0.8038,0.8038,0.8038,0.8038,0.8038,0.8038,0.8038,0.8038,0.8038,0.8038,0.8038,0.8038,0.8038,0.8038,0.8038,0.8038,0.8038,0.8038,0.8038,0.8038,0.8038,0.8038,0.8038,0.8038,0.8038,0.8038,-1.2305,-1.2305,-1.2305,-1.2305,-1.1539,-1.0559,0.0,0.0,0.0,-0.6795,-0.6574,-0.6504,-0.6352,-0.6285,-0.5179,-0.1799,-0.0858,0.0702,0.4565,0.5101,0.5401,0.62,0.6271,0.6264,0.6264,0.6493,0.7249,0.8917,0.9965,1.0864,1.17,1.1922,1.1996,1.1996,1.2224,1.1922,1.1087,1.0932,1.049,0.99,0.9674,0.9069,0.8084,0.8084,0.7403,0.6338,0.6338,0.6338,0.6338,0.6338,0.6338,0.6338,0.6338,0.6338,0.6338,0.6338,0.6338,0.6338,0.6338,0.6356,0.6498,0.6651,0.682,0.699,0.7105,0.7139,0.7139,0.7139,0.7139,0.717,0.7295,0.7441,0.7594,0.7736,0.7885,0.8004,0.8031,0.8038,0.8038,0.8038,0.8038,0.8038,0.8038,0.8038,0.8038,0.8038,0.8038,0.8038,0.8038,0.8038,0.8038,0.8038,0.8038,0.8038,0.8038,0.8038,0.8038,0.8038,0.8038,0.8038,0.8038,0.8038,0.8038,0.8038,0.8038,0.8038,0.8038,0.8038,0.8038,0.8038,0.8038,0.8038,-1.2305,-1.2305,-1.2305,-1.2305,-1.1539,-1.0783,-1.064,0.0,-0.8841,-0.7859,0.0,-0.733,-0.6493,0.0,0.0,-0.5643,-0.3986,-0.1952,0.0391,0.0703,0.2105,0.5892,0.6285,0.6278,0.6278,0.7107,0.7706,0.7936,0.8917,0.9523,0.9599,1.049,1.0932,1.0932,1.1842,1.2224,1.215,1.1242,1.1168,1.1929,1.1087,1.0115,0.915,0.915,0.8084,0.6338,0.6338,0.6338,0.6338,0.6338,0.6338,0.6338,0.6338,0.6338,0.6338,0.6338,0.6338,0.6338,0.6338,0.6356,0.6498,0.6651,0.6888,0.7119,0.7136,0.7139,0.7139,0.7139,0.7139,0.7143,0.7163,0.7282,0.7438,0.7587,0.7733,0.7875,0.8011,0.8038,0.8038,0.8038,0.8038,0.8038,0.8038,0.8038,0.8038,0.8038,0.8038,0.8038,0.8038,0.8038,0.8038,0.8038,0.8038,0.8038,0.8038,0.8038,0.8038,0.8038,0.8038,0.8038,0.8038,0.8038,0.8038,0.8038,0.8038,0.8038,0.8038,0.8038,0.8038,0.8038,0.8038,0.8038,-1.2305,-1.2305,-1.2305,-1.2305,-1.1996,-1.1539,-1.0932,-1.049,-0.989,-0.8841,0.0,0.0,0.0,0.0,0.0,0.0,-0.5562,-0.4618,-0.3761,-0.2578,-0.0234,0.3923,0.4465,0.4929,0.6197,0.6648,0.7176,0.7783,0.8161,0.8689,0.9296,1.0265,1.0783,1.0783,1.1768,1.2305,1.2305,1.1316,1.1013,1.1391,1.0415,0.9367,0.8466,0.8466,0.7629,0.6338,0.6338,0.6338,0.6338,0.6338,0.6338,0.6338,0.6338,0.6338,0.6338,0.6338,0.6338,0.6338,0.6338,0.6298,0.6386,0.6624,0.6898,0.7139,0.7139,0.7139,0.7139,0.7139,0.7139,0.7139,0.7139,0.7255,0.7387,0.7451,0.7645,0.7828,0.7892,0.7977,0.8038,0.8038,0.8038,0.8038,0.8038,0.8038,0.8038,0.8038,0.8038,0.8038,0.8038,0.8038,0.8038,0.8038,0.8038,0.8038,0.8038,0.8038,0.8038,0.8038,0.8038,0.8038,0.8038,0.8038,0.8038,0.8038,0.8038,0.8038,0.8038,0.8038,0.8038,0.8038,0.8038,0.8038,-1.2305,-1.2305,-1.2305,-1.2305,-1.2305,-1.2077,-1.1391,-1.1236,-1.0938,-0.9895,-0.914,0.0,0.0,0.0,-0.6721,-0.6732,0.0,-0.6278,-0.6288,-0.4935,-0.2421,0.1723,0.2268,0.3283,0.6045,0.6274,0.6574,0.733,0.7411,0.771,0.8466,0.9437,0.9959,0.9959,1.1242,1.1922,1.1922,1.1162,1.0783,1.0783,1.0045,0.9216,0.8237,0.8237,0.7629,0.6718,0.6416,0.6338,0.6338,0.6338,0.6338,0.6338,0.6338,0.6338,0.6338,0.6338,0.6338,0.6338,0.6338,0.6315,0.6417,0.663,0.6898,0.7139,0.7139,0.7139,0.7139,0.7139,0.7139,0.7139,0.7139,0.7224,0.7319,0.736,0.7536,0.7712,0.7794,0.7899,0.7987,0.8031,0.8038,0.8038,0.8038,0.8038,0.8038,0.8038,0.8038,0.8038,0.8038,0.8038,0.8038,0.8038,0.8038,0.8038,0.8038,0.8038,0.8038,0.8038,0.8038,0.8038,0.8038,0.8038,0.8038,0.8038,0.8038,0.8038,0.8038,0.8038,0.8038,0.8038,0.8038,0.8038,-1.2305,-1.2305,-1.2305,-1.2305,-1.2305,-1.2298,-1.2224,-1.2224,-1.1996,-1.0938,-1.0708,-1.0415,-0.9448,-0.8466,-0.7783,-0.7783,-0.6945,0.0,0.0,-0.6278,-0.4618,-0.0391,0.0078,0.1721,0.5895,0.6295,0.6288,0.6355,0.6352,0.6349,0.6416,0.7326,0.7936,0.7936,0.9814,1.0864,1.0864,1.0789,1.0783,1.0783,1.0783,1.0265,0.9221,0.9221,0.8694,0.7706,0.6718,0.6338,0.6338,0.6338,0.6338,0.6338,0.6338,0.6338,0.6338,0.6338,0.6338,0.6338,0.6338,0.6447,0.6688,0.6698,0.6898,0.7139,0.7139,0.7139,0.7139,0.7139,0.7139,0.7139,0.7139,0.7143,0.7183,0.7336,0.738,0.7461,0.775,0.7814,0.7862,0.8011,0.8038,0.8038,0.8038,0.8038,0.8038,0.8038,0.8038,0.8038,0.8038,0.8038,0.8038,0.8038,0.8038,0.8038,0.8038,0.8038,0.8038,0.8038,0.8038,0.8038,0.8038,0.8038,0.8038,0.8038,0.8038,0.8038,0.8038,0.8038,0.8038,0.8038,0.8038,0.8038,-1.2305,-1.2305,-1.2305,-1.2305,-1.2305,-1.2305,-1.2305,-1.2305,-1.2224,-1.1848,-1.1242,-1.0708,-1.034,-0.9442,-0.877,-0.877,-0.7936,-0.733,0.0,-0.6732,-0.5802,-0.4304,-0.1717,0.0546,0.1956,0.3365,0.4146,0.4144,0.5491,0.6285,0.6274,0.6623,0.7149,0.7783,0.914,1.0115,1.0783,0.9513,0.914,0.982,0.8456,0.7625,0.7326,0.7326,0.7099,0.6795,0.6412,0.6338,0.6338,0.6338,0.6338,0.6338,0.6338,0.6338,0.6338,0.6338,0.6338,0.6338,0.6338,0.6454,0.6702,0.6702,0.6898,0.7139,0.7139,0.7139,0.7139,0.7139,0.7139,0.7139,0.7139,0.7139,0.7153,0.7207,0.7295,0.74,0.7499,0.7675,0.7828,0.7879,0.797,0.8038,0.8038,0.8038,0.8038,0.8038,0.8038,0.8038,0.8038,0.8038,0.8038,0.8038,0.8038,0.8038,0.8038,0.8038,0.8038,0.8038,0.8038,0.8038,0.8038,0.8038,0.8038,0.8038,0.8038,0.8038,0.8038,0.8038,0.8038,0.8038,0.8038,0.8038,-1.2305,-1.2305,-1.2305,-1.2305,-1.2305,-1.2305,-1.2305,-1.2305,-1.2305,-1.2305,-1.1768,-1.1316,-1.1316,-1.049,-0.982,-0.982,-0.8993,-0.8237,0.0,-0.6953,-0.6274,-0.6278,-0.3198,-0.078,-0.0078,0.1173,0.2031,0.2031,0.3287,0.4387,0.509,0.5857,0.663,0.7257,0.7923,0.8746,0.9734,0.8461,0.8161,0.877,0.748,0.6795,0.6795,0.6795,0.7022,0.7326,0.6644,0.649,0.6795,0.6412,0.6338,0.6338,0.6338,0.6338,0.6338,0.6338,0.6338,0.6338,0.6338,0.6454,0.6702,0.6702,0.6898,0.7139,0.7139,0.7139,0.7139,0.7139,0.7139,0.7139,0.7139,0.7139,0.7139,0.7139,0.7217,0.7305,0.736,0.7563,0.775,0.7801,0.7933,0.8038,0.8038,0.8038,0.8038,0.8038,0.8038,0.8038,0.8038,0.8038,0.8038,0.8038,0.8038,0.8038,0.8038,0.8038,0.8038,0.8038,0.8038,0.8038,0.8038,0.8038,0.8038,0.8038,0.8038,0.8038,0.8038,0.8038,0.8038,0.8038,0.8038,0.8038]},{"header":{"parameterUnit":"m.s-1","parameterCategory":1,"la1":30.6,"la2":29.2853,"lo1":-89.7004,"lo2":-87.6739,"dy":0.0162,"dx":0.0183,"nx":112,"ny":82,"refTime":"2023-07-13T06:00:00:Z","depth":0,"parameterNumber":3,"parameterNumberName":"V-component_of_WINDS"},"data":[0.0,0.0,0.0,0.0,0.0,0.0,0.0,0.0,0.0,0.0,0.0,0.0,0.0,0.0,0.0,0.0,0.0,0.0,0.0,0.0,0.0,0.0,0.0,0.0,0.0,0.0,0.0,0.0,0.0,0.0,0.0,0.0,0.0,0.0,0.0,0.0,0.0,0.0,0.0,0.0,0.0,0.0,0.0,0.0,0.0,0.0,0.0,0.0,0.0,0.0,0.0,0.0,0.0,0.0,0.0,0.0,0.0,0.0,0.0,0.0,0.0,0.0,0.0,0.0,0.0,0.0,0.0,0.0,0.0,0.0,0.0,0.0,0.0,0.0,0.0,0.0,0.0,0.0,0.0,0.0,0.0,0.0,0.0,0.0,0.0,0.0,0.0,0.0,0.0,0.0,-3.9529,-3.8212,-3.8438,-3.8707,-3.8707,-3.8707,-3.8803,-3.9008,0.0,0.0,0.0,0.0,0.0,0.0,0.0,0.0,0.0,0.0,0.0,0.0,0.0,0.0,0.0,0.0,0.0,0.0,0.0,0.0,0.0,0.0,0.0,0.0,0.0,0.0,0.0,0.0,0.0,0.0,0.0,0.0,0.0,0.0,0.0,0.0,0.0,0.0,0.0,0.0,0.0,0.0,0.0,0.0,0.0,0.0,0.0,0.0,0.0,0.0,0.0,0.0,0.0,0.0,0.0,0.0,0.0,0.0,0.0,0.0,0.0,0.0,0.0,0.0,0.0,0.0,0.0,0.0,0.0,0.0,0.0,0.0,0.0,0.0,0.0,0.0,0.0,0.0,0.0,0.0,0.0,0.0,0.0,0.0,0.0,0.0,0.0,0.0,0.0,0.0,0.0,0.0,0.0,0.0,0.0,0.0,0.0,0.0,0.0,0.0,0.0,0.0,0.0,0.0,-3.9472,-3.8984,-3.8799,-3.8707,-3.8707,-3.8707,-3.8719,-3.8762,0.0,0.0,0.0,0.0,0.0,0.0,0.0,0.0,0.0,0.0,0.0,0.0,0.0,0.0,0.0,0.0,0.0,0.0,0.0,0.0,0.0,0.0,0.0,0.0,0.0,0.0,0.0,0.0,0.0,0.0,0.0,0.0,0.0,0.0,0.0,0.0,0.0,0.0,0.0,0.0,0.0,0.0,0.0,0.0,0.0,0.0,0.0,0.0,0.0,0.0,0.0,0.0,0.0,0.0,0.0,0.0,0.0,0.0,0.0,0.0,0.0,0.0,0.0,0.0,0.0,0.0,0.0,0.0,0.0,0.0,0.0,0.0,0.0,0.0,0.0,0.0,0.0,0.0,0.0,0.0,0.0,0.0,0.0,0.0,0.0,0.0,0.0,0.0,0.0,0.0,0.0,0.0,0.0,0.0,0.0,0.0,0.0,0.0,0.0,0.0,0.0,0.0,0.0,-3.8801,-3.8619,-3.8475,-3.8096,-3.7895,-3.7895,-3.8117,-3.8267,-3.8267,-3.8658,0.0,0.0,0.0,0.0,0.0,0.0,0.0,0.0,0.0,0.0,0.0,0.0,0.0,0.0,0.0,0.0,0.0,0.0,0.0,0.0,0.0,0.0,0.0,0.0,0.0,0.0,0.0,0.0,0.0,0.0,0.0,0.0,0.0,0.0,0.0,0.0,0.0,0.0,0.0,0.0,0.0,0.0,0.0,0.0,0.0,0.0,0.0,0.0,0.0,0.0,0.0,0.0,0.0,0.0,0.0,0.0,0.0,0.0,0.0,0.0,0.0,0.0,0.0,0.0,0.0,0.0,0.0,0.0,0.0,0.0,0.0,0.0,0.0,0.0,0.0,0.0,0.0,0.0,0.0,0.0,0.0,0.0,0.0,0.0,0.0,0.0,0.0,0.0,0.0,0.0,0.0,0.0,0.0,0.0,0.0,0.0,0.0,0.0,0.0,0.0,0.0,0.0,-3.8449,-3.8032,-3.7893,-3.7578,-3.7323,-3.7228,-3.7614,-3.7893,-3.7893,-3.8415,0.0,0.0,0.0,0.0,0.0,0.0,0.0,0.0,0.0,0.0,0.0,0.0,0.0,0.0,0.0,0.0,0.0,0.0,0.0,0.0,0.0,0.0,0.0,0.0,0.0,0.0,0.0,0.0,0.0,0.0,0.0,0.0,0.0,0.0,0.0,0.0,0.0,0.0,0.0,0.0,0.0,0.0,0.0,0.0,0.0,0.0,0.0,0.0,0.0,0.0,0.0,0.0,0.0,0.0,0.0,0.0,0.0,0.0,0.0,0.0,0.0,0.0,0.0,0.0,0.0,0.0,0.0,0.0,0.0,0.0,0.0,0.0,0.0,0.0,0.0,0.0,0.0,0.0,0.0,0.0,0.0,0.0,0.0,0.0,0.0,0.0,0.0,0.0,0.0,0.0,0.0,0.0,0.0,0.0,0.0,0.0,0.0,0.0,0.0,0.0,0.0,0.0,-3.8689,-3.8465,-3.7946,-3.7859,-3.7685,-3.7228,-3.7614,-3.7893,-3.7893,-3.8415,0.0,0.0,0.0,0.0,0.0,0.0,0.0,0.0,0.0,0.0,0.0,0.0,0.0,0.0,0.0,0.0,0.0,0.0,0.0,0.0,0.0,0.0,0.0,0.0,0.0,0.0,0.0,0.0,0.0,0.0,0.0,0.0,0.0,0.0,0.0,0.0,0.0,0.0,0.0,0.0,0.0,0.0,0.0,0.0,0.0,0.0,0.0,0.0,0.0,0.0,0.0,0.0,0.0,0.0,0.0,0.0,0.0,0.0,0.0,0.0,0.0,0.0,0.0,0.0,0.0,0.0,0.0,0.0,0.0,0.0,0.0,0.0,0.0,0.0,0.0,0.0,0.0,0.0,0.0,0.0,0.0,0.0,0.0,0.0,0.0,0.0,0.0,0.0,0.0,0.0,0.0,0.0,0.0,0.0,0.0,0.0,0.0,0.0,0.0,0.0,0.0,0.0,-3.7667,-3.7173,-3.6981,-3.6666,-3.6381,-3.6207,-3.6981,-3.747,-3.747,0.0,0.0,0.0,0.0,0.0,0.0,0.0,0.0,0.0,0.0,0.0,0.0,0.0,0.0,0.0,0.0,0.0,0.0,0.0,0.0,0.0,0.0,0.0,0.0,0.0,0.0,0.0,0.0,0.0,0.0,0.0,0.0,0.0,0.0,0.0,0.0,0.0,0.0,0.0,0.0,0.0,0.0,0.0,0.0,0.0,0.0,0.0,0.0,0.0,0.0,0.0,0.0,0.0,0.0,0.0,0.0,0.0,0.0,0.0,0.0,0.0,0.0,0.0,0.0,0.0,0.0,0.0,0.0,0.0,0.0,0.0,0.0,0.0,0.0,0.0,0.0,0.0,0.0,0.0,0.0,0.0,0.0,0.0,0.0,0.0,0.0,0.0,0.0,0.0,0.0,0.0,0.0,0.0,0.0,0.0,0.0,0.0,0.0,0.0,0.0,0.0,0.0,-3.7928,-3.7173,-3.658,-3.6416,-3.6054,-3.5783,-3.5622,-3.644,-3.696,-3.696,0.0,0.0,0.0,0.0,0.0,0.0,0.0,0.0,0.0,0.0,0.0,0.0,0.0,0.0,0.0,0.0,0.0,0.0,0.0,0.0,0.0,0.0,0.0,0.0,0.0,0.0,0.0,0.0,0.0,0.0,0.0,0.0,0.0,0.0,0.0,0.0,0.0,0.0,0.0,0.0,0.0,0.0,0.0,0.0,0.0,0.0,0.0,0.0,0.0,0.0,0.0,0.0,0.0,0.0,0.0,0.0,0.0,0.0,0.0,0.0,0.0,0.0,0.0,0.0,0.0,0.0,0.0,0.0,0.0,0.0,0.0,0.0,0.0,0.0,0.0,0.0,0.0,0.0,0.0,0.0,0.0,0.0,0.0,0.0,0.0,0.0,0.0,0.0,0.0,0.0,0.0,0.0,0.0,0.0,0.0,0.0,0.0,0.0,0.0,0.0,0.0,0.0,-3.7859,-3.747,-3.6999,-3.6457,-3.6374,-3.6182,-3.5667,-3.6097,-3.6374,0.0,0.0,0.0,0.0,0.0,0.0,0.0,0.0,0.0,0.0,0.0,0.0,0.0,0.0,0.0,0.0,0.0,0.0,0.0,0.0,0.0,0.0,0.0,0.0,0.0,0.0,0.0,0.0,0.0,0.0,0.0,0.0,0.0,0.0,0.0,0.0,0.0,0.0,0.0,0.0,0.0,0.0,0.0,0.0,0.0,0.0,0.0,0.0,0.0,0.0,0.0,0.0,0.0,0.0,0.0,0.0,0.0,0.0,0.0,0.0,0.0,0.0,0.0,0.0,0.0,0.0,0.0,0.0,0.0,0.0,0.0,0.0,0.0,0.0,0.0,0.0,0.0,0.0,0.0,0.0,0.0,0.0,0.0,0.0,0.0,0.0,0.0,0.0,0.0,0.0,0.0,0.0,0.0,0.0,0.0,0.0,0.0,0.0,0.0,0.0,0.0,0.0,0.0,-3.6904,-3.6399,-3.6011,-3.5854,-3.5827,-3.5783,-3.5622,-3.6097,-3.6374,-3.6374,0.0,0.0,0.0,0.0,0.0,0.0,0.0,0.0,0.0,0.0,0.0,0.0,0.0,0.0,0.0,0.0,0.0,0.0,0.0,0.0,0.0,0.0,0.0,0.0,0.0,0.0,0.0,0.0,0.0,0.0,0.0,0.0,0.0,0.0,0.0,0.0,0.0,0.0,0.0,0.0,0.0,0.0,0.0,0.0,0.0,0.0,0.0,0.0,0.0,0.0,0.0,0.0,0.0,0.0,0.0,0.0,0.0,0.0,0.0,0.0,0.0,0.0,0.0,0.0,0.0,0.0,0.0,0.0,0.0,0.0,0.0,0.0,0.0,0.0,0.0,0.0,0.0,0.0,0.0,0.0,0.0,0.0,0.0,0.0,0.0,0.0,0.0,0.0,0.0,0.0,0.0,0.0,0.0,0.0,0.0,0.0,0.0,0.0,0.0,0.0,0.0,0.0,-3.6457,-3.5941,-3.5622,-3.5622,-3.5622,-3.5622,-3.5622,-3.5898,-3.6182,-3.6392,0.0,0.0,0.0,0.0,0.0,0.0,0.0,0.0,0.0,0.0,0.0,0.0,0.0,0.0,0.0,0.0,0.0,0.0,0.0,0.0,0.0,0.0,0.0,0.0,0.0,0.0,0.0,0.0,0.0,0.0,0.0,0.0,0.0,0.0,0.0,0.0,0.0,0.0,0.0,0.0,0.0,0.0,0.0,0.0,0.0,0.0,0.0,0.0,0.0,0.0,0.0,0.0,0.0,0.0,0.0,0.0,0.0,0.0,0.0,0.0,0.0,0.0,0.0,0.0,0.0,0.0,0.0,0.0,0.0,0.0,0.0,0.0,0.0,0.0,0.0,0.0,0.0,0.0,0.0,0.0,0.0,0.0,0.0,0.0,0.0,0.0,0.0,0.0,0.0,0.0,0.0,0.0,0.0,0.0,0.0,0.0,0.0,0.0,0.0,0.0,0.0,0.0,-3.6333,-3.5898,-3.5622,-3.5622,-3.5622,-3.5622,-3.5622,-3.5622,-3.5827,-3.6308,0.0,0.0,0.0,0.0,0.0,0.0,0.0,0.0,0.0,0.0,0.0,0.0,0.0,0.0,0.0,0.0,0.0,0.0,0.0,0.0,0.0,0.0,0.0,0.0,0.0,0.0,0.0,0.0,0.0,0.0,0.0,0.0,0.0,0.0,0.0,0.0,0.0,0.0,0.0,0.0,0.0,0.0,0.0,0.0,0.0,0.0,0.0,0.0,0.0,0.0,0.0,0.0,0.0,0.0,0.0,0.0,0.0,0.0,0.0,0.0,-4.3897,-4.3734,0.0,0.0,0.0,0.0,0.0,0.0,0.0,0.0,0.0,0.0,0.0,0.0,0.0,0.0,0.0,0.0,0.0,0.0,0.0,0.0,0.0,0.0,0.0,0.0,0.0,0.0,0.0,0.0,0.0,0.0,0.0,0.0,0.0,0.0,0.0,0.0,0.0,0.0,0.0,0.0,-3.581,-3.565,-3.5622,-3.5622,-3.5622,-3.5622,-3.5622,-3.5622,-3.5667,-3.5783,-3.6182,0.0,0.0,0.0,0.0,0.0,0.0,0.0,0.0,0.0,0.0,0.0,0.0,0.0,0.0,0.0,0.0,0.0,0.0,0.0,0.0,0.0,0.0,0.0,0.0,0.0,0.0,0.0,0.0,0.0,0.0,0.0,0.0,0.0,0.0,0.0,0.0,0.0,0.0,0.0,0.0,0.0,0.0,0.0,0.0,0.0,0.0,0.0,0.0,0.0,0.0,0.0,0.0,0.0,0.0,0.0,0.0,0.0,0.0,0.0,-4.3587,-4.3497,0.0,0.0,0.0,0.0,0.0,0.0,0.0,0.0,0.0,0.0,0.0,0.0,0.0,0.0,0.0,0.0,0.0,0.0,0.0,0.0,0.0,0.0,0.0,0.0,0.0,0.0,0.0,0.0,0.0,0.0,0.0,0.0,0.0,0.0,0.0,0.0,0.0,0.0,0.0,0.0,-3.5622,-3.5622,-3.5622,-3.5622,-3.5622,-3.5622,-3.5622,-3.5622,-3.5694,-3.5985,-3.6266,0.0,0.0,0.0,0.0,0.0,0.0,0.0,0.0,0.0,0.0,0.0,0.0,0.0,0.0,0.0,0.0,0.0,0.0,0.0,0.0,0.0,0.0,0.0,0.0,0.0,0.0,0.0,0.0,0.0,0.0,0.0,0.0,0.0,0.0,0.0,0.0,0.0,0.0,0.0,0.0,0.0,0.0,0.0,0.0,0.0,0.0,0.0,0.0,0.0,0.0,0.0,0.0,0.0,-4.3497,-4.3497,-4.3497,-4.3497,-4.3497,-4.3497,-4.3497,-4.3497,-4.3497,-4.3497,0.0,0.0,0.0,0.0,0.0,0.0,0.0,0.0,0.0,0.0,0.0,0.0,0.0,0.0,0.0,0.0,0.0,0.0,0.0,0.0,0.0,0.0,-3.996,-3.9294,-3.8718,-3.843,-3.8999,0.0,0.0,0.0,0.0,0.0,0.0,0.0,0.0,0.0,0.0,0.0,-3.5622,-3.5622,-3.5622,-3.5622,-3.5622,-3.5622,-3.5622,-3.5622,-3.5783,-3.6207,-3.6266,-3.6666,0.0,0.0,0.0,0.0,0.0,0.0,0.0,0.0,0.0,0.0,0.0,0.0,0.0,0.0,0.0,0.0,0.0,0.0,0.0,0.0,0.0,0.0,0.0,0.0,0.0,0.0,0.0,0.0,0.0,0.0,0.0,0.0,-4.6069,-4.5915,0.0,0.0,0.0,0.0,0.0,0.0,0.0,0.0,0.0,0.0,0.0,0.0,0.0,-4.3587,-4.3587,-4.3516,-4.3497,-4.3497,-4.3497,-4.3497,-4.3497,-4.3497,-4.3497,-4.3497,-4.3497,0.0,-4.3497,-4.3497,0.0,0.0,0.0,0.0,0.0,0.0,0.0,0.0,0.0,0.0,0.0,0.0,0.0,0.0,0.0,0.0,0.0,0.0,0.0,0.0,0.0,0.0,-4.0914,-4.0818,-4.034,-4.0076,-4.0665,-3.9316,-3.7877,-3.7396,-3.7285,-3.6981,0.0,0.0,0.0,0.0,0.0,0.0,-3.5622,-3.5622,-3.5622,-3.5622,-3.5622,-3.5622,-3.5622,-3.5622,-3.5622,-3.5694,-3.5694,-3.5968,-3.6563,-3.7058,0.0,0.0,0.0,0.0,0.0,0.0,0.0,0.0,0.0,0.0,0.0,0.0,0.0,0.0,0.0,0.0,0.0,0.0,0.0,0.0,0.0,0.0,0.0,0.0,0.0,0.0,0.0,0.0,0.0,-4.5996,-4.5913,-4.5857,-4.5757,-4.5643,0.0,0.0,0.0,0.0,0.0,0.0,0.0,0.0,0.0,-4.3716,-4.3587,-4.3497,-4.3497,-4.3497,-4.3497,-4.3497,-4.3497,-4.3497,-4.3497,-4.3497,-4.3497,-4.3497,-4.3497,-4.3497,-4.3497,-4.3497,-4.3497,-4.3497,0.0,0.0,0.0,0.0,-4.3497,-4.3497,-4.3497,-4.3497,-4.3497,-4.3497,0.0,0.0,0.0,0.0,0.0,0.0,0.0,-4.2341,-4.1901,-4.1772,-4.1577,-4.0793,-4.0202,-3.9884,-4.0091,-3.9177,-3.8205,-3.7916,-3.7594,-3.6984,-3.5807,-3.5622,0.0,0.0,0.0,-3.5622,-3.5622,-3.5622,-3.5622,-3.5622,-3.5622,-3.5622,-3.5622,-3.5622,-3.5622,-3.5622,-3.6165,-3.6586,-3.6843,-3.7596,-3.8135,0.0,0.0,0.0,0.0,0.0,0.0,0.0,0.0,0.0,0.0,0.0,0.0,0.0,0.0,0.0,0.0,0.0,0.0,0.0,0.0,0.0,0.0,0.0,0.0,0.0,0.0,0.0,0.0,-4.5855,-4.5823,-4.5786,-4.5719,-4.5624,0.0,0.0,0.0,0.0,0.0,0.0,-4.4448,-4.391,-4.3597,-4.3479,-4.3497,-4.3497,-4.3497,-4.3497,-4.3497,-4.3497,-4.3497,-4.3497,-4.3497,-4.3497,-4.3497,-4.3497,-4.3497,-4.3497,-4.3497,-4.3497,-4.3497,-4.3497,-4.3497,-4.3497,-4.3497,-4.3497,-4.3497,-4.3497,-4.3497,-4.3497,-4.3497,-4.3497,-4.3497,-4.3497,-4.3497,0.0,0.0,0.0,0.0,-4.3351,-4.2763,-4.2598,-4.2331,-4.1107,-4.0435,-4.0076,-4.0035,-3.9486,-3.8874,-3.8497,-3.8115,-3.743,-3.6373,-3.6197,0.0,-3.5943,-3.591,-3.5842,-3.5639,-3.5622,-3.5622,-3.5622,-3.5622,-3.5622,-3.5622,-3.5739,-3.581,-3.581,-3.6666,-3.7248,-3.736,-3.8083,-3.8546,-3.8707,0.0,0.0,0.0,0.0,0.0,0.0,0.0,0.0,0.0,0.0,0.0,0.0,0.0,0.0,0.0,0.0,0.0,0.0,0.0,0.0,0.0,0.0,0.0,0.0,0.0,0.0,0.0,0.0,0.0,-4.5815,-4.5796,0.0,0.0,0.0,0.0,-4.5163,-4.509,-4.4762,-4.4083,-4.402,-4.3836,-4.3513,-4.3497,-4.3497,-4.3497,-4.3497,-4.3497,-4.3497,-4.3497,-4.3497,-4.3497,-4.3497,-4.3497,-4.3497,-4.3497,-4.3497,-4.3497,-4.3497,-4.3497,-4.3497,-4.3497,-4.3497,-4.3497,-4.3497,-4.3497,-4.3497,-4.3497,-4.3497,-4.3497,-4.3497,-4.3497,-4.3497,-4.3497,-4.3497,0.0,0.0,-4.3497,-4.3479,-4.3442,-4.3424,-4.3301,-4.27,-4.2136,-4.1687,-4.1687,-4.0834,-3.9742,-3.8805,-3.8599,-3.8377,-3.7865,0.0,-3.755,-3.684,-3.6721,-3.6451,-3.5723,-3.5622,-3.5622,-3.5622,-3.5622,-3.5622,-3.5622,-3.6071,-3.6333,-3.6333,-3.6882,-3.7396,-3.7859,-3.7893,-3.8183,-3.8707,-3.8707,0.0,0.0,0.0,0.0,0.0,0.0,0.0,0.0,0.0,0.0,0.0,0.0,0.0,0.0,0.0,0.0,0.0,0.0,0.0,0.0,0.0,0.0,0.0,0.0,0.0,0.0,0.0,0.0,-4.568,-4.568,0.0,-4.5586,-4.5586,-4.5547,-4.5432,-4.5226,-4.49,-4.4398,-4.4128,-4.3849,-4.3513,-4.3497,-4.3497,-4.3497,-4.3497,-4.3497,-4.3497,-4.3497,-4.3497,-4.3497,-4.3497,-4.3497,-4.3497,-4.3497,-4.3497,-4.3497,-4.3497,-4.3497,-4.3497,-4.3497,-4.3497,-4.3497,-4.3497,-4.3497,-4.3497,-4.3497,-4.3497,-4.3497,-4.3497,-4.3497,-4.3497,-4.3497,-4.3497,-4.3497,-4.3497,-4.3497,-4.3497,-4.3497,-4.3497,-4.3356,-4.2826,-4.2537,-4.2244,-4.1895,-4.1196,-4.05,-4.0164,-3.9439,-3.8635,-3.8021,-3.7905,-3.7821,-3.755,-3.7499,-3.7229,-3.6468,-3.6366,-3.618,-3.5673,-3.5622,-3.5739,-3.6097,-3.6308,-3.6539,-3.6865,-3.7396,-3.772,-3.7893,-3.8216,-3.8496,-3.8707,-3.8707,-3.8707,0.0,0.0,0.0,0.0,0.0,0.0,0.0,0.0,0.0,0.0,0.0,0.0,0.0,0.0,0.0,0.0,0.0,0.0,0.0,0.0,0.0,0.0,0.0,0.0,0.0,-4.568,-4.5643,-4.5605,-4.5586,-4.5586,-4.5586,-4.5586,-4.5586,-4.5586,-4.5302,-4.4943,-4.4606,-4.4204,-4.3849,-4.3513,-4.3497,-4.3497,-4.3497,-4.3497,-4.3497,-4.3497,-4.3497,-4.3497,-4.3497,-4.3497,-4.3497,-4.3497,-4.3497,-4.3497,-4.3497,-4.3497,-4.3497,-4.3497,-4.3497,-4.3497,-4.3497,-4.3497,-4.3497,-4.3497,-4.3497,-4.3497,-4.3497,-4.3497,-4.3497,-4.3497,-4.3497,-4.3497,-4.3497,-4.3497,-4.3497,-4.3497,-4.3497,-4.3497,-4.3356,-4.2826,-4.2711,-4.2519,-4.1937,-4.149,-4.1206,-4.1206,-4.0182,-3.9208,-3.8717,-3.8633,-3.8565,-3.8311,-3.8435,-3.8269,-3.7564,-3.7357,-3.7145,-3.6612,-3.6319,-3.6291,-3.6643,-3.6825,-3.7058,-3.7396,-3.7877,-3.8183,-3.8183,-3.8496,-3.8707,-3.8707,-3.8964,-3.9093,-3.9111,0.0,0.0,0.0,0.0,0.0,0.0,0.0,0.0,0.0,0.0,0.0,0.0,0.0,0.0,0.0,0.0,0.0,0.0,0.0,0.0,0.0,0.0,0.0,-4.5806,-4.5796,-4.5757,-4.5605,-4.5586,-4.5586,-4.5586,-4.5586,-4.5605,-4.5586,-4.5263,-4.4943,-4.4606,-4.4204,-4.3849,-4.3513,-4.3497,-4.3497,-4.3497,-4.3497,-4.3497,-4.3497,-4.3497,-4.3497,-4.3497,-4.3497,-4.3497,-4.3497,-4.3497,-4.3497,-4.3497,-4.3497,-4.3497,-4.3497,-4.3497,-4.3497,-4.3497,-4.3497,-4.3497,-4.3497,-4.3497,-4.3497,-4.3497,-4.3497,-4.3497,-4.3497,-4.3497,-4.3497,-4.3497,-4.3497,-4.3497,-4.3497,-4.3497,-4.3497,-4.3375,-4.2864,-4.2732,-4.2559,-4.1979,-4.1853,-4.1853,-4.1853,-4.0891,-4.0171,-4.0171,-4.0171,-3.9934,-3.9172,-3.9512,0.0,-3.886,-3.8591,-3.8451,-3.8415,-3.7707,-3.7246,-3.721,-3.7649,-3.7911,-3.7928,-3.8415,-3.8707,-3.8707,-3.8726,-3.8762,-3.8781,-3.9533,-3.9937,-3.995,0.0,0.0,0.0,0.0,0.0,0.0,0.0,0.0,0.0,0.0,0.0,0.0,0.0,0.0,0.0,0.0,0.0,0.0,0.0,0.0,0.0,-4.5844,-4.5853,-4.5808,-4.5719,-4.5624,-4.5586,-4.5586,-4.5586,-4.5586,-4.5586,-4.5495,-4.5262,-4.514,-4.483,-4.4204,-4.4058,-4.3849,-4.3513,-4.3497,-4.3497,-4.3497,-4.3497,-4.3497,-4.3497,-4.3497,-4.3497,-4.3497,-4.3497,-4.3497,-4.3497,-4.3497,-4.3497,-4.3497,-4.3497,-4.3497,-4.3497,-4.3497,-4.3497,-4.3497,-4.3497,-4.3497,-4.3497,-4.3497,-4.3497,-4.3497,-4.3497,-4.3497,-4.3497,-4.3497,-4.3497,-4.3497,-4.3497,-4.3497,-4.3497,-4.3497,-4.3497,-4.3444,-4.3339,-4.3286,-4.3232,-4.3069,-4.2714,-4.244,-4.244,-4.1871,-4.1331,-4.1331,-4.1331,-4.1261,-4.1051,-4.1148,-4.0979,-4.0246,-4.0088,-3.962,-3.8522,-3.8203,-3.7982,-3.7739,-3.7825,-3.8065,-3.8465,-3.8627,-3.8707,-3.8707,-3.9258,-3.9845,-4.0432,-4.0671,-4.0885,0.0,0.0,0.0,0.0,0.0,0.0,0.0,0.0,0.0,0.0,0.0,0.0,0.0,0.0,0.0,0.0,0.0,0.0,0.0,0.0,0.0,0.0,-4.5857,-4.5866,-4.581,-4.5742,-4.5643,-4.5605,-4.5586,-4.5586,-4.5586,-4.5586,-4.5513,-4.5322,-4.5052,-4.4707,-4.4261,-4.3974,-4.3693,-4.3532,-4.3497,-4.3497,-4.3497,-4.3497,-4.3497,-4.3497,-4.3497,-4.3497,-4.3497,-4.3497,-4.3497,-4.3497,-4.3497,-4.3497,-4.3497,-4.3497,-4.3497,-4.3497,0.0,0.0,0.0,0.0,-4.3497,-4.3497,-4.3497,-4.3497,-4.3497,-4.3497,-4.3497,-4.3497,-4.3497,-4.3497,-4.3497,-4.3497,-4.3497,-4.3497,-4.3497,-4.3497,-4.3497,-4.3497,-4.3497,-4.3497,-4.3497,-4.325,-4.3014,-4.3014,-4.2752,0.0,-4.2523,-4.2103,-4.181,-4.181,-4.2038,-4.2042,-4.1578,-4.1435,-4.1031,-4.013,-3.9734,-3.9427,-3.927,-3.9216,0.0,0.0,0.0,-3.9717,-3.9717,-4.0157,0.0,0.0,0.0,-4.1927,-4.2108,-4.3081,0.0,0.0,-4.3087,-4.3435,0.0,0.0,0.0,0.0,0.0,0.0,0.0,0.0,0.0,0.0,0.0,0.0,0.0,0.0,0.0,0.0,-4.589,-4.5853,-4.5796,-4.5776,-4.5738,-4.5605,-4.5586,-4.5586,-4.5586,-4.5586,-4.5586,-4.555,-4.4988,-4.4606,-4.4527,-4.3899,0.0,0.0,0.0,-4.3497,-4.3497,-4.3497,-4.3497,-4.3497,-4.3497,-4.3497,-4.3497,-4.3497,-4.3497,-4.3497,-4.3497,-4.3497,-4.3497,-4.3497,-4.3497,-4.3497,-4.3497,-4.3497,-4.3497,-4.3497,-4.3497,-4.3497,-4.3497,0.0,0.0,-4.3497,-4.3497,-4.3497,-4.3497,-4.3497,-4.3497,-4.3497,-4.3497,-4.3497,-4.3497,-4.3497,-4.3497,-4.3497,-4.3497,-4.3497,-4.3497,-4.3497,-4.3497,-4.3497,-4.3497,-4.3497,-4.3497,-4.2639,-4.2003,-4.2003,-4.2462,-4.2788,-4.2788,-4.2594,-4.2396,-4.2304,-4.1662,0.0,-4.113,-4.1111,-4.1111,-4.1111,-4.1111,-4.1148,-4.124,-4.1258,-4.1295,-4.1387,-4.2402,-4.2976,-4.3005,-4.4116,-4.4714,-4.4782,-4.4335,-4.4538,0.0,0.0,0.0,0.0,0.0,0.0,0.0,0.0,0.0,0.0,0.0,0.0,0.0,0.0,0.0,-4.5822,-4.5827,-4.5776,-4.5643,-4.5624,-4.5624,-4.5586,-4.5586,-4.5586,-4.5586,-4.5586,-4.5495,-4.5222,-4.5074,-4.4738,-4.4146,-4.3986,-4.3772,-4.3532,-4.3497,-4.3497,-4.3497,-4.3497,-4.3497,-4.3497,-4.3497,0.0,-4.3497,-4.3497,-4.3497,-4.3497,-4.3497,-4.3497,-4.3497,-4.3497,-4.3497,-4.3497,-4.3497,-4.3497,-4.3497,-4.3497,-4.3497,-4.3497,-4.3497,-4.3497,-4.3497,-4.3497,-4.3497,-4.3497,-4.3497,-4.3497,0.0,-4.3497,-4.3497,-4.3497,-4.3497,-4.3497,-4.3497,-4.3497,-4.3497,-4.3497,-4.3497,-4.3497,-4.3497,-4.3497,-4.3497,-4.3497,-4.3497,-4.3321,-4.316,-4.316,-4.3286,-4.3339,-4.3339,-4.3316,-4.302,-4.2378,-4.2158,-4.1809,-4.1167,-4.1111,-4.1111,-4.1111,-4.1111,-4.1405,-4.2047,-4.2066,-4.2378,-4.302,-4.3521,-4.3951,-4.4256,-4.4754,-4.535,-4.5974,-4.5293,-4.5059,0.0,0.0,0.0,0.0,0.0,0.0,0.0,0.0,0.0,0.0,0.0,-4.4879,-4.5285,0.0,-4.5291,-4.5254,-4.5182,-4.4968,-4.4412,-4.4355,-4.4489,-4.4893,-4.4951,-4.4778,-4.4393,-4.4355,-4.4283,-4.4097,-4.3901,-4.3582,-4.3098,-4.2893,-4.2631,-4.2304,-4.2304,-4.2304,-4.2304,-4.269,-4.2892,-4.2892,-4.3296,-4.3497,-4.3497,-4.3497,-4.3497,-4.3497,-4.3497,-4.3497,-4.3497,-4.3497,-4.3497,-4.3497,-4.3497,-4.3497,-4.3497,-4.3497,-4.3497,-4.3497,-4.3497,-4.3497,-4.3497,-4.3497,-4.3497,-4.3497,-4.3497,-4.3497,-4.3497,-4.3497,-4.3497,-4.3497,-4.3497,-4.3497,-4.3497,-4.3497,-4.3497,-4.3497,-4.3497,-4.3497,-4.3497,-4.3497,-4.3497,-4.3497,-4.3497,-4.3497,-4.3497,-4.3497,-4.3497,-4.3497,-4.3497,-4.3497,-4.3332,-4.2928,-4.2892,-4.2745,-4.2341,-4.2304,-4.2304,-4.2304,-4.2304,-4.2488,-4.2873,-4.2892,-4.3159,-4.374,-4.4106,-4.4482,-4.4849,-4.5201,-4.5553,-4.5954,-4.604,-4.6221,0.0,0.0,0.0,0.0,0.0,0.0,0.0,-4.4004,-4.4473,-4.3555,-4.3496,-4.3827,-4.4466,-4.4534,-4.4472,-4.446,-4.4331,-4.3968,-4.3201,-4.3104,-4.3278,-4.3758,-4.3951,-4.3816,-4.3162,-4.3104,-4.3104,-4.3104,-4.2813,-4.25,-4.2186,-4.1912,-4.1613,-4.1204,-4.119,-4.1158,-4.1111,-4.1754,-4.2066,-4.2066,-4.2708,-4.3112,-4.3259,-4.3259,-4.3332,-4.3497,-4.3497,-4.3497,-4.3497,-4.3497,-4.3497,-4.3497,-4.3497,-4.3497,-4.3497,-4.3497,-4.3497,-4.3497,-4.3497,-4.3497,-4.3497,-4.3497,-4.3497,-4.3497,-4.3497,-4.3497,-4.3497,-4.3497,-4.3497,-4.3497,-4.3497,-4.3497,-4.3497,-4.3497,-4.3497,-4.3497,-4.3497,-4.3497,-4.3497,-4.3497,-4.3497,-4.3497,-4.3497,-4.3497,-4.3497,-4.3497,-4.3497,-4.3497,-4.3497,-4.3497,-4.3497,-4.3497,-4.3497,-4.3497,-4.3497,-4.3497,-4.3497,-4.3497,-4.3497,-4.3497,-4.3497,-4.3563,-4.3726,-4.3998,-4.4455,-4.4825,-4.5096,-4.5438,-4.5645,-4.5764,-4.6662,-4.7268,-4.1172,-4.1191,-4.1211,-4.1308,-4.2012,-4.248,0.0,-4.2715,-4.3594,-4.2715,-4.3144,-4.371,-4.3802,-4.3761,-4.3685,-4.3559,-4.3445,-4.3291,-4.3124,-4.3104,-4.2854,-4.2162,-4.2758,-4.3201,-4.3104,-4.3104,-4.3104,-4.3104,-4.3069,-4.2869,-4.2481,-4.2438,-4.2143,-4.1574,-4.1545,-4.1385,-4.1111,-4.1203,-4.124,-4.1258,-4.135,-4.1754,-4.2433,-4.2433,-4.2818,-4.3497,-4.3497,-4.3497,-4.3497,-4.3497,-4.3497,-4.3497,-4.3497,-4.3497,-4.3497,-4.3497,-4.3497,-4.3497,-4.3497,-4.3497,-4.3497,-4.3497,-4.3497,-4.3497,-4.3497,-4.3497,-4.3497,-4.3497,-4.3497,-4.3497,-4.3497,-4.3497,-4.3497,-4.3497,-4.3497,-4.3497,-4.3497,-4.3497,-4.3497,-4.3497,-4.3497,-4.3497,-4.3497,-4.3497,-4.3497,-4.3497,-4.3497,-4.3497,-4.3497,-4.3497,-4.3497,-4.3497,-4.3497,-4.3497,-4.3497,-4.3497,-4.3497,-4.3497,-4.3497,-4.3497,-4.3497,-4.3772,-4.3955,-4.4016,-4.4688,-4.5074,-4.5096,-4.5438,-4.5822,-4.6244,-4.7072,-4.7308,-4.0944,-4.0964,-4.0996,-4.1053,-4.1719,-4.2148,-4.1367,-4.2109,-4.2715,-4.1875,-4.1992,-4.2383,-4.2851,-4.2891,-4.2827,-4.2779,-4.2659,-4.2354,-4.1777,-4.17,-4.1527,-4.1104,-4.1373,-4.1585,-4.1585,-4.1585,-4.1585,-4.1585,-4.1585,-4.1447,-4.1111,-4.1111,-4.0798,-4.0188,-4.016,-3.9999,-3.9717,-4.0175,-4.0396,-4.0414,-4.0891,-4.1295,-4.1607,-4.1607,-4.1791,-4.2139,-4.2619,-4.2805,-4.2842,-4.3314,-4.3497,-4.3497,-4.3497,-4.3497,-4.3497,-4.3497,-4.3497,-4.3497,-4.3497,-4.3497,-4.3497,-4.3497,-4.3497,-4.3497,-4.3497,-4.3497,-4.3497,-4.3497,-4.3497,-4.3497,-4.3497,-4.3497,-4.3497,-4.3497,-4.3497,-4.3497,-4.3497,-4.3497,-4.3497,-4.3497,-4.3497,-4.3497,-4.3497,-4.3497,-4.3497,-4.3497,-4.3497,-4.3497,-4.3497,-4.3497,-4.3497,-4.3497,-4.3497,-4.3497,-4.3497,-4.3497,-4.3497,-4.3497,-4.3497,-4.3497,-4.3497,-4.3836,-4.4117,-4.4346,-4.483,-4.5201,-4.54,-4.5531,-4.5705,-4.5917,-4.6991,-4.7419,-4.0801,-4.0801,-4.0829,-4.0925,-4.142,-4.1769,-4.1269,-4.1601,-4.1855,-4.1308,-4.1191,-4.1387,-4.1953,-4.2031,-4.1973,-4.1953,-4.1857,-4.155,-4.0835,-4.0699,-4.0658,-4.0581,-4.0508,-4.0489,-4.0489,-4.0489,-4.0489,-4.0489,-4.0489,-4.0425,-4.0213,-4.0213,-3.9944,-3.9389,-3.9364,-3.9197,-3.8815,-3.9405,-3.9639,-3.957,-4.0175,-4.0561,-4.0781,-4.102,-4.1111,-4.1148,-4.1724,-4.1983,-4.202,-4.2603,-4.2951,-4.3169,-4.3169,-4.3314,-4.3497,-4.3497,-4.3497,-4.3497,-4.3497,-4.3497,-4.3497,-4.3497,-4.3497,-4.3497,-4.3497,-4.3497,-4.3497,-4.3497,-4.3497,-4.3497,-4.3497,-4.3497,-4.3497,-4.3497,-4.3497,-4.3497,-4.3497,-4.3497,-4.3497,-4.3497,-4.3497,-4.3497,-4.3497,-4.3497,-4.3497,-4.3497,-4.3497,-4.3497,-4.3497,-4.3497,-4.3497,-4.3497,-4.3497,-4.3497,-4.3497,-4.3597,-4.3646,-4.3646,-4.3726,-4.3791,-4.3791,-4.4136,-4.4455,-4.4732,-4.5074,-4.5362,-4.5586,-4.5586,-4.5586,-4.5624,-4.7007,-4.7665,-4.0789,-4.0789,-4.0789,-4.0804,-4.0823,-4.0877,-4.0973,-4.1016,-4.1074,-4.1172,-4.1191,-4.1211,-4.123,-4.123,-4.1191,-4.1055,-4.1035,-4.0982,-4.0816,-4.0745,-4.0696,-4.0696,-4.0581,-4.0489,-4.0489,-4.0489,-4.0489,-4.0489,-4.0489,-4.0489,-4.0489,-4.0489,-4.0356,-4.0081,-4.0081,-3.9754,-3.9099,-3.9117,-3.8998,-3.8744,-3.8762,-3.9184,-3.9955,-4.0744,-4.1111,-4.1111,-4.1148,-4.1152,-4.1123,-4.1168,-4.1643,-4.2333,-4.2333,-4.2805,-4.3497,-4.3497,-4.3497,-4.3497,-4.3497,-4.3497,-4.3497,-4.3497,-4.3497,-4.3497,-4.3497,-4.3497,-4.3497,-4.3497,-4.3497,-4.3497,-4.3497,-4.3497,-4.3497,-4.3497,-4.3497,-4.3497,-4.3497,-4.3497,-4.3497,-4.3497,-4.3497,-4.3497,-4.3497,-4.3497,-4.3497,-4.3497,-4.3497,-4.3497,-4.3497,-4.3497,-4.3497,-4.3497,-4.3497,-4.3497,-4.3497,-4.3804,-4.3967,-4.3967,-4.4364,-4.4572,-4.4572,-4.4896,-4.5074,-4.5074,-4.5419,-4.5586,-4.5586,-4.5586,-4.5586,-4.5624,-4.7317,-4.8068,-4.0291,-4.0346,-4.0401,-4.0684,-4.0728,-4.0752,-4.0837,-4.0867,-4.091,-4.1033,-4.1074,-4.1094,-4.1172,-4.1191,-4.1191,-4.1133,-4.1133,-4.1093,-4.0943,-4.0914,-4.0859,-4.0776,-4.0696,-4.0639,-4.0639,-4.0562,-4.0489,-4.0489,-4.0489,-4.0489,-4.0489,-4.0489,-4.0372,-4.0101,-4.0101,-3.988,-3.9457,-3.9212,-3.9044,-3.8961,-3.8792,-3.8836,-3.9111,-3.9386,-3.9515,-3.9551,-4.0065,-4.0304,-4.0345,-4.0899,-4.1284,-4.1501,-4.1503,-4.2022,-4.2713,-4.2713,-4.3041,-4.3497,-4.3497,-4.3497,-4.3497,-4.3497,-4.3497,-4.3497,-4.3497,-4.3497,-4.3497,-4.3497,-4.3497,-4.3497,-4.3497,-4.3497,-4.3497,-4.3497,-4.3497,-4.3497,-4.3497,-4.3497,-4.3497,-4.3497,-4.3497,-4.3497,-4.3497,-4.3497,-4.3497,-4.3497,-4.3497,-4.3497,-4.3497,-4.3497,-4.3497,-4.3497,-4.3693,-4.3818,-4.3818,-4.4194,-4.4419,-4.4419,-4.4527,-4.458,-4.458,-4.4919,-4.5096,-4.5096,-4.5419,-4.5586,-4.5586,-4.5586,-4.5586,-4.5624,-4.7317,-4.8105,-3.9861,-3.9922,-3.9982,-4.0234,-4.04,-4.0504,-4.0585,-4.0688,-4.0801,-4.0916,-4.098,-4.1035,-4.1113,-4.1172,-4.1191,-4.1191,-4.1191,-4.1172,-4.1074,-4.1035,-4.096,-4.0878,-4.0792,-4.0725,-4.0712,-4.062,-4.0562,-4.0489,-4.0489,-4.0489,-4.0489,-4.0489,-4.0406,-4.025,-4.0232,-4.0101,-3.9775,-3.9576,-3.9389,-3.9264,-3.8902,-3.8732,-3.8844,-3.8732,-3.8707,-3.8726,-3.9239,-3.946,-3.9515,-4.0029,-4.0396,-4.068,-4.0677,-4.1337,-4.2292,-4.2292,-4.2803,-4.3497,-4.3497,-4.3497,-4.3497,-4.3497,-4.3497,-4.3497,-4.3497,-4.3497,-4.3497,-4.3497,-4.3497,-4.3497,-4.3497,-4.3497,-4.3497,-4.3497,-4.3497,-4.3497,-4.3497,-4.3497,-4.3548,-4.3646,-4.3563,-4.3563,-4.3855,-4.3899,-4.3899,-4.3899,-4.3899,-4.3836,-4.3712,-4.3679,-4.3726,-4.3868,-4.4076,-4.4204,-4.4204,-4.4561,-4.4776,-4.4776,-4.4896,-4.4966,-4.4966,-4.5161,-4.5282,-4.5282,-4.5495,-4.5586,-4.5586,-4.5586,-4.5586,-4.5624,-4.7317,-4.8105,-3.9576,-3.9576,-3.9576,-3.9599,-3.984,-4.0101,-4.0175,-4.0434,-4.0681,-4.0773,-4.0906,-4.0995,-4.0996,-4.1094,-4.1191,-4.1191,-4.1191,-4.1191,-4.1191,-4.1094,-4.1016,-4.1016,-4.0881,-4.0781,-4.0708,-4.0716,-4.0658,-4.0508,-4.0489,-4.0489,-4.0489,-4.0489,-4.0489,-4.0489,-4.0489,-4.0372,-4.012,-4.0101,-3.9922,-3.9576,-3.898,-3.8844,-3.9072,-3.8833,-3.8707,-3.8707,-3.8707,-3.8707,-3.8707,-3.8707,-3.9173,-3.9841,-3.9841,-4.0822,-4.2243,-4.2243,-4.276,-4.3497,-4.3497,-4.3497,-4.3497,-4.3497,-4.3497,-4.3497,-4.3497,-4.3497,-4.3497,-4.3497,-4.3513,-4.3513,-4.3513,-4.3548,-4.3548,-4.3548,-4.3548,-4.3548,-4.3548,-4.3548,-4.3646,-4.3955,-4.3772,-4.3758,-4.4474,-4.458,-4.458,-4.458,-4.458,-4.4474,-4.4087,-4.4028,-4.4175,-4.4553,-4.4624,-4.465,-4.465,-4.4943,-4.5137,-4.5137,-4.5419,-4.5586,-4.5586,-4.5586,-4.5586,-4.5586,-4.5586,-4.5586,-4.5586,-4.5586,-4.5605,-4.5701,-4.7336,-4.8125,-3.9178,-3.9231,-3.9289,-3.9552,-3.9668,-3.98,-4.0063,-4.0195,-4.0345,-4.0665,-4.0758,-4.082,-4.0972,-4.1035,-4.1074,-4.1172,-4.1191,-4.1191,-4.1191,-4.1172,-4.1152,-4.1152,-4.1037,-4.0946,-4.0935,-4.0793,-4.0696,-4.0658,-4.0562,-4.0489,-4.0489,-4.0489,-4.0489,-4.0489,-4.0489,-4.0473,-4.0389,-4.0195,-3.9797,-3.9231,-3.9063,-3.8952,-3.8803,-3.8719,-3.8707,-3.8707,-3.8707,-3.8707,-3.8707,-3.8707,-3.8817,-3.9013,-3.9013,-3.9992,-4.1409,-4.1423,-4.2286,-4.3497,-4.3497,-4.3497,-4.3497,-4.3497,-4.3497,-4.3497,-4.3497,-4.3497,-4.3497,-4.3497,-4.3679,-4.3881,-4.3881,-4.4076,-4.4308,-4.4308,-4.4308,-4.4308,-4.4308,-4.4308,-4.4337,-4.4447,-4.4392,-4.4364,-4.4553,-4.458,-4.458,-4.458,-4.458,-4.4553,-4.4474,-4.4447,-4.4501,-4.458,-4.4806,-4.4966,-4.4966,-4.5263,-4.5457,-4.5457,-4.555,-4.5586,-4.5586,-4.5586,-4.5586,-4.5586,-4.5586,-4.5586,-4.5586,-4.5586,-4.5932,-4.6586,-4.7625,-4.8452,-3.8865,-3.8905,-3.8961,-3.9181,-3.9301,-3.9481,-3.9797,-4.0002,-4.0196,-4.0534,-4.0658,-4.0731,-4.0859,-4.0932,-4.1016,-4.1094,-4.1152,-4.1191,-4.1191,-4.1191,-4.1191,-4.1191,-4.1136,-4.1056,-4.101,-4.0913,-4.0812,-4.0754,-4.06,-4.0489,-4.0489,-4.0489,-4.0489,-4.0489,-4.0489,-4.0489,-4.0489,-4.0232,-3.9963,-3.9697,-3.9314,-3.9171,-3.9313,-3.8892,-3.8762,-3.8855,-3.8732,-3.8707,-3.8707,-3.8707,-3.8707,-3.8707,-3.8707,-3.9465,-4.062,-4.095,-4.1901,-4.302,-4.3369,-4.3497,-4.3497,-4.3497,-4.3497,-4.3513,-4.366,-4.3631,-4.3582,-4.3899,-4.4004,-4.4028,-4.4204,-4.4447,-4.458,-4.458,-4.458,-4.458,-4.458,-4.458,-4.458,-4.458,-4.4849,-4.5103,-4.5304,-4.5494,-4.5719,-4.6081,-4.6138,-4.6138,-4.6138,-4.5375,-4.4872,-4.5011,-4.5222,-4.5322,-4.5322,-4.5495,-4.5586,-4.5586,-4.5586,-4.5586,-4.5586,-4.5586,-4.5586,-4.5586,-4.5586,-4.5586,-4.5586,-4.597,-4.6413,-4.6932,-4.8125,-4.8933,-3.867,-3.8707,-3.8707,-3.8707,-3.8884,-3.9152,-3.9529,-3.9819,-4.012,-4.0441,-4.06,-4.0677,-4.0696,-4.0843,-4.097,-4.0996,-4.1094,-4.1172,-4.1191,-4.1191,-4.1191,-4.1191,-4.1191,-4.1152,-4.1035,-4.0999,-4.0949,-4.0847,-4.0646,-4.053,-4.0543,-4.0508,-4.0489,-4.0489,-4.0489,-4.0489,-4.0489,-4.0286,-4.025,-4.0441,-3.9607,-3.9486,-3.9922,-3.91,-3.8855,-3.9036,-3.8803,-3.8707,-3.8707,-3.8707,-3.8707,-3.8707,-3.8707,-3.9184,-3.9992,-4.0818,-4.1625,-4.2415,-4.3222,-4.3513,-4.3582,-4.3582,-4.3582,-4.3612,-4.3986,-4.3899,-4.3758,-4.4419,-4.4373,-4.4233,-4.458,-4.4682,-4.4732,-4.4732,-4.4732,-4.4732,-4.4732,-4.4827,-4.4921,-4.4921,-4.547,-4.607,-4.6464,-4.6819,-4.7298,-4.799,-4.8105,-4.8105,-4.8105,-4.6472,-4.5454,-4.5741,-4.5663,-4.5586,-4.5586,-4.5586,-4.5586,-4.5586,-4.5586,-4.5586,-4.5586,-4.5586,-4.5586,-4.5586,-4.5701,-4.5759,-4.5759,-4.6644,-4.7124,-4.7278,-4.8721,-4.9452,-3.8524,-3.8707,-3.8707,-3.8707,-3.875,-3.8931,-3.9457,-3.9645,-3.9842,-4.0389,-4.0508,-4.0581,-4.0677,-4.0723,-4.082,-4.0972,-4.1016,-4.1074,-4.1172,-4.1191,-4.1191,-4.1191,-4.1191,-4.1191,-4.1172,-4.1068,-4.0994,-4.0969,-4.0831,-4.0718,-4.0673,-4.0562,-4.0489,-4.0489,-4.0489,-4.0489,-4.0489,-4.0457,-4.0339,-4.0158,-3.9983,-3.9709,-3.9264,-3.9099,-3.8952,-3.8762,-3.8719,-3.8707,-3.8707,-3.8707,-3.8707,-3.8707,-3.8707,-3.9184,-3.9992,-4.0818,-4.1625,-4.2415,-4.3222,-4.366,-4.3893,-4.3893,-4.3893,-4.3986,-4.4392,-4.4447,-4.4447,-4.4553,-4.4757,-4.4943,-4.5007,-4.5222,-4.5438,-4.5438,-4.5438,-4.5438,-4.5438,-4.5976,-4.6493,-4.6493,-4.7127,-4.7683,-4.778,-4.7837,-4.7952,-4.8086,-4.8105,-4.8105,-4.8105,-4.7222,-4.6608,-4.6682,-4.6028,-4.5586,-4.5586,-4.5586,-4.5586,-4.5586,-4.5586,-4.5586,-4.5586,-4.5586,-4.5586,-4.5586,-4.6317,-4.6682,-4.6682,-4.749,-4.8259,-4.8971,-4.926,-4.9779,-3.7845,-3.8065,-3.8175,-3.8597,-3.8707,-3.8862,-3.9457,-3.9599,-3.9778,-4.0389,-4.0489,-4.0508,-4.0581,-4.0677,-4.0775,-4.0876,-4.1003,-4.1133,-4.1191,-4.1191,-4.1191,-4.1191,-4.1191,-4.1191,-4.1191,-4.1133,-4.1108,-4.1098,-4.0974,-4.0842,-4.0712,-4.0581,-4.0489,-4.0489,-4.0489,-4.0489,-4.0489,-4.0489,-4.0441,-4.0321,-4.0158,-4.0003,-3.9804,-3.9321,-3.9223,-3.9396,-3.9045,-3.8923,-3.8923,-3.8923,-3.8815,-3.8719,-3.8855,-3.9135,-3.9634,-4.091,-4.1613,-4.21,-4.3125,-4.3726,-4.4028,-4.4233,-4.4318,-4.4373,-4.4757,-4.4751,-4.4657,-4.5011,-4.5118,-4.514,-4.5322,-4.5476,-4.5586,-4.5586,-4.5586,-4.572,-4.6182,-4.6605,-4.7028,-4.7451,-4.7836,-4.824,-4.8702,-4.8779,-4.8933,-4.9375,-4.9452,-4.9452,-4.9452,-4.8721,-4.8029,-4.7567,-4.7144,-4.6894,-4.6894,-4.6894,-4.6721,-4.6297,-4.6663,-4.6701,-4.6297,-4.6682,-4.6894,-4.6894,-4.7317,-4.7528,-4.7528,-4.8375,-4.899,-4.9413,-4.9875,-5.0298,-3.7,-3.7349,-3.7643,-3.8285,-3.8621,-3.8913,-3.9481,-3.9645,-3.9861,-4.0389,-4.0489,-4.0489,-4.0489,-4.0658,-4.0785,-4.08,-4.0988,-4.1175,-4.1191,-4.1191,-4.1191,-4.1191,-4.1191,-4.1133,-4.0937,-4.0918,-4.0832,-4.0655,-4.0529,-4.0507,-4.0677,-4.06,-4.0543,-4.0489,-4.0489,-4.0489,-4.0489,-4.0489,-4.0489,-4.0489,-4.0286,-4.0269,-4.0389,-3.9649,-3.9576,-3.9943,-3.9457,-3.9231,-3.9231,-3.9231,-3.9082,-3.8902,-3.9117,-3.9231,-3.9391,-4.1091,-4.1726,-4.1894,-4.3249,-4.3943,-4.429,-4.4606,-4.4726,-4.4757,-4.5096,-4.5011,-4.4919,-4.5438,-4.5419,-4.5282,-4.5531,-4.5586,-4.5586,-4.5586,-4.574,-4.6067,-4.6759,-4.7182,-4.7625,-4.8259,-4.8529,-4.8875,-4.9548,-4.9683,-4.9913,-5.0587,-5.0702,-5.0702,-5.0702,-5.0087,-4.9413,-4.874,-4.8317,-4.8105,-4.8105,-4.8105,-4.7836,-4.7201,-4.7759,-4.7817,-4.7182,-4.7759,-4.8105,-4.8105,-4.8279,-4.8375,-4.8375,-4.924,-4.9683,-4.9702,-5.0375,-5.0702,-3.6174,-3.6927,-3.7514,-3.7569,-3.8358,-3.9152,-3.9529,-3.9838,-4.0139,-4.0441,-4.0489,-4.0489,-4.0489,-4.062,-4.0737,-4.0791,-4.0916,-4.105,-4.1187,-4.1191,-4.1191,-4.1191,-4.1191,-4.0898,-4.0098,-4.0019,-3.9687,-3.8905,-3.8708,-3.9232,-4.0631,-4.0696,-4.0639,-4.0489,-4.0489,-4.0489,-4.0489,-4.0489,-4.0489,-4.0489,-4.0473,-4.0356,-4.0139,-4.0042,-3.988,-3.9645,-3.9576,-3.9552,-3.9552,-3.9552,-3.9552,-3.9529,-3.9552,-3.9552,-3.976,-4.1437,-4.2059,-4.2304,-4.3936,-4.4707,-4.4988,-4.5052,-4.5052,-4.5118,-4.5438,-4.5531,-4.5513,-4.5586,-4.5568,-4.5568,-4.5586,-4.5586,-4.5586,-4.5586,-4.6201,-4.6797,-4.6894,-4.8105,-4.9183,-4.926,-4.9913,-5.0491,-5.0567,-5.0567,-5.0606,-5.0683,-5.0702,-5.0702,-5.0702,-5.0625,-5.0548,-5.0471,-4.9048,-4.8105,-4.8105,-4.8105,-4.8067,-4.799,-4.8067,-4.8067,-4.799,-4.8067,-4.8105,-4.8105,-4.8875,-4.9279,-4.9279,-5.0164,-5.0567,-5.0567,-5.0644,-5.0702,-3.5293,-3.5752,-3.6119,-3.6652,-3.723,-3.7723,-3.8022,-3.8721,-3.9413,-3.9711,-4.0235,-4.062,-4.062,-4.0754,-4.0723,-4.0224,-4.0246,-4.035,-4.0409,-4.043,-4.0605,-4.1133,-4.1191,-4.0859,-3.998,-3.9902,-3.9531,-3.8672,-3.8555,-3.8741,-3.9279,-3.9688,-4.0142,-4.062,-4.0543,-4.0489,-4.0489,-4.0489,-4.0489,-4.0489,-4.0489,-4.0438,-4.0339,-4.0177,-4.012,-4.0138,-3.9983,-3.9901,-3.9901,-3.9901,-3.9775,-3.9622,-3.9819,-3.9901,-4.0034,-4.119,-4.1911,-4.2477,-4.346,-4.4388,-4.5096,-4.5096,-4.5243,-4.5419,-4.5568,-4.5586,-4.5586,-4.5586,-4.5586,-4.5586,-4.5586,-4.5586,-4.5586,-4.5586,-4.6278,-4.7028,-4.7528,-4.8567,-4.9548,-5.0067,-5.0452,-5.0702,-5.0702,-5.0702,-5.0702,-5.0702,-5.0702,-5.0702,-5.0702,-5.0702,-5.0702,-5.0702,-5.0067,-4.9663,-4.9663,-4.9663,-4.9433,-4.8913,-4.9375,-4.9433,-4.8894,-4.9394,-4.9663,-4.9663,-5.001,-5.0183,-5.0183,-5.0529,-5.0702,-5.0702,-5.0702,-5.0741,-3.4759,-3.5073,-3.5406,-3.6017,-3.6553,-3.699,-3.7194,-3.7928,-3.8623,-3.8862,-3.945,-3.9931,-3.9931,-4.0104,-4.0046,0.0,-3.9429,-3.9512,-3.9512,-3.9512,-3.9746,-4.0351,-4.043,-4.0098,-3.9219,-3.8906,-3.8496,-3.7871,-3.7814,-3.7862,-3.8042,-3.8438,-3.9165,-4.0277,-4.0219,-4.0277,-4.0489,-4.0489,-4.0489,-4.0489,-4.0489,-4.0489,-4.0489,-4.0285,-4.0321,-4.0489,-4.0304,-4.0213,-4.0213,-4.0213,-4.0062,-3.9884,-4.012,-4.0213,-4.0328,-4.1132,-4.1973,-4.2775,-4.3365,-4.4328,-4.5243,-4.5243,-4.5419,-4.5586,-4.5586,-4.5586,-4.5586,-4.5586,-4.5586,-4.5586,-4.5586,-4.5586,-4.5586,-4.5586,-4.6451,-4.7413,-4.799,-4.899,-4.9971,-5.0567,-5.0702,-5.0702,-5.0702,-5.0702,-5.0702,-5.0702,-5.0702,-5.0702,-5.0702,-5.0702,-5.0702,-5.0702,-5.0702,-5.0702,-5.0702,-5.0702,-5.0433,-4.9817,-5.0356,-5.0414,-4.9798,-5.0356,-5.0702,-5.0702,-5.0702,-5.0702,-5.0702,-5.0741,-5.076,-5.076,-5.0818,-5.0874,-3.4713,-3.5277,-3.5899,-3.5899,-3.6709,-3.7489,-3.7508,-3.7756,-3.8007,-3.8007,-3.807,-3.8127,-3.8127,-3.8304,-3.8408,-3.8408,-3.8526,-3.8613,-3.8613,-3.8613,-3.8613,-3.8633,-3.8633,-3.8281,-3.7402,-3.6543,-3.6035,-3.6035,-3.5965,-3.6304,-3.7178,-3.7041,-3.7685,-3.9362,-3.94,-3.9762,-4.0489,-4.0489,-4.0489,-4.0489,-4.0489,-4.0489,-4.0489,-4.0489,-4.0489,-4.0489,-4.0489,-4.0489,-4.0489,-4.0489,-4.0489,-4.0489,-4.0489,-4.0489,-4.0604,-4.147,-4.2354,-4.322,-4.4008,-4.4855,-4.5586,-4.5586,-4.5586,-4.5586,-4.5586,-4.5586,-4.5586,-4.5586,-4.5586,-4.5586,-4.5586,-4.5586,-4.5586,-4.5586,-4.6874,-4.8086,-4.8105,-4.9452,-5.0683,-5.0702,-5.0702,-5.0702,-5.0702,-5.0702,-5.0702,-5.0702,-5.0702,-5.0702,-5.0702,-5.0702,-5.0702,-5.0702,-5.0702,-5.0702,-5.0702,-5.0702,-5.0702,-5.0683,-5.0683,-5.0702,-5.0683,-5.0702,-5.0702,-5.0702,-5.0702,-5.0702,-5.0702,-5.0837,-5.0914,-5.0914,-5.1029,-5.1103,-3.4694,-3.4902,-3.509,-3.509,-3.5477,-3.5867,-3.5867,-3.6588,-3.7243,-3.7243,-3.7805,-3.8308,-3.8308,-3.8423,-3.8332,-3.7747,-3.7682,-3.7715,-3.7715,-3.7715,-3.793,-3.8535,-3.8066,-3.7598,-3.7324,-3.6504,-3.5977,-3.5939,-3.5905,-3.5982,-3.6155,-3.6103,-3.6853,-3.8527,-3.8488,-3.8834,-3.9662,-3.9681,-3.995,-4.0489,-4.0489,-4.0489,-4.0489,-4.0489,-4.0489,-4.0489,-4.0489,-4.0489,-4.0489,-4.0489,-4.0489,-4.0489,-4.0489,-4.0489,-4.0527,-4.0796,-4.145,-4.2335,-4.3181,-4.4008,-4.4797,-4.5413,-4.5586,-4.5586,-4.5586,-4.5586,-4.5586,-4.5586,-4.5586,-4.5586,-4.5586,-4.5586,-4.5586,-4.5586,-4.6874,-4.8105,-4.8105,-4.9471,-5.0702,-5.0702,-5.0702,-5.0702,-5.0702,-5.0702,-5.0702,-5.0702,-5.0702,-5.0702,-5.0702,-5.0702,-5.0702,-5.0702,-5.0702,-5.0702,-5.0702,-5.0702,-5.0702,-5.0702,-5.0702,-5.0702,-5.0702,-5.0779,-5.0856,-5.0856,-5.0933,-5.0972,-5.0972,-5.1029,-5.1039,-5.1043,-5.1119,-5.1163,-3.5089,-3.5075,-3.5075,-3.5075,-3.5198,-3.5315,-3.5315,-3.5921,-3.6458,-3.6451,-3.698,-3.7459,-3.7459,-3.7553,-3.7441,-3.6894,-3.6816,-3.6816,-3.6816,-3.6816,-3.7012,-3.7559,-3.7148,-3.6791,-3.6767,-3.6289,-3.5917,-3.5831,-3.5798,-3.5757,-3.568,-3.5641,-3.6103,-3.7156,-3.743,-3.7988,-3.8796,-3.8815,-3.9219,-4.0046,-4.0046,-4.02,-4.0489,-4.0489,-4.0489,-4.0489,-4.0489,-4.0489,0.0,-4.0489,-4.0489,-4.0489,-4.0489,-4.0489,-4.0489,-4.0489,-4.1046,-4.1931,-4.2797,-4.3624,-4.4432,-4.5316,-4.5624,-4.568,-4.5719,-4.5643,-4.5586,-4.5586,-4.5586,-4.5586,-4.5586,-4.5586,-4.5682,-4.6009,-4.7124,-4.8202,-4.8529,-4.9702,-5.0702,-5.0702,-5.0702,-5.0702,-5.0702,-5.0702,-5.0721,-5.076,-5.0779,-5.0779,-5.0856,-5.0856,-5.0856,-5.0856,-5.0856,-5.0856,-5.0856,-5.0818,-5.0818,-5.0856,-5.0856,-5.0856,-5.0856,-5.0933,-5.097,-5.0987,-5.1045,-5.1083,-5.1083,-5.1142,-5.1145,-5.1213,-5.1249,-5.1287,0.0,-3.572,-3.5701,-3.5701,-3.5701,-3.5701,-3.5701,-3.5713,0.0,-3.5702,-3.5834,-3.5913,-3.5913,-3.5953,-3.5993,-3.5993,-3.5996,-3.5996,-3.5996,-3.5996,-3.5996,-3.5996,-3.5995,-3.5962,-3.5901,-3.5892,-3.584,-3.5687,-3.5643,-3.5603,-3.5603,-3.5545,-3.5493,-3.5493,-3.6339,-3.7147,-3.7892,-3.7911,-3.8354,-3.92,-3.9258,-3.9681,-4.0412,-4.0469,-4.0489,-4.0489,-4.0489,-4.0489,-4.0489,-4.0489,-4.0489,-4.0489,-4.0489,-4.0489,-4.0489,-4.0489,-4.1008,-4.1835,-4.272,-4.3547,-4.4374,-4.5316,-4.5717,-4.5828,-4.5885,-4.5774,-4.5605,-4.5605,-4.5605,-4.5605,-4.5605,-4.5605,-4.5836,-4.6701,-4.7548,-4.8375,-4.924,-5.0106,-5.0721,-5.0721,-5.0721,-5.0721,-5.0721,-5.0721,-5.076,-5.0914,-5.0914,-5.0952,-5.1086,-5.1106,-5.1106,-5.1106,-5.1106,-5.1106,-5.1106,-5.0972,-5.0952,-5.1086,-5.1106,-5.1106,-5.1106,-5.1106,-5.1112,-5.1111,-5.1123,-5.1122,-5.1122,-5.1169,-5.128,-5.1406,-5.1406,-5.1406,-3.5924,0.0,-3.5693,-3.5693,-3.5693,-3.5693,0.0,0.0,0.0,0.0,-3.5916,-3.5985,-3.5985,-3.5981,-3.5987,-3.5929,-3.5973,-3.5976,-3.5937,-3.5976,-3.5996,-3.5996,-3.5943,-3.5913,-3.59,-3.5815,-3.572,-3.5642,-3.5605,-3.5584,-3.5545,-3.5526,-3.5493,-3.5493,-3.5705,-3.6205,-3.7007,-3.7007,-3.745,-3.8315,-3.8969,-3.9392,-3.9604,-4.0219,-4.0489,-4.0489,-4.0489,-4.0489,-4.0489,-4.0489,-4.0489,-4.0489,-4.0489,-4.0489,-4.0489,-4.0489,-4.0623,-4.0931,-4.1912,-4.2794,-4.3734,-4.5315,-4.5849,-4.5889,-4.5908,-4.5872,-4.5834,-4.5834,-4.5834,-4.5834,-4.5834,-4.5834,-4.6046,-4.691,-4.7777,-4.8643,-4.9528,-5.0375,-5.101,-5.101,-5.101,-5.101,-5.101,-5.101,-5.1029,-5.1049,-5.1053,-5.1074,-5.1113,-5.1113,-5.1113,-5.1113,-5.1113,-5.1111,-5.1183,-5.1106,-5.1074,-5.1113,-5.1113,-5.1113,-5.1113,-5.1151,-5.1183,-5.1175,-5.1277,-5.1338,-5.1338,-5.1355,-5.1369,-5.1406,-5.1406,-5.1406,-3.5859,-3.5847,-3.5841,-3.5841,-3.5841,-3.5841,-3.5841,0.0,0.0,0.0,-3.5932,-3.5943,-3.5955,-3.5947,-3.593,-3.5911,-3.596,-3.5976,-3.5918,-3.5937,-3.5928,-3.5864,-3.583,-3.5797,-3.5771,-3.5699,-3.5641,-3.5565,-3.5565,-3.5545,-3.5493,-3.5493,-3.5493,-3.5493,-3.5493,-3.5718,-3.6161,-3.6161,-3.6584,-3.7411,-3.7873,-3.8527,-3.9296,-3.9738,-4.0142,-4.0489,-4.0489,-4.0489,-4.0489,-4.0489,-4.0489,-4.0489,-4.0489,-4.0489,-4.0489,-4.0489,-4.0489,-4.0642,-4.1643,-4.284,-4.4111,-4.5536,-4.5997,-4.6002,-4.6066,-4.6072,-4.6054,-4.5938,-4.5899,-4.5899,-4.5899,-4.5899,-4.6209,-4.7494,-4.8159,-4.8856,-5.0134,-5.0758,-5.1106,-5.1106,-5.1106,-5.1106,-5.1106,-5.1106,-5.1122,-5.1145,-5.1148,-5.1171,-5.1232,-5.123,-5.123,-5.123,-5.1234,-5.1244,-5.1279,-5.1261,-5.1241,-5.1244,-5.123,-5.123,-5.123,-5.1276,-5.1297,-5.1297,-5.1359,-5.1406,-5.1406,-5.1406,-5.1406,-5.1406,-5.1406,-5.1406,-3.5698,-3.5827,-3.5947,-3.5953,-3.5976,-3.5976,-3.5955,0.0,0.0,0.0,-3.5874,-3.5875,-3.59,-3.5873,-3.5856,-3.5856,-3.5913,-3.5939,-3.5905,-3.5892,-3.5854,-3.5713,-3.5698,-3.566,-3.5611,-3.5603,-3.5565,-3.5493,-3.5493,-3.5493,-3.5493,-3.5493,-3.5493,-3.5493,-3.5493,-3.5493,-3.5493,-3.5493,-3.5853,-3.6526,-3.6642,-3.7469,-3.8911,-3.9181,-3.9662,-4.0315,-4.045,-4.0489,-4.0489,-4.0489,-4.0489,-4.0489,-4.0489,-4.0489,-4.0489,-4.0508,-4.0543,-4.0696,-4.1697,-4.3136,-4.4701,-4.5641,-4.6027,-4.6143,-4.6268,-4.6305,-4.624,-4.6025,-4.5967,-4.5967,-4.5967,-4.5967,-4.6403,-4.8144,-4.8553,-4.904,-5.0778,-5.1148,-5.1148,-5.1148,-5.1148,-5.1148,-5.1148,-5.1148,-5.1171,-5.1215,-5.1225,-5.1263,-5.1382,-5.1406,-5.1406,-5.1406,-5.1396,-5.1394,-5.1393,-5.1399,-5.1396,-5.1405,-5.1406,-5.1406,-5.1406,-5.1406,-5.1406,-5.1406,-5.1406,-5.1406,-5.1406,-5.1406,-5.1406,-5.1406,-5.1406,-5.1406,-3.5682,-3.5719,-3.5745,-3.5749,-3.5835,-3.5895,-3.5773,-3.5832,-3.5889,0.0,-3.5723,-3.5778,-3.5879,-3.5805,-3.5737,-3.5737,-3.5737,-3.5785,-3.5888,-3.5892,-3.5861,-3.5721,-3.5644,-3.5599,-3.5603,-3.5565,-3.5526,-3.5493,-3.5493,-3.5493,-3.5493,-3.5493,-3.5493,-3.5493,-3.5493,-3.5493,-3.5493,-3.5493,-3.5565,-3.5699,-3.6372,-3.6853,-3.7161,-3.8623,-3.9373,-3.9508,-4.02,-4.0489,-4.0489,-4.0489,-4.0489,-4.0489,-4.0489,-4.0489,-4.0508,-4.0639,-4.0677,-4.0812,-4.1902,-4.2947,-4.3999,-4.4889,-4.5668,-4.6276,-4.6284,-4.6305,-4.6285,-4.6246,-4.6246,-4.6246,-4.6246,-4.6246,-4.6676,-4.8414,-4.8843,-4.9293,-5.0992,-5.1343,-5.1343,-5.1343,-5.1343,-5.1343,-5.1343,-5.1343,-5.1359,-5.1369,-5.1369,-5.1377,-5.1406,-5.1406,-5.1406,-5.1406,-5.1404,-5.1398,-5.1408,-5.1408,-5.1396,-5.1406,-5.1406,-5.1406,-5.1406,-5.1406,-5.1406,-5.1406,-5.1406,-5.1406,-5.1406,-5.1406,-5.1406,-5.1406,-5.1406,-5.1406,-3.5584,-3.5603,-3.5586,-3.5596,-3.5678,-3.5779,-3.5703,-3.5794,-3.5849,-3.5684,-3.5669,-3.5718,-3.5738,-3.5687,-3.5666,-3.5688,-3.5669,-3.5679,-3.572,-3.5738,-3.5699,-3.5603,-3.5565,-3.5565,-3.5565,-3.5526,-3.5493,-3.5493,-3.5493,-3.5493,-3.5493,-3.5493,-3.5493,-3.5493,-3.5493,-3.5493,-3.5493,-3.5493,-3.5493,-3.5493,-3.5872,-3.6276,-3.6738,-3.7526,-3.843,-3.9369,-3.9754,-4.0196,-4.0658,-4.0658,-4.0658,-4.0658,-4.0658,-4.0658,-4.0654,-4.0745,-4.081,-4.0985,-4.1959,-4.2905,-4.3848,-4.4726,-4.5586,-4.6308,-4.6308,-4.6308,-4.6308,-4.6308,-4.6308,-4.6308,-4.6308,-4.6308,-4.6738,-4.8496,-4.8906,-4.9355,-5.1035,-5.1406,-5.1406,-5.1406,-5.1406,-5.1269,-5.082,-5.0742,-5.0742,-5.0742,-5.0742,-5.0918,-5.1348,-5.1406,-5.1406,-5.1406,-5.1406,-5.1406,-5.1406,-5.1406,-5.1406,-5.1406,-5.1406,-5.1406,-5.1406,-5.1406,-5.1406,-5.1406,-5.1406,-5.1406,-5.1406,-5.1406,-5.1406,-5.1406,-5.1406,-5.1406,-3.5417,-3.5446,-3.5493,-3.5493,-3.5603,-3.5669,-3.5669,-3.5751,-3.5776,-3.5622,-3.5622,-3.5641,-3.5622,-3.5608,-3.5626,-3.5669,-3.5628,-3.5596,-3.5611,-3.5603,-3.5584,-3.5526,-3.5493,-3.5493,-3.5493,-3.5493,-3.5493,-3.5493,-3.5493,-3.5493,-3.5493,-3.5493,-3.5493,-3.5493,-3.5493,-3.5493,-3.5493,-3.5493,-3.5493,-3.5493,-3.5493,-3.5834,-3.643,-3.6661,-3.7507,-3.883,-3.9257,-3.9843,-4.0538,-4.0731,-4.0808,-4.0808,-4.0808,-4.081,-4.0843,-4.0854,-4.0925,-4.1149,-4.1819,-4.276,-4.3808,-4.4473,-4.543,-4.6308,-4.6308,-4.6308,-4.6308,-4.6308,-4.6308,-4.6308,-4.6308,-4.6308,-4.6699,-4.8223,-4.875,-4.9316,-5.0801,-5.1269,-5.1348,-5.1152,-5.1113,-5.0859,-5.0039,-4.9902,-4.9902,-4.9902,-5.0078,-5.043,-5.1035,-5.1289,-5.1406,-5.1406,-5.1406,-5.1406,-5.1406,-5.1406,-5.1406,-5.1406,-5.1406,-5.1406,-5.1406,-5.1406,-5.1406,-5.1406,-5.1406,-5.1406,-5.1406,-5.1406,-5.1406,-5.1406,-5.1406,-5.1406,-3.5122,-3.5304,-3.5493,-3.5493,-3.5565,-3.5584,-3.5534,-3.5578,-3.5603,-3.5526,-3.5526,-3.5545,-3.5603,-3.5597,-3.5597,-3.5603,-3.5597,-3.5597,-3.5603,-3.5603,-3.5584,-3.5526,-3.5493,-3.5493,-3.5493,-3.5493,-3.5493,-3.5493,-3.5493,-3.5493,-3.5493,-3.5493,-3.5493,-3.5493,-3.5493,-3.5493,-3.5493,-3.5493,-3.5493,-3.5493,-3.5493,-3.5532,-3.5608,-3.6493,-3.6954,-3.7175,-3.8869,-3.9621,-3.9738,-4.0485,-4.0796,-4.0796,-4.0796,-4.0881,-4.1001,-4.0977,-4.1081,-4.1188,-4.1266,-4.2343,-4.3711,-4.3769,-4.4922,-4.6308,-4.6308,-4.6308,-4.6308,-4.6308,-4.6308,-4.6308,-4.6308,-4.6308,-4.6543,-4.7461,-4.8301,-4.9141,-5.0098,-5.0879,-5.1172,-5.043,-5.0293,-5.0019,-4.9141,-4.8984,-4.8984,-4.8984,-4.9687,-5.0215,-5.0273,-5.0937,-5.1406,-5.1406,-5.1406,-5.1406,-5.1406,-5.1406,-5.1406,-5.1406,-5.1406,-5.1406,-5.1406,-5.1406,-5.1406,-5.1406,-5.1406,-5.1406,-5.1406,-5.1406,-5.1406,-5.1406,-5.1406,-5.1406,-3.5051,-3.5155,-3.5289,-3.5446,-3.5526,-3.5545,-3.5526,-3.5565,-3.5584,-3.5526,-3.5545,-3.5565,-3.5545,-3.5545,-3.5545,-3.5545,-3.5545,-3.5545,-3.5545,-3.5545,-3.5545,-3.5493,-3.5493,-3.5493,-3.5493,-3.5493,-3.5493,-3.5493,-3.5493,-3.5493,-3.5493,-3.5493,-3.5493,-3.5493,-3.5493,-3.5526,-3.5565,-3.5526,-3.5545,-3.5622,-3.5545,-3.5526,-3.5584,-3.5916,-3.6449,-3.7112,-3.7803,-3.8738,-3.98,-4.0112,-4.0564,-4.1052,-4.1052,-4.109,-4.1123,-4.1123,-4.1163,-4.1191,-4.1191,-4.1933,-4.2988,-4.3516,-4.4512,-4.5586,-4.6133,-4.6308,-4.6308,-4.6308,-4.6308,-4.6308,-4.6308,-4.6308,-4.6523,-4.7383,-4.7851,-4.832,-4.9199,-4.9629,-4.9766,-4.9453,-4.9394,-4.9101,-4.8242,-4.8086,-4.8086,-4.8086,-4.8379,-4.8789,-4.9316,-5.0137,-5.0644,-5.0644,-5.1094,-5.1406,-5.1406,-5.1406,-5.1406,-5.1406,-5.1406,-5.1406,-5.1406,-5.1406,-5.1406,-5.1406,-5.1406,-5.1406,-5.1406,-5.1406,-5.1406,-5.1406,-5.1406,-5.1406,-3.5035,-3.5155,-3.5273,-3.5446,0.0,-3.5493,-3.5493,-3.5545,-3.5565,-3.5526,-3.5545,-3.5565,-3.5526,-3.5493,-3.5493,-3.5493,-3.5493,-3.5493,-3.5493,-3.5493,-3.5493,-3.5493,-3.5493,-3.5493,-3.5493,-3.5493,-3.5493,-3.5493,-3.5493,-3.5493,-3.5493,-3.5493,-3.5526,-3.5545,-3.5545,-3.5565,-3.5641,-3.5591,-3.5611,-3.5699,-3.5611,-3.5591,-3.5641,-3.568,-3.6098,-3.6799,-3.7102,-3.7935,-3.9121,-3.9668,-4.041,-4.1191,-4.1191,-4.1191,-4.1191,-4.1191,-4.1191,-4.1191,-4.1191,-4.1738,-4.2539,-4.3418,-4.4297,-4.5156,-4.6035,-4.6308,-4.6308,-4.6308,-4.6308,-4.6308,-4.6308,-4.6308,-4.6445,-4.7051,-4.7402,-4.7754,-4.8359,-4.8711,-4.8828,-4.8535,-4.8496,-4.8203,-4.7344,-4.7187,-4.7187,-4.7187,-4.7422,-4.7812,-4.8418,-4.9258,-4.9883,-5.0176,-5.0918,-5.1406,-5.1406,-5.1406,-5.1406,-5.1406,-5.1406,-5.1406,-5.1406,-5.1406,-5.1406,-5.1406,-5.1406,-5.1406,-5.1406,-5.1406,-5.1406,-5.1406,-5.1406,-5.1406,-3.5016,-3.5289,-3.5493,-3.5493,-3.5493,-3.5493,-3.5493,-3.5493,-3.5493,-3.5493,-3.5493,-3.5493,-3.5493,-3.5493,-3.5493,-3.5493,-3.5493,-3.5493,-3.5493,-3.5493,-3.5493,-3.5493,-3.5493,-3.5493,-3.5493,-3.5493,-3.5493,-3.5493,-3.5493,-3.5493,-3.5493,-3.5493,-3.5545,-3.5603,-3.5603,-3.5622,-3.5699,-3.5697,-3.5697,-3.5699,-3.5697,-3.5708,-3.5718,-3.5834,-3.5905,-3.5945,-3.6887,-3.7285,-3.7441,-3.918,-4.041,-4.1191,-4.1191,-4.1191,-4.1191,-4.1191,-4.1191,-4.1191,-4.1191,-4.1719,-4.2539,-4.3398,-4.4277,-4.5156,-4.6016,-4.6289,-4.6308,-4.6308,-4.6308,-4.6308,-4.6308,-4.6308,-4.6308,-4.6308,-4.6953,-4.7598,-4.7598,-4.8262,-4.8613,-4.7754,-4.7598,-4.7305,-4.6445,-4.6308,-4.6308,-4.6308,-4.7031,-4.7598,-4.7598,-4.8359,-4.9219,-5.0098,-5.0898,-5.1387,-5.1387,-5.1387,-5.1387,-5.1406,-5.1406,-5.1406,-5.1406,-5.1406,-5.1406,-5.1406,-5.1406,-5.1406,-5.1406,-5.1406,-5.1406,-5.1406,-5.1406,-5.1406,-3.4734,-3.5016,-3.5254,-3.5446,-3.5493,-3.5493,-3.5493,-3.5493,-3.5493,-3.5493,-3.5493,-3.5493,-3.5493,-3.5493,-3.5493,-3.5493,-3.5545,-3.5565,-3.5526,-3.5545,-3.5565,-3.5526,-3.5545,-3.5584,-3.5584,-3.5622,-3.5641,-3.5641,-3.5641,-3.5641,-3.5641,-3.5641,-3.5661,-3.568,-3.5667,-3.5736,-3.5834,-3.5756,-3.5775,-3.5911,-3.5861,-3.5842,-3.5834,-3.5872,-3.5931,-3.599,-3.6265,-3.6738,-3.7441,-3.918,-4.0059,-4.0351,-4.0957,-4.1191,-4.1191,-4.1191,-4.1191,-4.1191,-4.1191,-4.1291,-4.1578,-4.2485,-4.334,-4.4199,-4.5117,-4.5801,-4.6308,-4.6308,-4.6308,-4.628,-4.6173,-4.6157,-4.6192,-4.628,-4.6504,-4.6699,-4.6699,-4.6894,-4.6992,-4.6738,-4.6699,-4.6601,-4.6348,-4.6308,-4.6308,-4.6308,-4.6523,-4.6914,-4.7519,-4.7832,-4.832,-4.9199,-4.9492,-4.9883,-5.0508,-5.0566,-5.077,-5.1237,-5.1256,-5.1298,-5.1406,-5.1406,-5.1406,-5.1406,-5.1406,-5.1406,-5.1406,-5.1406,-5.1406,-5.1406,-5.1307,-5.1256,-3.4907,-3.5138,-3.5304,-3.546,-3.5493,-3.5493,-3.5493,-3.5493,-3.5493,-3.5493,-3.5493,-3.5493,-3.5493,-3.5493,-3.5526,-3.5545,-3.5584,-3.5586,-3.5585,-3.5605,-3.5622,-3.5584,-3.5622,-3.5637,-3.5635,-3.5684,-3.5704,-3.5704,-3.5704,-3.5704,-3.5704,-3.5704,-3.5724,-3.5776,-3.5781,-3.5833,-3.5935,-3.5869,-3.5889,-3.6012,-3.5963,-3.5937,-3.5935,-3.5935,-3.5953,-3.5996,-3.5996,-3.6484,-3.7383,-3.8437,-3.9277,-3.9941,-4.0488,-4.0898,-4.1191,-4.1191,-4.1175,-4.1117,-4.1117,-4.1023,-4.1071,-4.1984,-4.2617,-4.3238,-4.4504,-4.5246,-4.5734,-4.6046,-4.6144,-4.6114,-4.6034,-4.6024,-4.6051,-4.6117,-4.6144,-4.6144,-4.6144,-4.6144,-4.6144,-4.6144,-4.6144,-4.6144,-4.6144,-4.6144,-4.6163,-4.6202,-4.622,-4.6378,-4.6862,-4.724,-4.765,-4.8177,-4.8529,-4.8958,-4.9485,-4.9524,-4.9705,-5.01,-5.0138,-5.0155,-5.0248,-5.0903,-5.1277,-5.1277,-5.1277,-5.1277,-5.1277,-5.1277,-5.1277,-5.1273,-5.119,-5.1172,-3.5289,-3.546,-3.5493,-3.5493,-3.5493,-3.5493,-3.5493,-3.5493,-3.5493,-3.5493,-3.5493,-3.5493,-3.5526,-3.5526,-3.5545,-3.5603,-3.5622,-3.5642,-3.5694,-3.5718,-3.5701,-3.5695,-3.5713,-3.5732,-3.5718,-3.571,-3.5729,-3.5729,-3.5729,-3.5729,-3.5729,-3.5729,-3.5788,-3.59,-3.5919,-3.5946,-3.5996,-3.5996,-3.5996,-3.5996,-3.6004,-3.6001,-3.5996,-3.5996,-3.5996,-3.5996,-3.5996,-3.6445,-3.7187,-3.7266,-3.8223,-3.9668,-3.9746,-4.0312,-4.1074,-4.1072,-4.103,-4.0985,-4.0985,-4.0887,-4.0907,-4.1716,-4.2027,-4.2391,-4.4073,-4.4637,-4.487,-4.5668,-4.591,-4.591,-4.5891,-4.5899,-4.5896,-4.5889,-4.5891,-4.591,-4.591,-4.591,-4.591,-4.591,-4.591,-4.591,-4.591,-4.591,-4.593,-4.6054,-4.6079,-4.604,-4.591,-4.6591,-4.7087,-4.7087,-4.7787,-4.8302,-4.838,-4.838,-4.8419,-4.8477,-4.8493,-4.8489,-4.8452,-5.0015,-5.0858,-5.0858,-5.0936,-5.0975,-5.0975,-5.1053,-5.1092,-5.1092,-5.1092,-5.1067,-3.4832,-3.519,-3.5493,-3.5493,-3.5493,-3.5493,-3.5493,-3.5493,-3.5493,-3.5493,-3.5493,-3.5526,-3.5584,-3.5584,-3.5603,-3.568,-3.5776,-3.5797,-3.5714,-3.5797,-3.5825,-3.5718,-3.5786,-3.5874,-3.5861,-3.5903,-3.593,-3.593,-3.593,-3.593,-3.593,-3.593,-3.5947,-3.5971,-3.5971,-3.5984,-3.5996,-3.5996,-3.5996,-3.5996,-3.6003,-3.6005,-3.5996,-3.5996,-3.5996,-3.5996,-3.5996,-3.6113,-3.6328,-3.7012,-3.7519,-3.793,-3.8613,-3.9414,-4.0173,-4.0053,-4.0442,-4.0966,-4.087,-4.0795,-4.0761,-4.0997,-4.1504,-4.2232,-4.3342,-4.4157,-4.487,-4.5677,-4.5889,-4.5889,-4.5831,-4.5825,-4.5794,-4.57,-4.5793,-4.5889,-4.5889,-4.5889,-4.5889,-4.5889,-4.5889,-4.5889,-4.5889,-4.5889,-4.5896,-4.593,-4.5944,-4.5926,-4.5908,-4.6059,-4.6194,-4.6194,-4.6349,-4.675,-4.7407,-4.748,-4.7716,-4.8314,-4.8349,-4.8297,-4.8182,-4.8752,-4.9054,-4.9054,-4.9732,-5.0079,-5.0079,-5.0771,-5.1099,-5.1099,-5.0984,-5.093,-3.487,-3.519,-3.5493,-3.5493,-3.5493,-3.5493,-3.5493,-3.5493,-3.5526,-3.5545,-3.5565,-3.5565,-3.5603,-3.5635,-3.5673,-3.5784,-3.5853,-3.5894,-3.586,-3.5891,-3.5916,-3.5848,-3.5903,-3.5942,-3.5942,-3.5974,-3.5996,-3.5996,-3.5996,-3.5996,-3.5996,-3.5996,-3.5996,-3.5996,-3.5996,-3.5996,-3.5996,-3.5996,-3.6001,-3.6009,-3.597,-3.5908,-3.5868,-3.5954,-3.5996,-3.5996,-3.5996,-3.5996,-3.6035,-3.6484,-3.6914,-3.7344,-3.7793,-3.8475,-3.9174,-3.9097,-3.9576,-4.0231,-4.0138,-4.0331,-4.062,-4.0658,-4.0927,-4.1463,-4.2354,-4.3239,-4.4105,-4.4913,-4.543,-4.5757,-4.5719,-4.5699,-4.5699,-4.5605,-4.568,-4.5757,-4.5757,-4.5757,-4.5757,-4.5757,-4.5757,-4.5757,-4.5757,-4.5815,-4.5825,-4.5764,-4.5812,-4.5834,-4.5757,-4.5757,-4.5757,-4.5757,-4.5757,-4.595,-4.641,-4.6429,-4.6602,-4.6969,-4.7008,-4.6989,-4.6913,-4.7028,-4.749,-4.8279,-4.8759,-4.9183,-4.9606,-5.0048,-5.051,-5.0914,-5.0856,-5.0818,-3.4963,-3.5273,-3.5493,-3.5493,-3.5493,-3.5493,-3.5493,-3.5493,-3.5526,-3.5603,-3.5603,-3.5622,-3.5661,-3.5706,-3.5773,-3.5897,-3.5913,-3.5929,-3.5993,-3.5996,-3.5996,-3.5996,-3.5991,-3.5987,-3.5996,-3.5975,-3.595,-3.5979,-3.597,-3.5953,-3.5953,-3.5953,-3.5953,-3.5953,-3.5953,-3.5953,-3.5953,-3.5953,-3.5943,-3.5945,-3.5894,-3.5813,-3.5718,-3.5869,-3.595,-3.5976,-3.5976,-3.5996,-3.5996,-3.5996,-3.6424,-3.7055,-3.7055,-3.7514,-3.8157,-3.815,-3.859,-3.921,-3.933,-3.9773,-4.0315,-4.045,-4.0489,-4.0662,-4.1546,-4.2412,-4.3278,-4.4066,-4.4932,-4.5586,-4.5586,-4.5586,-4.5586,-4.5586,-4.5586,-4.5586,-4.5586,-4.5586,-4.5586,-4.5586,-4.5586,-4.5586,-4.5586,-4.5699,-4.5738,-4.5605,-4.5699,-4.5738,-4.5605,-4.5586,-4.5586,-4.5586,-4.5586,-4.5586,-4.5586,-4.5586,-4.5586,-4.5586,-4.5586,-4.5586,-4.5586,-4.5586,-4.624,-4.7644,-4.7817,-4.8259,-4.8971,-4.926,-4.976,-5.0471,-5.0625,-5.0606,-3.4655,-3.5122,-3.5493,-3.5493,-3.5493,-3.5493,-3.5493,-3.5493,-3.5526,-3.5603,-3.5603,-3.5661,-3.5834,-3.5874,-3.5891,-3.5968,-3.5986,-3.5991,-3.5996,-3.5996,-3.5996,-3.5996,-3.5949,-3.5948,-3.5994,-3.5841,-3.5791,-3.5902,-3.5799,-3.5741,-3.5741,-3.5741,-3.5741,-3.5741,-3.5741,-3.5741,-3.5741,-3.5741,-3.5736,-3.5745,-3.5724,-3.5726,-3.5689,-3.5739,-3.5811,-3.5918,-3.5918,-3.5957,-3.5996,-3.5996,-3.6031,-3.6091,-3.6091,-3.6541,-3.7175,-3.7128,-3.7637,-3.8445,-3.9099,-3.9373,-3.9565,-4.0258,-4.0489,-4.0662,-4.1546,-4.2412,-4.3278,-4.4066,-4.4932,-4.5586,-4.5586,-4.5586,-4.5586,-4.5586,-4.5586,-4.5586,-4.5586,-4.5586,-4.5586,-4.5586,-4.5586,-4.5586,-4.5586,-4.5605,-4.5605,-4.5586,-4.5605,-4.5605,-4.5586,-4.5586,-4.5586,-4.5586,-4.5586,-4.5586,-4.5586,-4.5586,-4.5586,-4.5586,-4.5586,-4.5586,-4.5586,-4.5586,-4.5701,-4.5932,-4.6682,-4.7124,-4.724,-4.8682,-4.9452,-4.9586,-5.0337,-5.0298,-3.4774,-3.5105,-3.5304,-3.546,-3.5493,-3.5493,-3.5493,-3.5493,-3.5545,-3.5641,-3.5659,-3.5706,-3.5874,-3.5931,-3.5968,-3.5995,-3.5996,-3.5986,-3.5949,-3.5939,-3.5924,-3.5849,-3.5818,-3.5805,-3.5834,-3.5748,-3.5715,-3.5784,-3.5724,-3.5706,-3.5706,-3.5706,-3.5706,-3.5706,-3.5706,-3.5706,-3.5706,-3.5706,-3.5687,-3.5637,-3.5631,-3.5622,-3.5603,-3.5603,-3.5709,-3.5908,-3.5827,-3.5855,-3.5947,-3.5866,-3.5807,-3.5795,-3.5798,-3.5958,-3.6218,-3.6177,-3.668,-3.7469,-3.8296,-3.8892,-3.9431,-4.0239,-4.0489,-4.0566,-4.095,-4.2027,-4.3162,-4.3528,-4.4586,-4.5586,-4.5586,-4.5586,-4.5586,-4.5586,-4.5586,-4.5586,-4.5586,-4.5586,-4.5586,-4.5586,-4.5586,-4.5586,-4.5586,-4.5586,-4.5586,-4.5586,-4.5586,-4.5586,-4.5586,-4.5586,-4.5586,-4.5586,-4.5586,-4.5586,-4.5586,-4.5586,-4.5586,-4.5586,-4.5586,-4.5586,-4.5586,-4.5586,-4.5586,-4.5586,-4.597,-4.6413,-4.6913,-4.7644,-4.824,-4.8682,-4.9067,-4.9048,-3.487,-3.5105,-3.5239,-3.5446,-3.5493,-3.5493,-3.5526,-3.5545,-3.5584,-3.5718,-3.5742,-3.5784,-3.5902,-3.5973,-3.5995,-3.5988,-3.5962,-3.5947,-3.5867,-3.5862,-3.5823,-3.5706,-3.5685,-3.5689,-3.5707,-3.5667,-3.5659,-3.5674,-3.5661,-3.5661,-3.5661,-3.5661,-3.5661,-3.5661,-3.5661,-3.5661,-3.5661,-3.5661,-3.5622,-3.5584,-3.5584,-3.5565,-3.5493,-3.5493,-3.5622,-3.5823,-3.5727,-3.5737,-3.5842,-3.5747,-3.5685,-3.5668,-3.5669,-3.5641,-3.5584,-3.5584,-3.593,-3.6546,-3.7623,-3.843,-3.9142,-4.0162,-4.0489,-4.0489,-4.0489,-4.1566,-4.2816,-4.3047,-4.4143,-4.5316,-4.5528,-4.5586,-4.5586,-4.5586,-4.5586,-4.5586,-4.5586,-4.5586,-4.5586,-4.5586,-4.5586,-4.5586,-4.5586,-4.5586,-4.5586,-4.5586,-4.5586,-4.5586,-4.5586,-4.5586,-4.5586,-4.5586,-4.5586,-4.5586,-4.5586,-4.5586,-4.5586,-4.5586,-4.5586,-4.5586,-4.5586,-4.5586,-4.5586,-4.5586,-4.5586,-4.5913,-4.6567,-4.6797,-4.7221,-4.7798,-4.8009,-4.799,-3.4714,-3.5088,-3.5493,-3.5493,-3.5493,-3.5526,-3.5584,-3.5603,-3.5661,-3.5853,-3.5886,-3.5908,-3.5982,-3.5996,-3.5971,-3.5921,-3.5907,-3.5852,-3.5725,-3.5704,-3.5699,-3.5707,-3.5649,-3.5617,-3.568,-3.5597,-3.554,-3.5603,-3.5565,-3.5526,-3.5526,-3.5526,-3.5526,-3.5526,-3.5526,-3.5526,-3.5526,-3.5526,-3.5526,-3.5526,-3.5526,-3.5493,-3.5493,-3.5493,-3.5545,-3.5617,-3.562,-3.5657,-3.5718,-3.5694,-3.5669,-3.5611,-3.5603,-3.5565,-3.5526,-3.5526,-3.5545,-3.5815,-3.743,-3.8027,-3.8334,-3.9969,-4.0489,-4.0489,-4.0489,-4.1143,-4.2047,-4.2874,-4.3701,-4.4566,-4.5374,-4.5586,-4.5586,-4.5586,-4.5586,-4.5586,-4.5586,-4.5586,-4.5586,-4.5586,-4.5586,-4.5586,-4.5586,-4.5586,-4.5586,-4.5586,-4.5586,-4.5586,-4.5586,-4.5586,-4.5586,-4.5586,-4.5586,-4.5586,-4.5586,-4.5586,-4.5586,-4.5586,-4.5586,-4.5586,-4.5586,-4.5586,-4.5586,-4.5586,-4.5586,-4.5605,-4.5663,-4.6509,-4.6932,-4.699,-4.774,-4.7702,-3.4591,-3.4851,-3.507,-3.5398,-3.5493,-3.5526,-3.5584,-3.5603,-3.5661,-3.5853,-3.5892,-3.5911,-3.593,-3.5948,-3.5921,-3.5894,-3.5834,-3.574,-3.5651,-3.5644,-3.5622,-3.5584,-3.5565,-3.5565,-3.5584,-3.5545,-3.5432,-3.5293,-3.5258,-3.5239,-3.5239,-3.5239,-3.532,-3.5493,-3.5493,-3.5493,-3.5493,-3.5493,-3.5493,-3.5493,-3.5493,-3.5493,-3.5493,-3.5493,-3.5526,-3.5545,-3.5528,-3.5573,-3.5641,-3.5603,-3.5565,-3.5545,-3.5545,-3.5526,-3.5493,-3.5493,-3.5493,-3.5738,-3.743,-3.8007,-3.8277,-3.995,-4.0489,-4.0489,-4.0489,-4.1104,-4.1873,-4.2181,-4.3258,-4.4374,-4.4682,-4.5182,-4.5586,-4.5586,-4.5586,-4.5586,-4.5586,-4.5586,-4.5586,-4.5586,-4.5586,-4.5586,-4.5586,-4.5586,-4.5586,-4.5586,-4.5586,-4.5586,-4.5586,-4.5586,-4.5586,-4.5586,-4.5586,-4.5586,-4.5586,-4.5586,-4.5586,-4.5586,-4.5586,-4.5586,-4.5586,-4.5586,-4.5586,-4.5586,-4.5586,-4.5586,-4.5586,-4.5913,-4.6067,-4.6067,-4.6355,-4.6336,-3.442,-3.4675,-3.4926,-3.5289,-3.5432,-3.5526,-3.5584,-3.5618,-3.5684,-3.5854,-3.5921,-3.5924,-3.594,-3.5872,-3.5834,-3.5795,-3.5718,-3.5641,-3.5584,-3.5584,-3.5565,-3.5526,-3.5493,-3.5493,-3.5493,-3.5493,-3.5383,-3.5122,-3.5105,-3.507,-3.4963,-3.4963,-3.5088,-3.5354,-3.5446,-3.5493,-3.5493,-3.5493,-3.5493,-3.5493,-3.5493,-3.5493,-3.5493,-3.5493,-3.5493,-3.5493,-3.5493,-3.5545,-3.5565,-3.5526,-3.5493,-3.5493,-3.5493,-3.5493,-3.5493,-3.5493,-3.5493,-3.5699,-3.7084,-3.7757,-3.8238,-3.9642,-4.0277,-4.0489,-4.0489,-4.0893,-4.1431,-4.172,-4.2604,-4.3585,-4.4143,-4.4951,-4.5586,-4.5586,-4.5586,-4.5586,-4.5586,-4.5586,-4.5586,-4.5586,-4.5586,-4.5586,-4.5586,-4.5586,-4.5586,-4.5586,-4.5586,-4.5586,-4.5586,-4.5586,-4.5586,-4.5586,-4.5586,-4.5586,-4.5586,-4.5586,-4.5586,-4.5586,-4.5586,-4.5586,-4.5586,-4.5586,-4.5586,-4.5586,-4.5586,-4.5586,-4.5586,-4.5586,-4.5586,-4.5586,-4.5586,-4.5586,0.0,0.0,0.0,-3.5105,-3.5289,-3.5512,-3.5584,-3.5649,-3.5747,-3.5876,-3.5949,-3.599,-3.5999,-3.5828,-3.568,-3.5622,-3.5603,-3.5584,-3.5526,-3.5493,-3.5493,-3.5493,-3.5493,-3.5493,-3.5493,-3.5493,-3.5369,-3.5105,-3.5088,-3.4963,-3.4694,-3.4694,-3.4813,-3.5088,-3.5335,-3.5493,-3.5493,-3.5493,-3.5493,-3.5493,-3.5493,-3.5493,-3.5493,-3.5493,-3.5493,-3.5493,-3.5493,-3.5493,-3.5493,-3.5493,-3.5493,-3.5493,-3.5493,-3.5493,-3.5493,-3.5493,-3.5493,-3.5622,-3.643,-3.7276,-3.8142,-3.9008,-3.9835,-4.0489,-4.0489,-4.0489,-4.0681,-4.1527,-4.1777,-4.22,-4.3855,-4.4951,-4.5586,-4.5586,-4.5586,-4.5586,-4.5586,-4.5586,-4.5586,-4.5586,-4.5586,-4.5586,-4.5586,-4.5586,-4.5586,-4.5586,-4.5586,-4.5586,-4.5586,-4.5586,-4.5586,-4.5586,-4.5586,-4.5586,-4.5586,-4.5586,-4.5586,-4.5586,-4.5586,-4.5586,-4.5586,-4.5586,-4.5586,-4.5586,-4.5586,-4.5586,-4.5586,-4.5586,-4.5586,-4.5586,-4.5586,-4.5586,-3.4147,0.0,0.0,0.0,0.0,0.0,-3.5556,-3.5612,-3.5689,-3.5851,-3.5906,-3.5923,-3.5932,-3.5882,-3.5795,-3.5641,-3.5565,-3.5526,-3.5493,-3.5493,-3.5493,-3.5493,-3.5493,-3.5493,-3.5493,-3.532,-3.5105,-3.4813,-3.4574,-3.4405,-3.4357,-3.4572,-3.4813,-3.5088,-3.4981,-3.5105,-3.5493,-3.5304,-3.5304,-3.5493,-3.5493,-3.5493,-3.5493,-3.5493,-3.5493,-3.5493,-3.5493,-3.5493,-3.5493,-3.5493,-3.5493,-3.5493,-3.5493,-3.5493,-3.5493,-3.5493,-3.5493,-3.5622,-3.643,-3.7276,-3.8142,-3.9008,-3.9835,-4.0489,-4.0489,-4.0489,-4.0546,-4.0777,-4.1316,-4.22,-4.3855,-4.4951,-4.5586,-4.5586,-4.5586,-4.5586,-4.5586,-4.5586,-4.5586,-4.5586,-4.5586,-4.5586,-4.5586,-4.5586,-4.5586,-4.5586,-4.5586,-4.5586,-4.5586,-4.5586,-4.5586,-4.5586,-4.5586,-4.5586,-4.5586,-4.5586,-4.5586,-4.5586,-4.5586,-4.5586,-4.5586,-4.5586,-4.5586,-4.5586,-4.5586,-4.5586,-4.5586,-4.5586,-4.5586,-4.5586,-4.5586,-4.5586,-3.3986,-3.4123,-3.4292,-3.4636,0.0,0.0,-3.5362,-3.5508,-3.5642,-3.5742,-3.5837,-3.5898,-3.5898,-3.5899,-3.5863,-3.5753,-3.5622,-3.5545,-3.5493,-3.5493,-3.5493,-3.5493,-3.5493,-3.5493,-3.5493,-3.5369,-3.5105,-3.4714,-3.4529,-3.4288,-3.4043,-3.4311,-3.4553,-3.4716,-3.4714,-3.4908,-3.532,-3.519,-3.5223,-3.5493,-3.5493,-3.5493,-3.5493,-3.5493,-3.5493,-3.5493,-3.5493,-3.5493,-3.5493,-3.5493,-3.5493,-3.5493,-3.5493,-3.5493,-3.5493,-3.5493,-3.5493,-3.5584,-3.6045,-3.6988,-3.8084,-3.8584,-3.9546,-4.0489,-4.0489,-4.0489,-4.0489,-4.0489,-4.1123,-4.2124,-4.3451,-4.4432,-4.5143,-4.5509,-4.5586,-4.5586,-4.5586,-4.5586,-4.5586,-4.5586,-4.5586,-4.5586,-4.5586,-4.5586,-4.5586,-4.5586,-4.5586,-4.5586,-4.5586,-4.5586,-4.5586,-4.5586,-4.5586,-4.5586,-4.5586,-4.5586,-4.5586,-4.5586,-4.5586,-4.5586,-4.5586,-4.5586,-4.5586,-4.5586,-4.5586,-4.5586,-4.5586,-4.5586,-4.5586,-4.5586,-4.5586,-4.5586,-3.3807,-3.3986,-3.4152,-3.4176,-3.4636,0.0,-3.5088,-3.5343,-3.5603,-3.5603,-3.5748,-3.5873,-3.5877,-3.5898,-3.5896,-3.5889,-3.5734,-3.5603,-3.5526,-3.5493,-3.5493,-3.5493,-3.5493,-3.5493,-3.5493,-3.546,-3.5258,-3.4734,-3.4632,-3.4371,-3.3815,-3.4018,-3.4171,-3.42,-3.4464,-3.4754,-3.5034,-3.507,-3.5174,-3.5417,-3.5446,-3.5446,-3.5446,-3.5446,-3.546,-3.5493,-3.5493,-3.5493,-3.5493,-3.5493,-3.5493,-3.5493,-3.5493,-3.5493,-3.5493,-3.5493,-3.5493,-3.5493,-3.5493,-3.6603,-3.8007,-3.8007,-3.9123,-4.0489,-4.0489,-4.0489,-4.0489,-4.0489,-4.1123,-4.1989,-4.2758,-4.3624,-4.4489,-4.5259,-4.5528,-4.5586,-4.5586,-4.5586,-4.5586,-4.5586,-4.5586,-4.5586,-4.5586,-4.5586,-4.5586,-4.5586,-4.5586,-4.5586,-4.5586,-4.5586,-4.5586,-4.5586,-4.5586,-4.5586,-4.5586,-4.5586,-4.5586,-4.5586,-4.5586,-4.5586,-4.5586,-4.5586,-4.5586,-4.5586,-4.5586,-4.5586,-4.5586,-4.5586,-4.5586,-4.5586,-4.5586,-4.5586,-3.3807,-3.3842,-3.391,-3.4147,-3.4489,0.0,-3.5053,-3.5324,-3.5545,-3.5603,-3.563,-3.5689,-3.5729,-3.5823,-3.5859,-3.5764,-3.5803,-3.5776,-3.5622,-3.5545,-3.5493,-3.5493,-3.5493,-3.5493,-3.5493,-3.5304,-3.5053,-3.4714,-3.4255,-3.3902,-3.3807,-3.3868,-3.3986,-3.4176,-3.4043,-3.4213,-3.4774,-3.4774,-3.4793,-3.487,-3.5088,-3.519,-3.519,-3.519,-3.5289,-3.5493,-3.5493,-3.5493,-3.5493,-3.5493,-3.5493,-3.5493,-3.5493,-3.5493,-3.5493,-3.5493,-3.5493,-3.5493,-3.5493,-3.6603,-3.8007,-3.8007,-3.9123,-4.0489,-4.0489,-4.0489,-4.0489,-4.0489,-4.1123,-4.1854,-4.2008,-4.3162,-4.4335,-4.4509,-4.5086,-4.5586,-4.5586,-4.5586,-4.5586,-4.5586,-4.5586,-4.5586,-4.5586,-4.5586,-4.5586,-4.5586,-4.5586,-4.5586,-4.5586,-4.5586,-4.5586,-4.5586,-4.5586,-4.5586,-4.5586,-4.5586,-4.5586,-4.5586,-4.5586,-4.5586,-4.5586,-4.5586,-4.5586,-4.5586,-4.5586,-4.5586,-4.5586,-4.5586,-4.5586,-4.5586,-4.5586,-4.5586,-3.3807,-3.3807,-3.3842,-3.3961,-3.4237,0.0,0.0,-3.5105,-3.5354,-3.5518,-3.5584,-3.5618,-3.5637,-3.5732,-3.5797,-3.5799,-3.5795,-3.5782,-3.5753,-3.5641,-3.5565,-3.5565,-3.5526,-3.5493,-3.5493,-3.5383,-3.5122,-3.4714,-3.426,-3.3935,-3.3807,-3.3807,-3.385,-3.4012,-3.385,-3.4012,-3.4464,-3.4445,-3.4529,-3.4694,-3.4851,-3.4963,-3.5105,-3.5105,-3.5258,-3.5493,-3.5493,-3.5493,-3.5493,-3.5493,-3.5493,-3.5493,-3.5493,-3.5493,-3.5493,-3.5493,-3.5493,-3.5493,-3.5493,-3.6315,-3.743,-3.7853,-3.8854,-3.9969,-4.0373,-4.0489,-4.0489,-4.0489,-4.0816,-4.1258,-4.17,-4.2758,-4.3797,-4.4201,-4.497,-4.5586,-4.5586,-4.5586,-4.5586,-4.5586,-4.5586,-4.5586,-4.5586,-4.5586,-4.5586,-4.5586,-4.5586,-4.5586,-4.5586,-4.5586,-4.5586,-4.5586,-4.5586,-4.5586,-4.5586,-4.5586,-4.5586,-4.5586,-4.5586,-4.5586,-4.5586,-4.5586,-4.5586,-4.5586,-4.5586,-4.5586,-4.5586,-4.5586,-4.5586,-4.5586,-4.5586,-4.5586,-3.3807,-3.3807,-3.3807,-3.3807,-3.3993,-3.4269,0.0,0.0,0.0,-3.5369,-3.547,-3.5523,-3.557,-3.5641,-3.572,-3.5814,-3.5751,-3.5755,-3.5883,-3.5731,-3.5608,-3.5617,-3.5565,-3.5526,-3.5526,-3.5465,-3.5239,-3.4793,-3.4467,-3.4195,-3.3979,-3.3902,-3.3876,-3.3876,-3.3815,-3.3902,-3.4123,-3.4152,-3.4311,-3.4526,-3.4591,-3.4754,-3.5016,-3.5016,-3.5207,-3.5493,-3.5493,-3.5493,-3.5493,-3.5493,-3.5493,-3.5493,-3.5493,-3.5493,-3.5493,-3.5493,-3.5493,-3.5493,-3.5493,-3.6045,-3.6853,-3.7719,-3.8681,-3.9642,-4.0296,-4.0489,-4.0489,-4.0489,-4.0489,-4.0662,-4.1373,-4.22,-4.3066,-4.3874,-4.472,-4.5393,-4.5547,-4.5586,-4.5586,-4.5586,-4.5586,-4.5586,-4.5586,-4.5586,-4.5586,-4.5586,-4.5586,-4.5586,-4.5586,-4.5586,-4.5586,-4.5586,-4.5586,-4.5586,-4.5586,-4.5586,-4.5586,-4.5586,-4.5586,-4.5586,-4.5586,-4.5586,-4.5586,-4.5586,-4.5586,-4.5586,-4.5586,-4.5586,-4.5586,-4.5586,-4.5586,-4.5586,-3.3807,-3.3807,-3.3807,-3.3807,-3.3993,-3.42,-3.4265,0.0,-3.4813,-3.5088,0.0,-3.5242,-3.5465,0.0,0.0,-3.563,-3.5676,-3.5747,-3.5877,-3.5774,-3.57,-3.5689,-3.5641,-3.5603,-3.5603,-3.5327,-3.5122,-3.507,-3.4793,-3.4632,-3.4612,-3.4311,-3.4152,-3.4152,-3.391,-3.3815,-3.3842,-3.4093,-3.4117,-3.3921,-3.4123,-3.4423,-3.4753,-3.4753,-3.5016,-3.5493,-3.5493,-3.5493,-3.5493,-3.5493,-3.5493,-3.5493,-3.5493,-3.5493,-3.5493,-3.5493,-3.5493,-3.5493,-3.5493,-3.6045,-3.6853,-3.7719,-3.9065,-4.0373,-4.0469,-4.0489,-4.0489,-4.0489,-4.0489,-4.0508,-4.0623,-4.1296,-4.2181,-4.3028,-4.3855,-4.4662,-4.5432,-4.5586,-4.5586,-4.5586,-4.5586,-4.5586,-4.5586,-4.5586,-4.5586,-4.5586,-4.5586,-4.5586,-4.5586,-4.5586,-4.5586,-4.5586,-4.5586,-4.5586,-4.5586,-4.5586,-4.5586,-4.5586,-4.5586,-4.5586,-4.5586,-4.5586,-4.5586,-4.5586,-4.5586,-4.5586,-4.5586,-4.5586,-4.5586,-4.5586,-4.5586,-4.5586,-3.3807,-3.3807,-3.3807,-3.3807,-3.3876,-3.3993,-3.4152,-3.4311,-3.4489,-3.4813,0.0,0.0,0.0,0.0,0.0,0.0,-3.5623,-3.5679,-3.5779,-3.5747,-3.5722,-3.5821,-3.5718,-3.5637,-3.5597,-3.5436,-3.5273,-3.5105,-3.4999,-3.4851,-3.4694,-3.4379,-3.42,-3.42,-3.3935,-3.3807,-3.3807,-3.4068,-3.4147,-3.4043,-3.4334,-3.4655,-3.4926,-3.4926,-3.5138,-3.5493,-3.5493,-3.5493,-3.5493,-3.5493,-3.5493,-3.5493,-3.5493,-3.5493,-3.5493,-3.5493,-3.5493,-3.5493,-3.5493,-3.5718,-3.6219,-3.7565,-3.9123,-4.0489,-4.0489,-4.0489,-4.0489,-4.0489,-4.0489,-4.0489,-4.0489,-4.1143,-4.1893,-4.2258,-4.3355,-4.4393,-4.4759,-4.524,-4.5586,-4.5586,-4.5586,-4.5586,-4.5586,-4.5586,-4.5586,-4.5586,-4.5586,-4.5586,-4.5586,-4.5586,-4.5586,-4.5586,-4.5586,-4.5586,-4.5586,-4.5586,-4.5586,-4.5586,-4.5586,-4.5586,-4.5586,-4.5586,-4.5586,-4.5586,-4.5586,-4.5586,-4.5586,-4.5586,-4.5586,-4.5586,-4.5586,-4.5586,-3.3807,-3.3807,-3.3807,-3.3807,-3.3807,-3.3868,-3.4043,-3.4074,-3.4171,-3.4508,-3.4715,0.0,0.0,0.0,-3.5403,-3.546,0.0,-3.5603,-3.5661,-3.5676,-3.5738,-3.5877,-3.5807,-3.5728,-3.5643,-3.5584,-3.547,-3.5242,-3.5245,-3.5141,-3.4926,-3.4615,-3.4449,-3.4449,-3.4093,-3.3902,-3.3902,-3.4099,-3.42,-3.42,-3.4464,-3.4695,-3.4981,-3.4981,-3.5138,-3.5383,-3.5479,-3.5493,-3.5493,-3.5493,-3.5493,-3.5493,-3.5493,-3.5493,-3.5493,-3.5493,-3.5493,-3.5493,-3.5493,-3.5815,-3.6392,-3.7603,-3.9123,-4.0489,-4.0489,-4.0489,-4.0489,-4.0489,-4.0489,-4.0489,-4.0489,-4.0969,-4.1508,-4.1739,-4.2739,-4.3739,-4.4201,-4.4797,-4.5297,-4.5547,-4.5586,-4.5586,-4.5586,-4.5586,-4.5586,-4.5586,-4.5586,-4.5586,-4.5586,-4.5586,-4.5586,-4.5586,-4.5586,-4.5586,-4.5586,-4.5586,-4.5586,-4.5586,-4.5586,-4.5586,-4.5586,-4.5586,-4.5586,-4.5586,-4.5586,-4.5586,-4.5586,-4.5586,-4.5586,-4.5586,-4.5586,-4.5586,-3.3807,-3.3807,-3.3807,-3.3807,-3.3807,-3.3788,-3.3815,-3.3815,-3.3876,-3.4171,-3.4223,-3.4334,-3.4653,-3.4926,-3.5105,-3.5105,-3.532,0.0,0.0,-3.5603,-3.5679,-3.5877,-3.5898,-3.5838,-3.5708,-3.5699,-3.5661,-3.5589,-3.557,-3.5551,-3.5479,-3.5223,-3.507,-3.507,-3.451,-3.4195,-3.4195,-3.4218,-3.42,-3.42,-3.42,-3.4379,-3.4714,-3.4714,-3.487,-3.5122,-3.5383,-3.5493,-3.5493,-3.5493,-3.5493,-3.5493,-3.5493,-3.5493,-3.5493,-3.5493,-3.5493,-3.5493,-3.5493,-3.6565,-3.793,-3.7988,-3.9123,-4.0489,-4.0489,-4.0489,-4.0489,-4.0489,-4.0489,-4.0489,-4.0489,-4.0508,-4.0739,-4.1604,-4.1854,-4.2316,-4.3951,-4.4316,-4.4586,-4.5432,-4.5586,-4.5586,-4.5586,-4.5586,-4.5586,-4.5586,-4.5586,-4.5586,-4.5586,-4.5586,-4.5586,-4.5586,-4.5586,-4.5586,-4.5586,-4.5586,-4.5586,-4.5586,-4.5586,-4.5586,-4.5586,-4.5586,-4.5586,-4.5586,-4.5586,-4.5586,-4.5586,-4.5586,-4.5586,-4.5586,-4.5586,-4.5586,-3.3807,-3.3807,-3.3807,-3.3807,-3.3807,-3.3807,-3.3807,-3.3807,-3.3815,-3.3928,-3.4093,-3.4223,-3.4357,-3.4634,-3.4851,-3.4851,-3.507,-3.5242,0.0,-3.546,-3.5624,-3.5698,-3.574,-3.5777,-3.5825,-3.576,-3.5697,-3.5678,-3.5674,-3.5641,-3.5584,-3.5302,-3.5139,-3.5105,-3.4715,-3.4423,-3.42,-3.4595,-3.4715,-3.4529,-3.4888,-3.5119,-3.5223,-3.5223,-3.5289,-3.5369,-3.546,-3.5493,-3.5493,-3.5493,-3.5493,-3.5493,-3.5493,-3.5493,-3.5493,-3.5493,-3.5493,-3.5493,-3.5493,-3.6603,-3.8007,-3.8007,-3.9123,-4.0489,-4.0489,-4.0489,-4.0489,-4.0489,-4.0489,-4.0489,-4.0489,-4.0489,-4.0566,-4.0873,-4.1373,-4.197,-4.2527,-4.3528,-4.4393,-4.4682,-4.5201,-4.5586,-4.5586,-4.5586,-4.5586,-4.5586,-4.5586,-4.5586,-4.5586,-4.5586,-4.5586,-4.5586,-4.5586,-4.5586,-4.5586,-4.5586,-4.5586,-4.5586,-4.5586,-4.5586,-4.5586,-4.5586,-4.5586,-4.5586,-4.5586,-4.5586,-4.5586,-4.5586,-4.5586,-4.5586,-4.5586,-4.5586,-3.3807,-3.3807,-3.3807,-3.3807,-3.3807,-3.3807,-3.3807,-3.3807,-3.3807,-3.3807,-3.3935,-3.4068,-3.4068,-3.4311,-3.4529,-3.4529,-3.4774,-3.4981,0.0,-3.5358,-3.5584,-3.5603,-3.5658,-3.5753,-3.5898,-3.5821,-3.5763,-3.5763,-3.5767,-3.5728,-3.5654,-3.5477,-3.534,-3.5277,-3.5013,-3.4756,-3.4513,-3.4907,-3.4999,-3.4851,-3.519,-3.5369,-3.5369,-3.5369,-3.5304,-3.5223,-3.5417,-3.5446,-3.5369,-3.546,-3.5493,-3.5493,-3.5493,-3.5493,-3.5493,-3.5493,-3.5493,-3.5493,-3.5493,-3.6603,-3.8007,-3.8007,-3.9123,-4.0489,-4.0489,-4.0489,-4.0489,-4.0489,-4.0489,-4.0489,-4.0489,-4.0489,-4.0489,-4.0489,-4.0931,-4.1431,-4.1739,-4.2893,-4.3951,-4.4239,-4.4989,-4.5586,-4.5586,-4.5586,-4.5586,-4.5586,-4.5586,-4.5586,-4.5586,-4.5586,-4.5586,-4.5586,-4.5586,-4.5586,-4.5586,-4.5586,-4.5586,-4.5586,-4.5586,-4.5586,-4.5586,-4.5586,-4.5586,-4.5586,-4.5586,-4.5586,-4.5586,-4.5586,-4.5586,-4.5586,-4.5586,-4.5586]}]]